[[{"header":{"parameterUnit":"m.s-1","parameterCategory":1,"la1":30.6,"la2":29.2853,"lo1":-89.7004,"lo2":-87.6739,"dy":0.0162,"dx":0.0183,"nx":112,"ny":82,"refTime":"2023-07-10T00:00:00:Z","depth":0,"parameterNumber":2,"parameterNumberName":"U-component_of_WINDS"},"data":[0.0,0.0,0.0,0.0,0.0,0.0,0.0,0.0,0.0,0.0,0.0,0.0,0.0,0.0,0.0,0.0,0.0,0.0,0.0,0.0,0.0,0.0,0.0,0.0,0.0,0.0,0.0,0.0,0.0,0.0,0.0,0.0,0.0,0.0,0.0,0.0,0.0,0.0,0.0,0.0,0.0,0.0,0.0,0.0,0.0,0.0,0.0,0.0,0.0,0.0,0.0,0.0,0.0,0.0,0.0,0.0,0.0,0.0,0.0,0.0,0.0,0.0,0.0,0.0,0.0,0.0,0.0,0.0,0.0,0.0,0.0,0.0,0.0,0.0,0.0,0.0,0.0,0.0,0.0,0.0,0.0,0.0,0.0,0.0,0.0,0.0,0.0,0.0,0.0,0.0,-2.7194,-3.0541,-3.242,-3.3443,-3.3443,-3.2949,-3.1175,-2.784,0.0,0.0,0.0,0.0,0.0,0.0,0.0,0.0,0.0,0.0,0.0,0.0,0.0,0.0,0.0,0.0,0.0,0.0,0.0,0.0,0.0,0.0,0.0,0.0,0.0,0.0,0.0,0.0,0.0,0.0,0.0,0.0,0.0,0.0,0.0,0.0,0.0,0.0,0.0,0.0,0.0,0.0,0.0,0.0,0.0,0.0,0.0,0.0,0.0,0.0,0.0,0.0,0.0,0.0,0.0,0.0,0.0,0.0,0.0,0.0,0.0,0.0,0.0,0.0,0.0,0.0,0.0,0.0,0.0,0.0,0.0,0.0,0.0,0.0,0.0,0.0,0.0,0.0,0.0,0.0,0.0,0.0,0.0,0.0,0.0,0.0,0.0,0.0,0.0,0.0,0.0,0.0,0.0,0.0,0.0,0.0,0.0,0.0,0.0,0.0,0.0,0.0,0.0,0.0,-2.8571,-3.1928,-3.2571,-3.2734,-3.2734,-3.2641,-3.1175,-2.784,0.0,0.0,0.0,0.0,0.0,0.0,0.0,0.0,0.0,0.0,0.0,0.0,0.0,0.0,0.0,0.0,0.0,0.0,0.0,0.0,0.0,0.0,0.0,0.0,0.0,0.0,0.0,0.0,0.0,0.0,0.0,0.0,0.0,0.0,0.0,0.0,0.0,0.0,0.0,0.0,0.0,0.0,0.0,0.0,0.0,0.0,0.0,0.0,0.0,0.0,0.0,0.0,0.0,0.0,0.0,0.0,0.0,0.0,0.0,0.0,0.0,0.0,0.0,0.0,0.0,0.0,0.0,0.0,0.0,0.0,0.0,0.0,0.0,0.0,0.0,0.0,0.0,0.0,0.0,0.0,0.0,0.0,0.0,0.0,0.0,0.0,0.0,0.0,0.0,0.0,0.0,0.0,0.0,0.0,0.0,0.0,0.0,0.0,0.0,0.0,0.0,0.0,0.0,-2.8762,-3.128,-3.2447,-3.2949,-3.2986,-3.2641,-3.2216,-3.0758,-2.779,-2.7625,0.0,0.0,0.0,0.0,0.0,0.0,0.0,0.0,0.0,0.0,0.0,0.0,0.0,0.0,0.0,0.0,0.0,0.0,0.0,0.0,0.0,0.0,0.0,0.0,0.0,0.0,0.0,0.0,0.0,0.0,0.0,0.0,0.0,0.0,0.0,0.0,0.0,0.0,0.0,0.0,0.0,0.0,0.0,0.0,0.0,0.0,0.0,0.0,0.0,0.0,0.0,0.0,0.0,0.0,0.0,0.0,0.0,0.0,0.0,0.0,0.0,0.0,0.0,0.0,0.0,0.0,0.0,0.0,0.0,0.0,0.0,0.0,0.0,0.0,0.0,0.0,0.0,0.0,0.0,0.0,0.0,0.0,0.0,0.0,0.0,0.0,0.0,0.0,0.0,0.0,0.0,0.0,0.0,0.0,0.0,0.0,0.0,0.0,0.0,0.0,0.0,0.0,-3.0536,-3.2572,-3.2336,-3.2772,-3.2879,-3.2382,-3.1796,-3.0402,-2.779,-2.7625,0.0,0.0,0.0,0.0,0.0,0.0,0.0,0.0,0.0,0.0,0.0,0.0,0.0,0.0,0.0,0.0,0.0,0.0,0.0,0.0,0.0,0.0,0.0,0.0,0.0,0.0,0.0,0.0,0.0,0.0,0.0,0.0,0.0,0.0,0.0,0.0,0.0,0.0,0.0,0.0,0.0,0.0,0.0,0.0,0.0,0.0,0.0,0.0,0.0,0.0,0.0,0.0,0.0,0.0,0.0,0.0,0.0,0.0,0.0,0.0,0.0,0.0,0.0,0.0,0.0,0.0,0.0,0.0,0.0,0.0,0.0,0.0,0.0,0.0,0.0,0.0,0.0,0.0,0.0,0.0,0.0,0.0,0.0,0.0,0.0,0.0,0.0,0.0,0.0,0.0,0.0,0.0,0.0,0.0,0.0,0.0,0.0,0.0,0.0,0.0,0.0,0.0,-2.8922,-3.0343,-3.1447,-3.164,-3.164,-3.1582,-3.1524,-3.0402,-2.779,-2.7625,0.0,0.0,0.0,0.0,0.0,0.0,0.0,0.0,0.0,0.0,0.0,0.0,0.0,0.0,0.0,0.0,0.0,0.0,0.0,0.0,0.0,0.0,0.0,0.0,0.0,0.0,0.0,0.0,0.0,0.0,0.0,0.0,0.0,0.0,0.0,0.0,0.0,0.0,0.0,0.0,0.0,0.0,0.0,0.0,0.0,0.0,0.0,0.0,0.0,0.0,0.0,0.0,0.0,0.0,0.0,0.0,0.0,0.0,0.0,0.0,0.0,0.0,0.0,0.0,0.0,0.0,0.0,0.0,0.0,0.0,0.0,0.0,0.0,0.0,0.0,0.0,0.0,0.0,0.0,0.0,0.0,0.0,0.0,0.0,0.0,0.0,0.0,0.0,0.0,0.0,0.0,0.0,0.0,0.0,0.0,0.0,0.0,0.0,0.0,0.0,0.0,0.0,-2.9856,-3.146,-3.148,-3.191,-3.2007,-3.1539,-3.1482,-3.0402,-2.779,0.0,0.0,0.0,0.0,0.0,0.0,0.0,0.0,0.0,0.0,0.0,0.0,0.0,0.0,0.0,0.0,0.0,0.0,0.0,0.0,0.0,0.0,0.0,0.0,0.0,0.0,0.0,0.0,0.0,0.0,0.0,0.0,0.0,0.0,0.0,0.0,0.0,0.0,0.0,0.0,0.0,0.0,0.0,0.0,0.0,0.0,0.0,0.0,0.0,0.0,0.0,0.0,0.0,0.0,0.0,0.0,0.0,0.0,0.0,0.0,0.0,0.0,0.0,0.0,0.0,0.0,0.0,0.0,0.0,0.0,0.0,0.0,0.0,0.0,0.0,0.0,0.0,0.0,0.0,0.0,0.0,0.0,0.0,0.0,0.0,0.0,0.0,0.0,0.0,0.0,0.0,0.0,0.0,0.0,0.0,0.0,0.0,0.0,0.0,0.0,0.0,0.0,-2.7625,-3.035,-3.2064,-3.1524,-3.1951,-3.2064,-3.1524,-3.1482,-3.0276,-2.7454,0.0,0.0,0.0,0.0,0.0,0.0,0.0,0.0,0.0,0.0,0.0,0.0,0.0,0.0,0.0,0.0,0.0,0.0,0.0,0.0,0.0,0.0,0.0,0.0,0.0,0.0,0.0,0.0,0.0,0.0,0.0,0.0,0.0,0.0,0.0,0.0,0.0,0.0,0.0,0.0,0.0,0.0,0.0,0.0,0.0,0.0,0.0,0.0,0.0,0.0,0.0,0.0,0.0,0.0,0.0,0.0,0.0,0.0,0.0,0.0,0.0,0.0,0.0,0.0,0.0,0.0,0.0,0.0,0.0,0.0,0.0,0.0,0.0,0.0,0.0,0.0,0.0,0.0,0.0,0.0,0.0,0.0,0.0,0.0,0.0,0.0,0.0,0.0,0.0,0.0,0.0,0.0,0.0,0.0,0.0,0.0,0.0,0.0,0.0,0.0,0.0,0.0,-2.7625,-2.9894,-3.1482,-3.1482,-3.1482,-3.1482,-3.1482,-3.1482,-3.0093,0.0,0.0,0.0,0.0,0.0,0.0,0.0,0.0,0.0,0.0,0.0,0.0,0.0,0.0,0.0,0.0,0.0,0.0,0.0,0.0,0.0,0.0,0.0,0.0,0.0,0.0,0.0,0.0,0.0,0.0,0.0,0.0,0.0,0.0,0.0,0.0,0.0,0.0,0.0,0.0,0.0,0.0,0.0,0.0,0.0,0.0,0.0,0.0,0.0,0.0,0.0,0.0,0.0,0.0,0.0,0.0,0.0,0.0,0.0,0.0,0.0,0.0,0.0,0.0,0.0,0.0,0.0,0.0,0.0,0.0,0.0,0.0,0.0,0.0,0.0,0.0,0.0,0.0,0.0,0.0,0.0,0.0,0.0,0.0,0.0,0.0,0.0,0.0,0.0,0.0,0.0,0.0,0.0,0.0,0.0,0.0,0.0,0.0,0.0,0.0,0.0,0.0,0.0,-2.7625,-2.9894,-3.1482,-3.1482,-3.1482,-3.1278,-3.0703,-3.0644,-2.9247,-2.5992,0.0,0.0,0.0,0.0,0.0,0.0,0.0,0.0,0.0,0.0,0.0,0.0,0.0,0.0,0.0,0.0,0.0,0.0,0.0,0.0,0.0,0.0,0.0,0.0,0.0,0.0,0.0,0.0,0.0,0.0,0.0,0.0,0.0,0.0,0.0,0.0,0.0,0.0,0.0,0.0,0.0,0.0,0.0,0.0,0.0,0.0,0.0,0.0,0.0,0.0,0.0,0.0,0.0,0.0,0.0,0.0,0.0,0.0,0.0,0.0,0.0,0.0,0.0,0.0,0.0,0.0,0.0,0.0,0.0,0.0,0.0,0.0,0.0,0.0,0.0,0.0,0.0,0.0,0.0,0.0,0.0,0.0,0.0,0.0,0.0,0.0,0.0,0.0,0.0,0.0,0.0,0.0,0.0,0.0,0.0,0.0,0.0,0.0,0.0,0.0,0.0,0.0,-2.7625,-2.9894,-3.1482,-3.1482,-3.1482,-3.1161,-3.0389,-3.0329,-2.8976,-2.5895,0.0,0.0,0.0,0.0,0.0,0.0,0.0,0.0,0.0,0.0,0.0,0.0,0.0,0.0,0.0,0.0,0.0,0.0,0.0,0.0,0.0,0.0,0.0,0.0,0.0,0.0,0.0,0.0,0.0,0.0,0.0,0.0,0.0,0.0,0.0,0.0,0.0,0.0,0.0,0.0,0.0,0.0,0.0,0.0,0.0,0.0,0.0,0.0,0.0,0.0,0.0,0.0,0.0,0.0,0.0,0.0,0.0,0.0,0.0,0.0,0.0,0.0,0.0,0.0,0.0,0.0,0.0,0.0,0.0,0.0,0.0,0.0,0.0,0.0,0.0,0.0,0.0,0.0,0.0,0.0,0.0,0.0,0.0,0.0,0.0,0.0,0.0,0.0,0.0,0.0,0.0,0.0,0.0,0.0,0.0,0.0,0.0,0.0,0.0,0.0,0.0,0.0,-2.7575,-2.9839,-3.1409,-3.1409,-3.1351,-3.097,-3.0133,-3.0072,-2.8923,-2.6149,0.0,0.0,0.0,0.0,0.0,0.0,0.0,0.0,0.0,0.0,0.0,0.0,0.0,0.0,0.0,0.0,0.0,0.0,0.0,0.0,0.0,0.0,0.0,0.0,0.0,0.0,0.0,0.0,0.0,0.0,0.0,0.0,0.0,0.0,0.0,0.0,0.0,0.0,0.0,0.0,0.0,0.0,0.0,0.0,0.0,0.0,0.0,0.0,0.0,0.0,0.0,0.0,0.0,0.0,0.0,0.0,0.0,0.0,0.0,0.0,-3.3525,0.0,0.0,0.0,0.0,0.0,0.0,0.0,0.0,0.0,0.0,0.0,0.0,0.0,0.0,0.0,0.0,0.0,0.0,0.0,0.0,0.0,0.0,0.0,0.0,0.0,0.0,0.0,0.0,0.0,0.0,0.0,0.0,0.0,0.0,0.0,0.0,0.0,0.0,0.0,0.0,0.0,-2.7509,-2.9351,-3.0584,-3.0584,-2.995,-2.9192,-2.8298,-2.8247,-2.7364,-2.5192,-2.4824,0.0,0.0,0.0,0.0,0.0,0.0,0.0,0.0,0.0,0.0,0.0,0.0,0.0,0.0,0.0,0.0,0.0,0.0,0.0,0.0,0.0,0.0,0.0,0.0,0.0,0.0,0.0,0.0,0.0,0.0,0.0,0.0,0.0,0.0,0.0,0.0,0.0,0.0,0.0,0.0,0.0,0.0,0.0,0.0,0.0,0.0,0.0,0.0,0.0,0.0,0.0,0.0,0.0,0.0,0.0,0.0,0.0,0.0,0.0,0.0,-3.2801,0.0,0.0,0.0,0.0,0.0,0.0,0.0,0.0,0.0,0.0,0.0,0.0,0.0,0.0,0.0,0.0,0.0,0.0,0.0,0.0,0.0,0.0,0.0,0.0,0.0,0.0,0.0,0.0,0.0,0.0,0.0,0.0,0.0,0.0,0.0,0.0,0.0,0.0,0.0,0.0,-2.6481,-2.8396,-2.969,-2.969,-2.9254,-2.862,-2.7802,-2.767,-2.7103,-2.5703,-2.5109,0.0,0.0,0.0,0.0,0.0,0.0,0.0,0.0,0.0,0.0,0.0,0.0,0.0,0.0,0.0,0.0,0.0,0.0,0.0,0.0,0.0,0.0,0.0,0.0,0.0,0.0,0.0,0.0,0.0,0.0,0.0,0.0,0.0,0.0,0.0,0.0,0.0,0.0,0.0,0.0,0.0,0.0,0.0,0.0,0.0,0.0,0.0,0.0,0.0,0.0,0.0,0.0,0.0,-3.6299,-3.6157,-3.4825,-3.5448,-3.5393,-3.4691,-3.4549,-3.4195,-3.3574,-3.2362,0.0,0.0,0.0,0.0,0.0,0.0,0.0,0.0,0.0,0.0,0.0,0.0,0.0,0.0,0.0,0.0,0.0,0.0,0.0,0.0,0.0,0.0,0.0,0.0,-2.5247,-2.4908,0.0,0.0,0.0,0.0,0.0,0.0,0.0,0.0,0.0,0.0,0.0,0.0,-2.5398,-2.7391,-2.8748,-2.8748,-2.862,-2.8233,-2.7537,-2.7484,-2.7229,-2.6521,-2.5611,-2.4943,0.0,0.0,0.0,0.0,0.0,0.0,0.0,0.0,0.0,0.0,0.0,0.0,0.0,0.0,0.0,0.0,0.0,0.0,0.0,0.0,0.0,0.0,0.0,0.0,0.0,0.0,0.0,0.0,0.0,0.0,0.0,0.0,-3.2586,-3.3305,0.0,0.0,0.0,0.0,0.0,0.0,0.0,0.0,0.0,0.0,0.0,0.0,0.0,-3.5438,-3.5448,-3.6206,-3.683,-3.739,-3.7543,-3.7181,-3.6318,-3.6438,-3.6045,-3.5274,-3.4179,0.0,-3.4292,-3.3544,0.0,0.0,0.0,0.0,0.0,0.0,0.0,0.0,0.0,0.0,0.0,0.0,0.0,0.0,0.0,0.0,0.0,0.0,0.0,0.0,0.0,0.0,-2.7494,-2.7632,-2.6942,-2.6465,0.0,-2.5059,-2.3213,-2.4192,-2.3261,0.0,0.0,0.0,0.0,0.0,0.0,0.0,-2.5342,-2.6856,-2.7855,-2.7855,-2.7229,-2.6782,-2.6658,-2.6658,-2.6589,-2.6533,-2.6395,-2.545,-2.3592,-2.4303,0.0,0.0,0.0,0.0,0.0,0.0,0.0,0.0,0.0,0.0,0.0,0.0,0.0,0.0,0.0,0.0,0.0,0.0,0.0,0.0,0.0,0.0,0.0,0.0,0.0,0.0,0.0,0.0,0.0,-3.2154,-3.317,-3.3469,-3.2841,-3.2168,0.0,0.0,0.0,0.0,0.0,0.0,0.0,0.0,0.0,-3.5098,-3.622,-3.6655,-3.6238,-3.6934,-3.7247,-3.7138,-3.7588,-3.7175,-3.6006,-3.6384,-3.6228,-3.5474,-3.4876,-3.4786,-3.4981,-3.3918,-3.3499,-3.338,0.0,0.0,0.0,0.0,-2.7987,-2.7264,-2.6958,-2.7082,0.0,-2.7381,0.0,0.0,0.0,0.0,0.0,0.0,0.0,0.0,0.0,0.0,-2.7795,-2.8423,-2.8448,-2.8461,-2.895,-2.7406,-2.5887,0.0,-2.4657,-2.3576,-2.3262,0.0,0.0,0.0,0.0,-2.5161,-2.5471,-2.6401,-2.704,-2.704,-2.6714,-2.6533,-2.6533,-2.6533,-2.6245,-2.5664,-2.5664,-2.5001,-2.3454,-2.3363,-2.228,0.0,0.0,0.0,0.0,0.0,0.0,0.0,0.0,0.0,0.0,0.0,0.0,0.0,0.0,0.0,0.0,0.0,0.0,0.0,0.0,0.0,0.0,0.0,0.0,0.0,0.0,0.0,0.0,-3.2662,-3.3559,-3.3724,-3.3036,-3.2422,0.0,0.0,0.0,0.0,0.0,0.0,-3.5038,-3.6152,-3.6595,-3.6202,-3.7397,-3.7642,-3.6697,-3.7205,-3.7203,-3.66,-3.6995,-3.66,-3.5504,-3.6054,-3.6006,-3.5504,-3.5504,-3.5504,-3.5429,-3.4412,-3.4008,-3.3978,-3.3357,-3.2108,-3.0516,-2.9741,-2.8811,-2.7983,-2.7793,-2.8068,-2.8536,-2.8536,0.0,-2.7821,-2.7394,0.0,0.0,0.0,0.0,-2.5674,-2.6628,-2.7406,-2.8134,-2.895,-2.9478,-2.9792,-2.9792,-2.89,-2.7946,0.0,-2.6302,-2.5184,-2.4343,0.0,0.0,0.0,0.0,-2.5598,-2.5598,-2.6101,-2.6533,-2.6533,-2.6533,-2.6383,-2.6164,-2.6094,-2.5664,-2.4707,-2.4636,-2.4192,-2.3147,-2.2403,-2.1648,-2.0772,0.0,0.0,0.0,0.0,0.0,0.0,0.0,0.0,0.0,0.0,0.0,0.0,0.0,0.0,0.0,0.0,0.0,0.0,0.0,0.0,0.0,0.0,0.0,0.0,0.0,0.0,0.0,0.0,0.0,-3.4352,-3.4951,0.0,0.0,0.0,0.0,-3.2437,-3.2992,-3.4314,-3.6467,-3.6684,-3.6996,-3.768,-3.8411,-3.8149,-3.6628,-3.663,-3.6676,-3.66,-3.5958,-3.5569,-3.5504,-3.5569,-3.5569,-3.5504,-3.5504,-3.5504,-3.5504,-3.5429,-3.54,-3.52,-3.3033,-3.2112,-3.164,-2.8781,-2.83,-2.9034,-2.8286,-2.8762,-2.9704,-2.9704,-2.8624,-2.703,-2.546,-2.4933,0.0,0.0,-2.6327,-2.7293,-2.7871,-2.8837,-2.9679,-2.9729,-2.9779,-2.9792,-2.9792,-2.89,-2.8411,0.0,-2.8285,-2.7143,-2.7092,0.0,-2.6,-2.4908,-2.5222,-2.5598,-2.5598,-2.6101,-2.6533,-2.6533,-2.6533,-2.6094,-2.5158,-2.5075,-2.4636,-2.3672,-2.3599,-2.3147,-2.2103,-2.2027,-2.1573,-2.0653,-1.9781,0.0,0.0,0.0,0.0,0.0,0.0,0.0,0.0,0.0,0.0,0.0,0.0,0.0,0.0,0.0,0.0,0.0,0.0,0.0,0.0,0.0,0.0,0.0,0.0,0.0,0.0,0.0,0.0,-3.4397,-3.4322,0.0,-3.4128,-3.3969,-3.3804,-3.3759,-3.4809,-3.5754,-3.659,-3.7151,-3.752,-3.7806,-3.7541,-3.7188,-3.6615,-3.6615,-3.6384,-3.5894,-3.6117,-3.5943,-3.5504,-3.5504,-3.5504,-3.5504,-3.5504,-3.5504,-3.5439,-3.4839,-3.492,-3.5379,-3.39,-3.2933,-3.2249,-3.0512,-2.9809,-2.9541,-2.9265,-2.9453,-2.9792,-2.9792,-2.939,-2.8787,-2.8197,-2.8021,-2.8059,-2.8247,-2.8586,-2.895,-2.9139,-2.949,-2.9792,-2.9792,-2.9792,-2.9792,-2.9792,-2.9478,-2.9315,-2.9716,-2.8725,-2.7808,-2.7808,-2.8247,-2.8222,-2.7105,-2.7092,-2.7205,-2.7205,-2.6766,-2.6233,-2.5594,-2.5511,-2.5146,-2.4108,-2.4036,-2.3599,-2.2627,-2.2553,-2.2103,-2.1155,-2.1078,-2.0934,-2.0644,-2.0264,-1.9697,0.0,0.0,0.0,0.0,0.0,0.0,0.0,0.0,0.0,0.0,0.0,0.0,0.0,0.0,0.0,0.0,0.0,0.0,0.0,0.0,0.0,0.0,0.0,0.0,0.0,-3.2198,-3.332,-3.3769,-3.3619,-3.3664,-3.4098,-3.3948,-3.4008,-3.4442,-3.5548,-3.6337,-3.6615,-3.71,-3.7397,-3.7397,-3.6843,-3.6492,-3.6228,-3.6228,-3.6006,-3.5504,-3.6006,-3.5943,-3.5504,-3.5504,-3.525,-3.4861,-3.531,-3.5041,-3.4301,-3.4071,-3.4177,-3.4409,-3.3463,-3.2664,-3.2033,-3.1044,-3.0355,-2.9792,-2.9792,-2.9792,-2.9792,-2.9792,-2.9792,-2.9792,-2.9792,-2.9534,-2.9197,-2.9197,-2.9197,-2.9118,-2.8791,-2.8949,-2.9118,-2.8791,-2.8712,-2.8712,-2.8712,-2.8433,-2.8366,-2.8639,-2.8362,-2.7989,-2.7693,-2.801,-2.7968,-2.7261,-2.6551,-2.6306,-2.6615,-2.5693,-2.4816,-2.412,-2.4354,-2.412,-2.3073,-2.2776,-2.2293,-2.1573,-2.123,-2.0919,-2.0624,-2.0283,-2.0195,-2.0342,-2.0205,-1.9694,-1.8599,0.0,0.0,0.0,0.0,0.0,0.0,0.0,0.0,0.0,0.0,0.0,0.0,0.0,0.0,0.0,0.0,0.0,0.0,0.0,0.0,0.0,0.0,0.0,-2.9456,-3.1315,-3.2527,-3.2542,-3.3095,-3.3499,-3.3499,-3.4068,-3.4457,-3.4472,-3.51,-3.5816,-3.6554,-3.6507,-3.6476,-3.6476,-3.6476,-3.6151,-3.5444,-3.5489,-3.5504,-3.5504,-3.5504,-3.5504,-3.5504,-3.5504,-3.4801,-3.3634,-3.4872,-3.4198,-3.2234,-3.3456,-3.338,-3.2464,-3.1536,-3.118,-3.1106,-3.0139,-2.9792,-2.9779,-2.9754,-2.9767,-2.9792,-2.9792,-2.9792,-2.9792,-2.9792,-2.8937,-2.8096,-2.8084,-2.8016,-2.7844,-2.6801,-2.7279,-2.7763,-2.6719,-2.6483,-2.6483,-2.6483,-2.5813,-2.5498,-2.6374,-2.7279,-2.7763,-2.6916,-2.59,-2.5272,-2.5206,-2.3665,0.0,-2.3616,-2.2854,-2.224,-2.2172,-2.2932,-2.304,-2.2027,-2.1209,-2.0731,-2.0585,-1.9785,-1.9697,-2.0527,-1.9766,-1.9521,-1.9847,-1.9448,-1.9014,-1.8594,0.0,0.0,0.0,0.0,0.0,0.0,0.0,0.0,0.0,0.0,0.0,0.0,0.0,0.0,0.0,0.0,0.0,0.0,0.0,0.0,0.0,-2.7032,-2.9139,-3.0568,-3.1767,-3.2691,-3.317,-3.338,-3.3499,-3.3499,-3.3664,-3.3963,-3.4442,-3.4651,-3.5093,-3.5752,-3.4908,-3.4364,-3.4364,-3.4364,-3.4256,-3.4038,-3.5011,-3.5504,-3.5504,-3.5504,-3.5504,-3.5504,-3.5504,-3.531,-3.4902,-3.4596,-3.4042,-3.3389,-3.2398,-3.1815,-3.1536,-3.1315,-3.118,-3.1106,-3.0139,-2.9792,-2.9679,-2.885,-2.9114,-2.9792,-2.9792,-2.9792,-2.9624,-2.8858,-2.8347,-2.7924,-2.7128,-2.6964,-2.6883,-2.6554,-2.6719,-2.6883,-2.6565,-2.6483,-2.6483,-2.6483,-2.6352,-2.624,-2.6427,-2.6047,-2.5865,-2.6519,-2.6312,-2.6017,-2.5686,-2.4895,0.0,-2.4134,-2.3553,-2.2895,-2.2166,-2.1728,-2.1397,-2.1028,-2.0212,-1.9935,-2.0585,-2.0342,-2.0322,-2.0557,-2.0342,-1.9947,-1.9275,-1.8071,-1.7269,0.0,0.0,0.0,0.0,0.0,0.0,0.0,0.0,0.0,0.0,0.0,0.0,0.0,0.0,0.0,0.0,0.0,0.0,0.0,0.0,0.0,0.0,-2.6228,-2.8359,-3.0023,-3.1319,-3.2243,-3.2632,-3.2677,-3.2677,-3.2677,-3.2916,-3.3245,-3.3619,-3.4158,-3.4651,-3.5055,-3.4607,-3.4083,-3.3514,-3.4038,-3.4068,-3.3499,-3.4831,-3.5504,-3.5504,-3.5504,-3.5504,-3.5504,-3.5504,-3.4981,0.0,-3.4013,-3.3235,-3.1958,-3.1395,-3.097,0.0,0.0,0.0,0.0,0.0,-2.9792,-2.9704,-2.9038,-2.8909,-2.9106,-2.9106,-2.8779,-2.8291,-2.7614,-2.6818,-2.6074,-2.544,-2.4993,-2.4705,-2.463,-2.4891,-2.5224,-2.5135,-2.5062,-2.5062,-2.5062,-2.4849,-2.469,-2.4988,-2.4251,0.0,-2.4661,-2.453,-2.4202,-2.3906,-2.3005,-2.2328,-2.2404,-2.2015,-2.1544,-2.0964,-2.0767,-2.0676,-2.0595,-1.9785,0.0,0.0,0.0,-1.9868,-1.9402,-1.9081,0.0,0.0,0.0,-1.6524,-1.6261,0.0,0.0,0.0,-1.8371,-1.8714,0.0,0.0,0.0,0.0,0.0,0.0,0.0,0.0,0.0,0.0,0.0,0.0,0.0,0.0,0.0,0.0,-2.5314,-2.6863,-2.8598,-3.0329,-3.1409,-3.1482,-3.1482,-3.1482,-3.1482,-3.2063,-3.2437,-3.2512,-3.3589,-3.4292,-3.4367,0.0,0.0,0.0,0.0,-3.4637,-3.3499,-3.4831,-3.5504,-3.5504,-3.5504,-3.5504,-3.5504,-3.5504,-3.4351,-3.2349,-3.3403,-3.2125,-2.9529,-3.0624,-3.0558,-2.9792,-2.9792,-2.9792,-2.9779,-2.9654,-2.9679,-2.9767,-2.9487,0.0,0.0,-2.7936,-2.729,-2.6483,-2.6307,-2.5044,-2.365,-2.3499,-2.2914,-2.2252,-2.2053,-2.2726,-2.3381,-2.3122,-2.3135,-2.3135,-2.3135,-2.2519,-2.2178,-2.292,-2.2432,-2.2002,-2.2373,-2.1855,-2.1303,-2.1203,-1.9905,-1.9181,-1.9875,-1.9675,-1.9434,-1.9434,0.0,0.0,-2.0557,-1.9785,-1.9658,-2.0353,-1.9543,-1.8666,-1.7685,-1.6985,-1.6223,-1.545,-1.6006,-1.6106,-1.582,-1.6148,-1.6711,-1.7483,-1.7572,-1.79,0.0,0.0,0.0,0.0,0.0,0.0,0.0,0.0,0.0,0.0,0.0,0.0,0.0,0.0,0.0,-2.4619,-2.6168,-2.7538,-2.7894,-2.9442,-3.0777,-3.1409,-3.1482,-3.1482,-3.1482,-3.1644,-3.1943,-3.2482,-3.2751,-3.3125,-3.3649,-3.2796,-3.2422,-3.2691,-3.2961,-3.323,-3.3499,-3.4831,-3.5504,-3.5504,0.0,0.0,-3.5504,-3.5504,-3.4853,-3.36,-3.3059,-3.2113,-3.079,-3.0253,-2.9921,-2.9792,-2.9792,-2.9792,-2.9679,-2.8775,-2.9013,-2.9499,-2.773,-2.7574,-2.7936,-2.7128,-2.6637,-2.6307,-2.5378,-2.483,0.0,-2.3463,-2.3097,-2.2922,-2.2852,-2.3054,-2.3179,-2.3096,-2.3135,-2.3135,-2.3135,-2.2744,-2.2441,-2.2607,-2.2227,-2.1914,-2.1992,-2.2148,-2.1973,-2.1332,-2.0909,-2.0673,-2.0453,-2.0417,-2.0312,-2.0312,-1.9853,-1.9814,-2.0508,-1.9785,-1.9266,-1.9307,-1.8329,-1.7607,-1.7376,-1.6377,-1.5784,-1.5655,-1.5147,-1.4943,-1.513,-1.5429,-1.5756,-1.6197,-1.7213,-1.8237,0.0,0.0,0.0,0.0,0.0,0.0,0.0,0.0,0.0,0.0,0.0,-2.3078,-2.3078,0.0,-2.4167,-2.4732,-2.5586,-2.6582,-2.7591,-2.8812,-2.995,-3.0777,-3.1219,-3.1482,-3.1482,-3.1482,-3.1616,-3.2003,-3.2332,-3.2662,-3.2991,-3.2691,-3.2362,-3.2033,-3.2662,-3.2841,-3.2512,-3.3844,-3.4502,-3.4502,-3.4502,-3.4297,-3.3868,-3.3868,-3.3105,-3.1723,-3.1548,-3.0977,-3.007,-2.9884,-2.9792,-2.9792,-2.9792,-2.9792,-2.9729,-2.9164,-2.8971,-2.8785,-2.7681,-2.6769,-2.608,-2.553,-2.4802,-2.4054,-2.3482,-2.3073,-2.2554,-2.2001,-2.1543,-2.1309,-2.1738,-2.1855,-2.1963,-2.2412,-2.251,-2.251,-2.251,-2.2344,-2.2197,-2.2197,-2.2031,-2.1816,-2.1592,-2.1738,-2.1728,-2.1299,-2.1045,-2.082,-2.0596,-2.0157,-1.9766,-1.9766,-1.8916,-1.8446,-1.8912,-1.8509,-1.8291,-1.8123,-1.709,-1.6519,-1.6519,-1.5462,-1.4894,-1.4894,-1.477,-1.4816,-1.4963,-1.5398,-1.5691,-1.5825,-1.648,-1.703,0.0,0.0,0.0,0.0,0.0,0.0,0.0,-2.043,-2.1876,-2.1229,-2.2519,-2.3778,-2.3778,-2.3778,-2.4079,-2.4996,-2.5146,-2.5699,-2.722,-2.8247,-2.9066,-2.995,-3.0896,-3.1482,-3.1482,-3.1482,-3.1482,-3.1482,-3.2018,-3.2317,-3.2317,-3.2826,-3.2691,-3.1691,-3.2751,-3.2856,-3.1928,-3.2961,-3.3499,-3.3499,-3.3499,-3.3022,-3.2205,-3.2205,-3.1198,-2.9548,-2.9836,-2.9477,-2.88,-2.9277,-2.9465,-2.9465,-2.9465,-2.9465,-2.949,-2.9459,-2.8876,-2.7941,-2.745,-2.5898,-2.4061,-2.3825,-2.2877,-2.1885,-2.1885,-2.1387,-2.082,-2.082,-2.0322,-1.9951,-2.0644,-2.082,-2.1006,-2.1709,-2.1885,-2.1885,-2.1885,-2.1816,-2.1758,-2.1758,-2.1689,-2.1432,-2.0841,-2.0774,-2.0854,-2.1024,-2.0634,-2.0323,-2.0323,-1.9353,-1.8638,-1.8638,-1.7827,-1.7342,-1.7342,-1.709,-1.7009,-1.7009,-1.5951,-1.5379,-1.5379,-1.4573,-1.4088,-1.4088,-1.4609,-1.4903,-1.4963,-1.5491,-1.5772,-1.5832,-1.5832,-1.5832,-1.4875,-1.5523,-1.6253,-1.6763,-1.7754,-1.8745,0.0,-2.1279,-2.3228,-2.3021,-2.4682,-2.6088,-2.6088,-2.6088,-2.6126,-2.6319,-2.6276,-2.6395,-2.6564,-2.7351,-2.8182,-2.9066,-3.0524,-3.1482,-3.1482,-3.1482,-3.1482,-3.1482,-3.1541,-3.1586,-3.1586,-3.1661,-3.1958,-3.2392,-3.2542,-3.2841,-3.3275,-3.3425,-3.3499,-3.3499,-3.3499,-3.3022,-3.2205,-3.2205,-3.1198,-2.9465,-2.8715,-2.8258,-2.8197,-2.826,-2.8298,-2.8298,-2.8298,-2.8298,-2.8263,-2.8324,-2.7968,-2.7262,-2.5326,-2.4211,-2.3416,-2.2501,-2.1997,-2.1885,-2.1885,-2.1816,-2.1738,-2.1738,-2.167,-2.1611,-2.1709,-2.1738,-2.1768,-2.1865,-2.1885,-2.1885,-2.1885,-2.1582,-2.1309,-2.1309,-2.0986,-2.0449,-1.9436,-1.9268,-1.9594,-2.0557,-1.9794,-1.9195,-1.9195,-1.823,-1.7496,-1.7496,-1.7415,-1.7342,-1.7342,-1.6437,-1.5861,-1.5861,-1.4901,-1.425,-1.425,-1.4166,-1.4088,-1.4088,-1.4402,-1.4703,-1.4963,-1.5291,-1.5578,-1.5832,-1.5832,-1.5832,-1.4427,-1.5466,-1.6406,-1.7821,-1.8994,-1.9781,-1.9952,-2.1345,-2.2583,-2.2545,-2.4178,-2.5664,-2.5664,-2.5574,-2.5724,-2.642,-2.5925,-2.5724,-2.6445,-2.7604,-2.862,-2.8939,-2.9479,-2.9834,-2.9834,-3.0866,-3.1004,-2.9909,-3.0881,-3.1482,-3.1482,-3.1482,-3.1601,-3.1943,-3.1943,-3.2078,-3.2347,-3.2362,-3.2094,-3.1643,-3.1643,-3.0922,-2.9553,-2.9553,-2.9094,-2.8222,-2.7822,-2.7808,-2.8109,-2.8109,-2.8109,-2.8109,-2.8109,-2.7705,-2.7211,-2.7256,-2.6729,-2.5856,-2.4341,-2.3101,-2.211,-2.1656,-2.1328,-2.1113,-2.1113,-2.1113,-2.1113,-2.1113,-2.1113,-2.1113,-2.1113,-2.1113,-2.1113,-2.1113,-2.1113,-2.1113,-2.1113,-2.048,-1.9949,-1.9949,-1.9234,-1.855,-1.8069,-1.7989,-1.8149,-1.8621,-1.831,-1.7989,-1.7989,-1.709,-1.6116,-1.547,-1.547,-1.547,-1.547,-1.5061,-1.4734,-1.4734,-1.4334,-1.4088,-1.4088,-1.4088,-1.4088,-1.4088,-1.4369,-1.4583,-1.4703,-1.517,-1.5458,-1.5578,-1.5752,-1.5832,-1.3671,-1.4838,-1.6027,-1.8071,-1.9335,-2.0098,-2.0332,-2.1207,-2.2027,-2.2027,-2.3588,-2.5004,-2.5004,-2.5166,-2.5536,-2.6395,-2.5799,-2.5548,-2.6352,-2.7736,-2.8625,-2.847,-2.8311,-2.7995,-2.7305,-2.934,-3.0357,-2.9475,-3.0731,-3.1482,-3.1482,-3.1482,-3.1482,-3.1482,-3.1482,-3.1482,-3.1482,-3.1482,-3.1087,-3.0329,-3.0329,-2.938,-2.767,-2.7484,-2.7259,-2.7055,-2.7055,-2.7281,-2.7657,-2.7657,-2.7657,-2.7645,-2.7344,-2.681,-2.6098,-2.5552,-2.4963,-2.4248,-2.3234,-2.209,-2.1045,-2.1045,-2.083,-2.0566,-2.0566,-2.0566,-2.0566,-2.0566,-2.0566,-2.0566,-2.0566,-2.0566,-2.0566,-2.0245,-2.0157,-2.0079,-1.9756,-1.9116,-1.855,-1.855,-1.7819,-1.7172,-1.6927,-1.6846,-1.6764,-1.6445,-1.6445,-1.6527,-1.6846,-1.5951,-1.4977,-1.4166,-1.4088,-1.4088,-1.4088,-1.4088,-1.4088,-1.4088,-1.4088,-1.4088,-1.4088,-1.4088,-1.4088,-1.4088,-1.4295,-1.4256,-1.4067,-1.4482,-1.4577,-1.4359,-1.4553,-1.488,-1.255,-1.3611,-1.4796,-1.6319,-1.7652,-1.8906,-1.9746,-2.0984,-2.2027,-2.2027,-2.3588,-2.5004,-2.5004,-2.5779,-2.6483,-2.6521,-2.6496,-2.6496,-2.6521,-2.7229,-2.756,-2.7105,-2.723,-2.6402,-2.397,-2.6752,-2.946,-3.1243,-3.1437,-3.1482,-3.1482,-3.1482,-3.1482,-3.1482,-3.1482,-3.1482,-3.1482,-3.1482,-3.1087,-3.0329,-3.0329,-2.938,-2.767,-2.6905,-2.6533,-2.6546,-2.6546,-2.6559,-2.6584,-2.6584,-2.6584,-2.6433,-2.5489,-2.5064,-2.4826,-2.2894,-2.2516,-2.2772,-2.163,-2.0957,-2.0586,-2.0586,-2.0576,-2.0566,-2.0566,-2.0566,-2.0566,-2.0566,-2.0566,-2.0566,-2.0566,-2.0566,-2.0323,-1.9283,-1.9045,-1.8718,-1.7666,-1.7334,-1.7342,-1.7342,-1.7334,-1.7009,-1.5944,-1.5779,-1.5379,-1.4334,-1.4166,-1.4573,-1.5621,-1.4817,-1.4173,-1.4088,-1.4088,-1.4088,-1.4088,-1.4088,-1.4088,-1.4088,-1.4088,-1.4088,-1.4088,-1.4088,-1.4088,-1.4088,-1.4095,-1.3703,-1.2891,-1.2909,-1.2541,-1.1795,-1.1806,-1.259,-1.1337,-1.2664,-1.4247,-1.6102,-1.7367,-1.8394,-1.9277,-1.9895,-2.0206,-2.0206,-2.0794,-2.1553,-2.2343,-2.2852,-2.3601,-2.5119,-2.4745,-2.477,-2.6319,-2.5649,-2.5821,-2.8064,-2.6748,-2.6484,-2.8659,-2.8712,-2.8323,-2.7649,-3.0043,-3.1482,-3.1482,-3.1482,-3.1482,-3.1482,-3.1482,-3.1219,-3.0703,-3.0703,-3.0011,-2.8556,-2.8051,-2.7484,-2.6905,-2.6589,-2.6533,-2.6533,-2.6533,-2.6533,-2.6533,-2.6533,-2.6533,-2.6383,-2.537,-2.4564,-2.3818,-2.2478,-2.1762,-2.1308,-2.0938,-2.0693,-2.0566,-2.0566,-2.0566,-2.0566,-2.0566,-2.0566,-2.0566,-2.0566,-2.0566,-2.0566,-2.0566,-2.0566,-2.0323,-1.9283,-1.9036,-1.8718,-1.7577,-1.6764,-1.6273,-1.6273,-1.5628,-1.5068,-1.4734,-1.4657,-1.4489,-1.4166,-1.4088,-1.425,-1.4573,-1.4328,-1.4088,-1.4088,-1.4088,-1.4088,-1.4088,-1.4088,-1.4088,-1.4088,-1.4088,-1.373,-1.2942,-1.2942,-1.251,-1.1821,-1.174,-1.1602,-1.1332,-1.1575,-1.1557,-1.1268,-1.1563,-1.1931,-1.0891,-1.2143,-1.3669,-1.5171,-1.6633,-1.7789,-1.8392,-1.8952,-1.9287,-1.9287,-1.9864,-2.051,-2.0853,-2.1698,-2.2813,-2.428,-2.4079,-2.4368,-2.6269,-2.5939,-2.6231,-2.8098,-2.7052,-2.71,-2.951,-2.9056,-2.8068,-2.6767,-2.9041,-3.0492,-3.0492,-3.0492,-3.0806,-3.1452,-3.1219,-3.097,-3.0718,-3.0133,-2.9129,-2.767,-2.6905,-2.6533,-2.6533,-2.6533,-2.6138,-2.5611,-2.6269,-2.6126,-2.5624,-2.6282,-2.6533,-2.6383,-2.5004,-2.4036,-2.3368,-2.1962,-2.1155,-2.0566,-2.0566,-2.0566,-2.0566,-2.0566,-2.0566,-2.0566,-2.0566,-2.0566,-2.0566,-2.0566,-2.0566,-2.0566,-2.0566,-2.0323,-1.9756,-1.863,-1.806,-1.7496,-1.6363,-1.5628,-1.5137,-1.5137,-1.4573,-1.4088,-1.4088,-1.4088,-1.4088,-1.4088,-1.4088,-1.4088,-1.4088,-1.4088,-1.4088,-1.4088,-1.4088,-1.4088,-1.4088,-1.4088,-1.3913,-1.347,-1.347,-1.2942,-1.1729,-1.1724,-1.1381,-1.0611,-1.0611,-1.0438,-1.0009,-1.0236,-1.0159,-0.9795,-1.012,-1.0499,-1.1069,-1.2091,-1.2975,-1.3588,-1.5355,-1.7081,-1.7153,-1.8187,-1.9136,-1.916,-2.0485,-2.1386,-2.0364,-2.2032,-2.3641,-2.3891,-2.4305,-2.5008,-2.6244,-2.7734,-2.8291,-2.7175,-2.7917,-2.8092,-2.6961,-2.7993,-2.8712,-2.8607,0.0,-2.8757,-2.8757,-2.8757,-2.9609,-3.1422,-3.0777,-3.0703,-3.1409,-2.9766,-2.8492,-2.7604,-2.685,-2.6533,-2.6533,-2.6533,-2.5598,-2.4217,-2.5787,-2.5573,-2.4243,-2.5812,-2.6452,-2.6233,-2.4253,-2.3441,-2.322,-2.1308,-2.0566,-2.0566,-2.0566,-2.0566,-2.0566,-2.0566,-2.0566,-2.0566,-2.0566,-2.0566,-2.0566,-2.0566,-2.0566,-2.0489,-2.0489,-1.9678,-1.8638,-1.7521,-1.646,-1.5409,-1.4375,-1.4135,-1.4135,-1.4135,-1.4122,-1.4108,-1.4088,-1.4088,-1.4088,-1.4088,-1.4088,-1.4088,-1.4088,-1.4088,-1.4088,-1.4088,-1.4088,-1.4088,-1.3997,-1.3997,-1.347,-1.2328,-1.2242,-1.1724,-1.0524,-1.0524,-1.0524,-1.0438,-1.0438,-0.9923,-0.8803,-0.8803,-0.8278,-0.7363,-0.7522,-0.8328,-1.0488,-1.1444,-1.2683,-1.3484,-1.416,-1.4944,-1.6439,-1.7012,-1.7278,-1.7377,-1.7216,-1.722,-1.7666,-1.7664,-1.8762,-2.216,-2.2171,-2.2571,-2.4882,-2.5104,-2.5543,-2.7046,-2.7697,-2.8582,-3.0108,-3.0582,-3.0178,-2.8712,-2.9953,-3.0791,-3.0791,-3.0791,-3.1016,-3.1452,-3.1278,-3.1029,-3.0584,-2.8876,-2.7604,-2.6782,-2.6589,-2.6533,-2.6533,-2.6533,-2.6294,-2.5862,-2.6345,-2.6294,-2.5862,-2.6289,-2.6094,-2.5288,-2.3963,-2.3073,-2.2253,-2.1011,-2.0566,-2.0566,-2.0566,-2.0566,-2.0566,-2.0566,-2.0566,-2.0566,-2.0566,-2.0566,-2.0566,-2.0566,-2.0001,-1.9441,-1.9441,-1.855,-1.7481,-1.6583,-1.6231,-1.5796,-1.4946,-1.4743,-1.4743,-1.4743,-1.4563,-1.4342,-1.4122,-1.4088,-1.4088,-1.4088,-1.4088,-1.4088,-1.4088,-1.4088,-1.4088,-1.4088,-1.4088,-1.373,-1.2851,-1.2766,-1.2248,-1.1123,-1.1037,-1.0524,-0.941,-0.9323,-0.8886,-0.8009,-0.8009,-0.7837,-0.7577,-0.7577,-0.7425,-0.7207,-0.7475,-0.7806,-1.1096,-1.1677,-1.2519,-1.3455,-1.3673,-1.4086,-1.565,-1.6044,-1.6026,-1.6133,-1.6274,-1.6374,-1.6442,-1.6765,-1.8025,-2.1094,-2.1481,-2.2211,-2.4528,-2.4718,-2.5423,-2.7483,-2.7948,-2.9015,-3.1287,-3.1482,-3.1076,-2.9968,-3.0103,-3.0253,-3.0253,-3.0253,-3.0642,-3.1452,-3.1161,-3.0389,-2.9192,-2.8556,-2.767,-2.6533,-2.6533,-2.6533,-2.6533,-2.6533,-2.6131,-2.541,0.0,-2.605,-2.5435,-2.5728,-2.5523,-2.4862,-2.3441,-2.2478,-2.1886,-2.0934,-2.0566,-2.0566,-2.0566,-2.0566,-2.0566,-2.0566,-2.0566,-2.0566,-2.0566,-2.0245,-1.9923,-1.9923,-1.9116,-1.8264,-1.8438,-1.7655,-1.6659,-1.6402,-1.598,-1.5521,-1.5102,-1.4963,-1.4963,-1.4963,-1.483,-1.4623,-1.4329,-1.4282,-1.4235,-1.4108,-1.4088,-1.3906,-1.3379,-1.3294,-1.3294,-1.3294,-1.2863,-1.2254,-1.1643,-1.1552,-1.1037,-0.9923,-0.9836,-0.9318,-0.8189,-0.8105,-0.7753,-0.7139,-0.7139,-0.7139,-0.7139,-0.7139,-0.7139,-0.7146,-0.7458,-0.76,-1.2281,-1.2531,-1.2879,-1.3528,-1.381,-1.4151,-1.523,-1.5393,-1.535,-1.5517,-1.649,-1.7013,-1.6322,-1.7599,-1.9246,-2.057,-2.163,-2.284,-2.4261,-2.5503,-2.6691,-2.7794,-2.8316,-2.937,-3.1287,-3.1243,-3.1198,-3.1452,-2.9953,-2.8981,-2.8981,-2.8981,-2.9774,-3.1422,-3.0718,-2.9504,-2.7855,-2.8492,-2.8051,-2.6533,-2.6533,-2.6533,-2.6533,-2.6533,-2.5686,-2.4406,-2.5837,0.0,-2.4367,-2.4941,-2.5004,-2.4636,-2.285,-2.2038,-2.1735,-2.0934,-2.0566,-2.0566,-2.0566,-2.0566,-2.0566,-2.0566,-2.0566,-2.0566,-2.0566,-1.9835,-1.9036,-1.9036,-1.8103,-1.7237,-1.7462,-1.673,-1.608,-1.6316,-1.5714,-1.503,-1.507,-1.5077,-1.507,-1.503,-1.5023,-1.4923,-1.4629,-1.4583,-1.4482,-1.4188,-1.4057,-1.3515,-1.2419,-1.2328,-1.2242,-1.2066,-1.1214,-1.0524,-1.0351,-1.0351,-0.9923,-0.8715,-0.8627,-0.8193,-0.7139,-0.7139,-0.7139,-0.7139,-0.7139,-0.7139,-0.7139,-0.7139,-0.7139,-0.7146,-0.7458,-0.76,-1.3126,-1.3747,-1.4522,-1.3882,-1.4314,-1.5201,-1.618,-1.5788,-1.5477,-1.6103,-1.5842,-1.5823,-1.686,-1.735,-1.84,-2.094,-2.1927,-2.2287,-2.2055,-2.5406,-2.742,-2.6219,-2.7548,-2.937,-3.1287,-3.0073,-2.9789,-3.1362,-3.1168,-3.0974,-3.0974,-3.0974,-3.1123,-3.1467,-3.0718,-2.9827,-2.8812,-2.8247,-2.7484,-2.6533,-2.6533,-2.6533,-2.6533,-2.6533,-2.637,-2.605,-2.6395,0.0,-2.605,-2.6189,-2.5288,-2.3745,-2.3368,-2.2264,-2.0779,-2.0644,-2.0566,-2.0566,-2.0566,-2.0566,-2.0566,-2.0566,-2.0566,-2.0566,-2.0566,-1.9835,-1.9036,-1.9036,-1.7704,-1.6361,-1.6422,-1.5799,-1.5218,-1.5511,-1.5501,-1.5384,-1.5625,-1.5678,-1.5611,-1.5364,-1.5317,-1.5231,-1.4937,-1.4883,-1.4783,-1.4489,-1.3635,-1.2835,-1.2351,-1.2328,-1.1901,-1.1037,-1.0697,-1.0178,-0.9235,-0.9235,-0.8711,-0.7489,-0.7404,-0.7316,-0.7139,-0.7139,-0.7139,-0.7139,-0.7139,-0.7139,-0.7139,-0.7139,-0.7139,-0.7146,-0.7458,-0.76,-1.3751,-1.4275,-1.5234,-1.5226,-1.5234,-1.5314,-1.5854,-1.5304,-1.4722,-1.4971,-1.4956,-1.5222,-1.6209,-1.6454,-1.7497,-2.0736,-2.1744,-2.2609,-2.3865,-2.6218,-2.7781,-2.7667,-2.8233,-2.8981,-2.9909,-2.916,-2.8996,-2.9939,-3.0013,-3.0447,-3.1422,-3.1482,-3.1482,-3.1482,-3.1146,-3.0329,-2.9002,-2.862,-2.7736,-2.6533,-2.6533,-2.6533,-2.6533,-2.6533,-2.6533,-2.6533,-2.6533,0.0,-2.4748,-2.4869,-2.3638,-2.1745,-2.1903,-2.1451,-2.0566,-2.0566,-2.0566,-2.0566,-2.0566,-2.0566,-2.0566,-2.0566,-2.0566,-2.0566,-2.0566,-1.9432,-1.8149,-1.8149,-1.6771,-1.5303,-1.5465,-1.5404,-1.5264,-1.5551,-1.5618,-1.5658,-1.5798,-1.5832,-1.5792,-1.5651,-1.5618,-1.5531,-1.5237,-1.519,-1.4903,-1.3875,-1.3284,-1.2377,-1.0803,-1.0597,-1.0387,-0.9763,-0.9139,-0.8532,-0.8013,-0.7929,-0.7753,-0.7139,-0.7139,-0.7139,-0.7139,-0.7139,-0.7139,-0.7139,-0.7139,-0.7139,-0.7139,-0.7139,-0.718,-0.7265,-0.7495,-0.7638,-1.4698,-1.5146,-1.5939,-1.6498,-1.6219,-1.5797,-1.5731,-1.5056,-1.4487,-1.4299,-1.4611,-1.5176,-1.5987,-1.6182,-1.7295,-2.0588,-2.1399,-2.2669,-2.5669,-2.6698,-2.7735,-2.9395,-2.9154,-2.9003,-2.9441,-2.9094,-2.8914,-2.919,-2.9235,-2.9909,-3.1392,-3.1482,-3.1482,-3.1482,-3.1351,-3.0524,-2.9002,-2.8812,-2.7986,-2.6533,-2.6533,-2.6533,-2.6533,-2.6533,-2.6533,-2.6465,-2.6245,0.0,0.0,-2.3406,-2.2155,-2.0128,-2.0717,-2.0789,-2.0566,-2.0566,-2.0566,-2.0566,-2.0566,-2.0566,-2.0566,-2.0566,-2.0566,-2.0566,-2.0323,-1.8868,-1.7253,-1.7009,-1.5834,-1.4669,-1.4903,-1.5224,-1.5545,-1.5772,-1.5832,-1.5832,-1.5832,-1.5832,-1.5832,-1.5832,-1.5832,-1.5758,-1.5531,-1.5299,-1.4625,-1.3324,-1.2637,-1.1538,-0.9418,-0.8943,-0.8713,-0.8674,-0.7709,-0.7139,-0.7139,-0.7139,-0.7139,-0.7139,-0.7139,-0.7139,-0.7139,-0.7139,-0.7139,-0.7139,-0.7139,-0.7139,-0.7139,-0.7139,-0.7221,-0.7373,-0.7529,-0.7675,-1.6356,-1.7014,-1.7579,-1.6784,-1.7148,-1.7552,-1.6763,-1.6347,-1.6098,-1.5847,-1.5646,-1.6032,-1.7654,-1.7894,-1.8645,-2.1219,-2.1125,-2.1642,-2.4385,-2.5878,-2.7399,-2.9357,-2.9549,-3.0247,-3.2083,-3.0567,-2.9986,-3.112,-3.1198,-3.1287,-3.1467,-3.1482,-3.1482,-3.1482,-3.0777,-2.995,-2.9002,-2.8247,-2.7351,-2.6533,-2.6533,-2.6533,-2.6533,-2.6533,-2.6533,-2.6465,-2.5511,0.0,0.0,-2.3406,-2.2155,-2.0197,-2.1429,-2.1375,-2.0566,-2.0566,-2.0566,-2.0566,-2.0566,-2.0566,-2.0566,-2.0566,-2.0566,-2.0401,-1.9441,-1.831,-1.709,-1.6108,-1.5405,-1.493,-1.4957,-1.5378,-1.5798,-1.5818,-1.5832,-1.5832,-1.5832,-1.5832,-1.5832,-1.5832,-1.5832,-1.5818,-1.5792,-1.481,-1.385,-1.3397,-1.1477,-0.9905,-0.9343,-0.8404,-0.7757,-0.7743,-0.7305,-0.7139,-0.7139,-0.7139,-0.7139,-0.7139,-0.7139,-0.7139,-0.7139,-0.7139,-0.7139,-0.7139,-0.7139,-0.7139,-0.7139,-0.7139,-0.7221,-0.7373,-0.7529,-0.7675,-1.6153,-1.6937,-1.794,-1.7579,-1.8114,-1.841,-1.686,-1.6812,-1.6873,-1.5932,-1.5692,-1.5897,-1.6965,-1.6786,-1.7435,0.0,0.0,-2.1865,-2.6352,-2.7823,-2.9299,-3.1729,-3.1985,-3.1876,-3.1433,-3.0315,-2.9658,-2.9753,-2.9774,-3.0283,-3.1422,-3.1482,-3.1482,-3.1482,-3.0718,-2.9889,-2.9002,-2.8117,-2.7284,-2.6533,-2.6533,-2.6533,-2.6533,-2.6533,-2.6533,-2.6465,-2.6094,0.0,0.0,-2.282,-2.1371,-1.8273,-2.033,-2.0934,-2.0566,-2.0566,-2.0566,-2.0566,-2.0566,-2.0566,-2.0479,-1.9844,-1.9599,-1.952,-1.9125,-1.7738,-1.6273,-1.5779,-1.5205,-1.4736,-1.4917,-1.5391,-1.5832,-1.5832,-1.5832,-1.5832,-1.5832,-1.5832,-1.5832,-1.5832,-1.5832,-1.5534,-1.4758,-1.4262,-1.3358,-1.1626,-1.0559,-0.953,-0.8497,-0.8009,-0.7695,-0.7607,-0.7407,-0.7278,-0.7278,-0.7193,-0.7139,-0.7139,-0.7139,-0.7139,-0.7139,-0.7139,-0.7139,-0.7139,-0.7139,-0.7139,-0.7139,-0.7234,-0.736,-0.7512,-0.7658,-0.7804,-1.6632,-1.7604,-1.8721,-1.8462,-1.8771,-1.8659,-1.68,-1.6928,-1.7037,-1.5865,-1.5732,-1.6039,-1.6625,-1.6323,-1.6937,0.0,0.0,-2.2526,-2.7302,-2.8701,-3.0227,-3.2917,-3.3224,-3.2837,-3.188,-3.1019,-3.0176,-2.9514,-2.9475,-3.0073,-3.1407,-3.1482,-3.1482,-3.1482,-3.0718,-2.9889,-2.9002,-2.8007,-2.7037,-2.6201,-2.605,-2.5711,-2.5247,-2.5749,-2.5699,-2.5259,-2.5468,0.0,0.0,-2.184,-2.0466,-1.7324,-1.9521,-2.0449,-2.0566,-2.0566,-2.0566,-2.0566,-2.0566,-2.0566,-2.0479,-1.9678,-1.9036,-1.8479,-1.8479,-1.7172,-1.5613,-1.5296,-1.4935,-1.4716,-1.5017,-1.5458,-1.5832,-1.5832,-1.5832,-1.5832,-1.5832,-1.5832,-1.5832,-1.5832,-1.5534,-1.4949,-1.407,-1.3295,-1.2129,-1.0288,-0.9706,-0.9072,-0.7986,-0.7879,-0.7841,-0.774,-0.7594,-0.7485,-0.7441,-0.7339,-0.7275,-0.7275,-0.7275,-0.7275,-0.7275,-0.7275,-0.7275,-0.7275,-0.7275,-0.7275,-0.7275,-0.7387,-0.7516,-0.7665,-0.7767,-0.7892,-1.8644,-1.9694,-2.0398,-1.9497,-1.9102,-1.8441,-1.6759,-1.6629,-1.6643,-1.5757,-1.6051,-1.6625,-1.7188,-1.7181,-1.7918,-2.0464,0.0,0.0,-2.605,-2.7545,-2.9387,-3.2101,-3.2409,-3.2981,-3.4411,-3.336,-3.2241,-3.1495,-3.1437,0.0,-3.1482,-3.1482,-3.1482,-3.1482,-3.0718,-2.9889,-2.9002,-2.7605,-2.6492,-2.5598,-2.5084,-2.3966,-2.241,-2.4079,-2.3929,-2.2389,0.0,0.0,0.0,-2.0507,-1.9594,-1.8125,-1.9414,-2.0185,-2.0566,-2.0566,-2.0566,-2.0566,-2.0566,-2.0566,-2.0566,-2.0566,-1.9107,-1.7334,-1.7334,-1.6601,-1.5455,-1.4412,-1.4509,-1.5023,-1.5317,-1.5611,-1.5832,-1.5832,-1.5832,-1.5832,-1.5832,-1.5832,-1.5832,-1.5832,-1.4752,-1.3878,-1.3878,-1.1745,-0.9998,-0.9998,-0.8821,-0.8038,-0.8038,-0.8038,-0.8035,-0.8035,-0.7896,-0.775,-0.7607,-0.7597,-0.7594,-0.7594,-0.7594,-0.7594,-0.7594,-0.7594,-0.7594,-0.7594,-0.7594,-0.7594,-0.7594,-0.7597,-0.7672,-0.7811,-0.7811,-0.7892,-1.6953,-1.759,-1.8272,-1.798,-1.8328,-1.8343,-1.7029,-1.727,-1.7491,-1.6416,-1.6655,-1.7118,-1.7271,-1.7862,-1.9181,-2.1834,-2.2894,0.0,-2.9377,-3.0385,-3.1616,-3.427,-3.4583,-3.4413,-3.3939,-3.227,-3.1295,-3.1477,-3.0283,-2.9909,-3.0791,-3.0836,-3.0836,-3.0836,-2.9547,-2.8493,-2.7773,-2.6251,-2.5318,-2.5059,-2.4895,-2.3941,-2.2372,-2.4054,-2.3904,0.0,0.0,0.0,0.0,-2.0565,-1.9489,-1.7715,-1.8984,-1.9746,-2.0117,-2.0117,-2.0312,-2.0566,-2.0566,-2.0566,-2.0323,-1.8868,-1.79,-1.7017,-1.5553,-1.4901,-1.4573,-1.4166,-1.4362,-1.473,-1.5023,-1.5317,-1.5585,-1.5785,-1.5832,-1.5832,-1.5832,-1.5832,-1.5534,-1.4657,-1.4166,-1.3295,-1.1551,-1.0583,-0.9706,-0.8726,-0.8233,-0.8038,-0.8038,-0.8038,-0.8038,-0.8038,-0.7994,-0.7906,-0.7756,-0.7655,-0.76,-0.76,-0.76,-0.76,-0.76,-0.76,-0.76,-0.76,-0.76,-0.76,-0.76,-0.7695,-0.7821,-0.7967,-0.7967,-0.7936,-1.6818,-1.7508,-1.8167,-1.7841,-1.8113,-1.8193,-1.7138,-1.723,-1.7408,-1.6905,-1.7457,-1.8118,-1.8262,-1.9244,-2.0621,-2.2415,-2.4312,-2.6623,-2.9591,-3.0883,-3.2144,-3.3736,-3.4438,-3.4559,-3.4038,-3.2627,-3.176,-3.1916,-3.0313,-2.9669,-3.0462,-3.0283,-3.0043,-2.9789,-2.8771,-2.7879,-2.7207,-2.5673,-2.4747,-2.4506,-2.4293,-2.3301,-2.1744,-2.3427,-2.3276,0.0,0.0,0.0,0.0,-2.0264,-1.9295,-1.7939,-1.873,-1.9307,-1.9697,-1.9853,-2.0088,-2.0342,-2.0508,-2.0323,-1.9756,-1.839,-1.7415,-1.6363,-1.4657,-1.4088,-1.4088,-1.4088,-1.4295,-1.4589,-1.4883,-1.5177,-1.5471,-1.5758,-1.5832,-1.5832,-1.5832,-1.5832,-1.5439,-1.4166,-1.3488,-1.2522,-1.0386,-0.9608,-0.892,-0.8137,-0.8038,-0.8038,-0.8038,-0.8038,-0.8038,-0.8038,-0.8038,-0.8001,-0.7906,-0.7818,-0.7767,-0.7767,-0.7767,-0.7767,-0.7767,-0.7767,-0.7767,-0.7767,-0.7767,-0.7767,-0.7767,-0.7797,-0.7831,-0.7875,-0.7875,-0.7824,0.0,-1.8855,-1.9407,-1.8618,-1.8301,-1.7925,-1.711,-1.6773,0.0,-1.7429,-1.8585,-1.9584,-1.9955,-2.1251,-2.233,-2.2585,-2.6078,-2.8444,-2.759,-2.971,-3.1292,-3.114,-3.256,-3.3799,-3.4341,-3.394,-3.336,-3.2579,-3.1338,-3.0518,-3.0372,-2.9819,-2.9205,-2.8547,-2.8298,-2.784,-2.7069,-2.5648,-2.4563,-2.3753,-2.3339,-2.2196,-2.0605,-2.2322,-2.2234,0.0,0.0,0.0,0.0,-1.9562,-1.8965,-1.8594,-1.8594,-1.8857,-1.9287,-1.9678,-1.9844,-1.9932,-2.0284,-1.9797,-1.8921,-1.8789,-1.7326,-1.5379,-1.4412,-1.4088,-1.4088,-1.4088,-1.4282,-1.4556,-1.4856,-1.515,-1.5438,-1.5732,-1.5812,-1.5832,-1.5832,-1.5832,-1.5439,-1.3974,-1.2716,-1.1458,-1.0096,-0.8821,-0.8038,-0.8038,-0.8038,-0.8038,-0.8038,-0.8038,-0.8038,-0.8038,-0.8038,-0.8038,-0.8038,-0.8038,-0.8038,-0.8038,-0.8038,-0.8038,-0.8038,-0.8038,-0.8038,-0.8038,-0.8028,-0.8024,-0.8024,-0.7872,-0.7729,-0.76,-0.76,-0.7594,-1.7444,0.0,-1.7242,-1.7049,-1.7251,-1.7479,0.0,-1.7483,-1.8221,-1.9871,-2.0793,-2.1312,-2.1426,-2.3672,-2.5334,-2.4766,-2.724,-2.9491,-3.0157,-3.1793,-3.2256,-3.0565,-3.3169,-3.4275,-3.2253,-3.3463,-3.3661,-3.1949,-3.1512,-3.0655,-2.9154,-2.8906,-2.8517,-2.7844,-2.7258,-2.6562,-2.5826,-2.4308,-2.2862,-2.1468,-2.2598,-2.1606,-1.8882,-2.1807,-2.2234,0.0,0.0,0.0,-2.0462,-1.8911,-1.8261,-1.8154,-1.8154,-1.8418,-1.8799,-1.8896,-1.915,-1.9418,-1.8984,-1.8661,-1.8231,-1.6912,-1.5545,-1.4412,-1.4166,-1.4088,-1.4088,-1.4088,-1.4135,-1.4255,-1.4549,-1.4843,-1.5137,-1.5431,-1.5665,-1.5832,-1.5832,-1.5832,-1.5146,-1.2818,-1.2139,-1.1165,-0.8821,-0.8237,-0.8038,-0.8038,-0.8038,-0.8038,-0.8038,-0.8038,-0.8038,-0.8038,-0.8038,-0.8038,-0.8038,-0.8038,-0.8038,-0.8038,-0.8038,-0.8038,-0.8038,-0.8038,-0.8038,-0.8038,-0.7926,-0.7865,-0.7865,-0.7719,-0.7631,-0.76,-0.76,-0.7536,-1.7666,-1.7271,-1.6995,-1.7609,-1.7721,-1.7923,-1.8832,-1.8796,-1.9196,-2.148,-2.2146,-2.2513,-2.304,-2.4747,-2.6103,-2.631,-2.7753,-2.9411,-3.0971,-3.1596,-3.1444,-3.0243,-3.1867,-3.274,0.0,-3.3164,-3.3535,-3.2136,-3.1181,-3.0032,-2.8689,-2.8308,-2.7949,-2.7625,-2.6549,-2.5783,-2.5398,-2.4221,-2.2643,-2.0743,-2.2347,-2.1807,-1.9422,-2.197,-2.2648,0.0,0.0,0.0,-2.0406,-1.8114,-1.7471,-1.8008,-1.8008,-1.8144,-1.8379,-1.8494,-1.8495,-1.8309,-1.8181,-1.7586,-1.6689,-1.5359,-1.4573,-1.4088,-1.4088,-1.4088,-1.4088,-1.4088,-1.4088,-1.4155,-1.4442,-1.4743,-1.5037,-1.5331,-1.5618,-1.5832,-1.5832,-1.5832,-1.5051,-1.2431,-1.1945,-1.1068,-0.8428,-0.8038,-0.8038,-0.8038,-0.8038,-0.8038,-0.8038,-0.8038,-0.8038,-0.8038,-0.8038,-0.8038,-0.8038,-0.8038,-0.8038,-0.8038,-0.8038,-0.8038,-0.8038,-0.8038,-0.8038,-0.8038,-0.7889,-0.778,-0.7712,-0.7567,-0.7458,-0.739,-0.739,-0.7343,-1.8224,-1.7907,-1.7839,-1.9131,-1.8877,-1.8862,-2.0807,-2.0316,-2.0231,-2.2934,-2.3462,-2.3789,-2.473,-2.5757,-2.6642,-2.7176,-2.8059,-2.9265,-3.0965,-3.0869,-3.0497,-3.0142,-3.0615,-3.1219,-3.1938,-3.2946,-3.3141,-3.2238,-3.0503,-2.9204,-2.8494,-2.7889,-2.7625,-2.7625,-2.6162,-2.5398,-2.5398,-2.4567,-2.2972,-2.0743,-2.2347,-2.2272,-2.0769,-2.2385,-2.3005,-2.2749,0.0,0.0,-2.0169,-1.748,-1.7012,-1.8008,-1.8008,-1.8008,-1.8057,-1.8408,-1.8033,-1.7378,-1.7539,-1.6484,-1.4955,-1.4316,-1.4088,-1.4088,-1.4088,-1.4088,-1.4088,-1.4088,-1.4088,-1.4142,-1.4389,-1.471,-1.5023,-1.5271,-1.5585,-1.5832,-1.5832,-1.5832,-1.5051,-1.2431,-1.1945,-1.1068,-0.8428,-0.8038,-0.8038,-0.8038,-0.8038,-0.8038,-0.8038,-0.8038,-0.8038,-0.8038,-0.8038,-0.8038,-0.8038,-0.8038,-0.8038,-0.8038,-0.8038,-0.8038,-0.8038,-0.8038,-0.8028,-0.8004,-0.7855,-0.7709,-0.7563,-0.7411,-0.7268,-0.7139,-0.7139,-0.7139,-1.8779,-1.8727,-1.8885,-1.9767,-1.9809,-2.0007,-2.1456,-2.1547,-2.2191,-2.5401,-2.6027,-2.6072,-2.6273,-2.9149,-3.0386,-2.708,-2.892,-3.0842,-3.1157,-3.2188,-3.2205,-3.0328,-3.2865,-3.3674,-3.0858,-3.2408,-3.2606,-3.0237,-2.9759,-2.9073,-2.7805,-2.7685,-2.7625,-2.7625,-2.6162,-2.5398,-2.5398,-2.3989,-2.2412,-2.0743,-2.2347,-2.2272,-2.0769,-2.2385,-2.2763,-2.199,0.0,-1.9995,-1.942,-1.8175,-1.7822,-1.8008,-1.8008,-1.8008,-1.8018,-1.8086,-1.8037,-1.7719,-1.6676,-1.524,-1.3926,-1.4072,-1.4088,-1.4088,-1.4088,-1.4088,-1.4088,-1.4088,-1.4088,-1.4095,-1.4142,-1.4556,-1.4977,-1.5017,-1.5438,-1.5832,-1.5832,-1.5832,-1.5051,-1.2431,-1.1945,-1.1068,-0.8428,-0.8038,-0.8038,-0.8038,-0.8038,-0.8038,-0.8038,-0.8038,-0.8038,-0.8038,-0.8038,-0.8038,-0.8038,-0.8038,-0.8038,-0.8038,-0.8038,-0.8038,-0.8038,-0.8038,-0.7977,-0.7848,-0.7706,-0.7556,-0.7407,-0.7251,-0.7163,-0.7139,-0.7139,-0.7139,-1.9332,-1.9597,-2.0308,-2.2091,-2.1418,-2.123,-2.4737,-2.3837,-2.337,-2.738,-2.6708,-2.5834,-2.7311,-2.9014,-2.998,-2.9138,-3.159,-3.3305,-3.251,-3.2628,-3.2425,-3.141,0.0,-3.2454,-3.0467,-3.1589,-3.1632,-2.973,-2.9211,-2.8593,-2.764,-2.7625,-2.7408,-2.7034,-2.5946,-2.5231,-2.4794,-2.3649,-2.2297,-2.0743,-2.2347,-2.2272,-2.0769,-2.2385,-2.2628,-2.183,0.0,-1.9467,-1.918,-1.7626,-1.7373,-1.8008,-1.8008,-1.8008,-1.794,-1.7432,-1.7207,-1.7014,-1.5544,-1.4672,-1.4076,-1.3912,-1.3955,-1.4088,-1.4088,-1.4088,-1.4088,-1.4088,-1.4088,-1.4088,-1.4088,-1.4402,-1.4763,-1.493,-1.5291,-1.5638,-1.5798,-1.5832,-1.5242,-1.3397,-1.2431,-1.1268,-0.941,-0.8432,-0.8038,-0.8038,-0.8038,-0.8038,-0.8038,-0.8038,-0.8038,-0.8038,-0.8038,-0.8038,-0.8038,-0.8038,-0.8038,-0.8038,-0.8038,-0.8038,-0.8038,-0.796,-0.7882,-0.7814,-0.759,-0.7441,-0.737,-0.7217,-0.7139,-0.7139,-0.7139,-0.7139,-1.969,-2.0183,-2.1306,-2.3774,-2.2772,-2.2473,-2.747,-2.5644,-2.4163,-2.8652,-2.7213,-2.5918,-2.8431,-2.8822,-2.9364,-3.1381,-3.3609,-3.4827,-3.4032,-3.3423,-3.3,-3.2814,-3.2307,-3.1556,-3.0445,-3.0844,-3.0642,-2.9237,-2.8611,-2.8091,-2.7625,-2.7625,-2.7255,-2.651,-2.5783,-2.5063,-2.4292,-2.3484,-2.2498,-2.1255,-2.2523,-2.2472,-2.1292,-2.2371,-2.2384,-2.1495,-1.961,-1.8851,-1.8895,-1.7243,-1.7109,-1.8008,-1.8008,-1.8008,-1.794,-1.7217,-1.6784,-1.6403,-1.499,-1.4547,-1.437,-1.3837,-1.3801,-1.3995,-1.4068,-1.4088,-1.4088,-1.4088,-1.4088,-1.4088,-1.4088,-1.4302,-1.4576,-1.4803,-1.5137,-1.5458,-1.5678,-1.5785,-1.5439,-1.4166,-1.3102,-1.1848,-1.0293,-0.9118,-0.8333,-0.8038,-0.8038,-0.8038,-0.8038,-0.8038,-0.8038,-0.8038,-0.8038,-0.8038,-0.8038,-0.8038,-0.8038,-0.8038,-0.8007,-0.7987,-0.7987,-0.7841,-0.7743,-0.7709,-0.7485,-0.7353,-0.7316,-0.72,-0.7139,-0.7139,-0.7139,-0.7139,-1.969,-2.0183,-2.1201,-2.3176,-2.3101,-2.3595,-2.7679,-2.5974,-2.4687,-2.8742,-2.8404,-2.7996,-3.0057,-3.0312,-3.0917,-3.29,-3.3423,-3.4015,-3.5284,-3.5419,-3.5115,-3.4421,-3.4286,-3.3272,-3.0709,-3.0537,-2.9785,-2.7881,-2.769,-2.7675,-2.7625,-2.7625,-2.7255,-2.651,-2.5783,-2.5063,-2.4292,-2.3484,-2.3015,-2.2902,-2.3015,-2.3015,-2.2902,-2.2262,-2.1491,-2.0655,-1.9641,-1.8829,-1.8066,-1.791,-1.793,-1.8008,-1.8008,-1.8008,-1.8008,-1.794,-1.7354,-1.6482,-1.5786,-1.4911,-1.416,-1.3769,-1.3661,-1.3728,-1.4001,-1.4088,-1.4088,-1.4088,-1.4088,-1.4088,-1.4088,-1.4302,-1.4522,-1.4543,-1.4983,-1.5404,-1.5424,-1.5638,-1.5439,-1.4166,-1.3776,-1.3006,-1.0386,-0.9899,-0.941,-0.8237,-0.8038,-0.8038,-0.8038,-0.8038,-0.8038,-0.8038,-0.8038,-0.8038,-0.8038,-0.8038,-0.8038,-0.8038,-0.7906,-0.7828,-0.7828,-0.7692,-0.755,-0.7407,-0.7383,-0.7299,-0.7156,-0.7146,-0.7139,-0.7139,-0.7139,-0.7139,-2.0213,-2.0812,-2.1994,-2.4762,-2.4343,-2.4298,-2.8293,-2.6946,-2.5974,-2.9968,-2.8707,-2.718,-2.8222,-3.0533,-3.2353,-3.2679,-3.388,-3.4979,-3.5537,-3.5216,-3.481,-3.4523,-3.3342,-3.2045,-3.0617,-2.9768,-2.8823,-2.769,-2.7625,-2.7625,-2.7625,-2.7152,-2.6549,-2.5837,-2.5119,-2.4337,-2.3543,-2.3245,-2.3078,-2.3078,-2.3078,-2.3078,-2.3078,-2.2763,-2.1928,-2.059,-2.0268,-1.9309,-1.8008,-1.8008,-1.8008,-1.8008,-1.8008,-1.8008,-1.8008,-1.8008,-1.7794,-1.7235,-1.582,-1.5219,-1.4899,-1.3701,-1.3494,-1.3701,-1.4001,-1.4088,-1.4088,-1.4088,-1.4088,-1.4088,-1.4088,-1.4168,-1.4295,-1.4476,-1.4689,-1.495,-1.5317,-1.5484,-1.5424,-1.5114,-1.4459,-1.3584,-1.2619,-1.1068,-0.9801,-0.9312,-0.8531,-0.8038,-0.8038,-0.8038,-0.8038,-0.8038,-0.8038,-0.8038,-0.8038,-0.8038,-0.7997,-0.7902,-0.7841,-0.7811,-0.7811,-0.7584,-0.7431,-0.7373,-0.7278,-0.72,-0.7139,-0.7139,-0.7139,-0.7139,-0.7139,-0.7139,-2.0902,-2.15,-2.2637,-2.5315,-2.4777,-2.4642,-2.8667,-2.753,-2.6617,-3.0193,-2.9705,-2.8602,-2.8475,-3.1158,-3.3237,-3.2713,-3.3931,-3.4996,-3.5233,-3.4661,-3.4024,-3.3554,-3.2089,-3.0807,-2.9941,-2.9045,-2.8238,-2.7675,-2.7625,-2.7625,-2.7625,-2.6878,-2.6176,-2.5398,-2.4681,-2.3884,-2.3138,-2.3078,-2.3078,-2.3078,-2.3078,-2.3078,-2.3078,-2.2823,-2.1928,-2.059,-2.0333,-1.9365,-1.8008,-1.8008,-1.8008,-1.8008,-1.8008,-1.8008,-1.8008,-1.8008,-1.8008,-1.7725,-1.5877,-1.532,-1.5219,-1.3565,-1.3267,-1.3561,-1.3861,-1.4015,-1.4088,-1.4088,-1.4088,-1.4088,-1.4088,-1.4088,-1.4135,-1.4335,-1.4456,-1.4629,-1.503,-1.519,-1.5317,-1.5518,-1.4884,-1.4115,-1.3726,-1.1879,-1.029,-0.9909,-0.8791,-0.8038,-0.8038,-0.8038,-0.8038,-0.8038,-0.8038,-0.8038,-0.8038,-0.7994,-0.7923,-0.7818,-0.7723,-0.7672,-0.7672,-0.7431,-0.7299,-0.7299,-0.7193,-0.7139,-0.7139,-0.7139,-0.7139,-0.7139,-0.7139,-0.7139,-2.1724,-2.2188,-2.2996,-2.4313,-2.4118,-2.4657,-2.8637,-2.7515,-2.6378,-2.9041,-3.1716,-3.3134,-3.1629,-3.2496,-3.3364,-3.3347,-3.3406,-3.366,-3.437,-3.3979,-3.3036,-3.1572,-3.0843,-2.9973,-2.8621,-2.8511,-2.8222,-2.761,-2.7625,-2.7625,-2.7575,-2.6878,-2.6176,-2.5398,-2.4681,-2.3884,-2.3138,-2.3078,-2.3078,-2.3078,-2.3078,-2.3078,-2.3078,-2.2261,-2.1428,-2.0526,-1.9683,-1.8787,-1.8008,-1.8008,-1.8008,-1.8008,-1.8008,-1.8008,-1.8008,-1.8008,-1.8008,-1.7725,-1.5869,-1.5234,-1.4935,-1.3311,-1.2953,-1.326,-1.3554,-1.3848,-1.4082,-1.4088,-1.4088,-1.4088,-1.4088,-1.4088,-1.4088,-1.4088,-1.4309,-1.4516,-1.4522,-1.475,-1.4963,-1.4963,-1.4963,-1.4591,-1.329,-1.2194,-1.1029,-0.9714,-0.8619,-0.8038,-0.8038,-0.8038,-0.8038,-0.8038,-0.8038,-0.8038,-0.8038,-0.7899,-0.7811,-0.7811,-0.7533,-0.737,-0.737,-0.7221,-0.7139,-0.7139,-0.7139,-0.7139,-0.7139,-0.7139,-0.7139,-0.7139,-0.7139,-0.7139,-2.3385,-2.3236,-2.3101,-2.4881,-2.5166,-2.533,-2.6512,-2.6886,-2.7485,-2.922,-3.0606,-3.0845,-2.8841,-3.1246,-3.2868,-3.0868,-3.2175,-3.3247,-3.2567,-3.2212,-3.1736,-3.0891,-2.9767,-2.8967,-2.8542,-2.814,-2.781,-2.761,-2.7625,-2.7357,-2.6878,-2.6122,-2.5398,-2.4624,-2.3884,-2.3365,-2.3078,-2.3078,-2.3078,-2.3078,-2.3078,-2.2823,-2.2261,-2.2002,-2.1101,-1.9683,-1.9431,-1.8787,-1.8008,-1.8008,-1.8008,-1.8008,-1.8008,-1.8008,-1.8008,-1.8008,-1.8008,-1.7794,-1.6645,-1.572,-1.5007,-1.4059,-1.3411,-1.2979,-1.3487,-1.3707,-1.3814,-1.4028,-1.4088,-1.4088,-1.4088,-1.4088,-1.4088,-1.4088,-1.4155,-1.4269,-1.4476,-1.4589,-1.471,-1.4923,-1.4963,-1.4867,-1.4495,-1.2717,-1.1194,-1.0822,-0.9112,-0.7919,-0.8024,-0.8038,-0.8038,-0.8038,-0.8038,-0.8038,-0.8038,-0.7899,-0.777,-0.7668,-0.7478,-0.737,-0.737,-0.7221,-0.7139,-0.7139,-0.7139,-0.7139,-0.7139,-0.7139,-0.7139,-0.7139,-0.7139,-0.7139,-2.4702,-2.4448,-2.4388,-2.6632,-2.6393,-2.5749,-2.6273,-2.7006,-2.8098,-2.9968,-3.0899,-3.0959,-2.962,-3.1439,-3.2622,-3.0895,-3.1819,-3.2349,-3.1308,-3.0889,-3.041,-2.9768,-2.8792,-2.814,-2.814,-2.781,-2.7625,-2.7625,-2.7306,-2.6982,-2.651,-2.5508,-2.4738,-2.4292,-2.3543,-2.3078,-2.3078,-2.3078,-2.3078,-2.3078,-2.3078,-2.2702,-2.1877,-2.1877,-2.0974,-1.9299,-1.8911,-1.8462,-1.8008,-1.8008,-1.8008,-1.8008,-1.8008,-1.8008,-1.8008,-1.8008,-1.8008,-1.7872,-1.6922,-1.6219,-1.5551,-1.441,-1.3686,-1.3362,-1.34,-1.3554,-1.3707,-1.4001,-1.4088,-1.4088,-1.4088,-1.4088,-1.4088,-1.4088,-1.4088,-1.4135,-1.4309,-1.4349,-1.4402,-1.4583,-1.4616,-1.4616,-1.4616,-1.3076,-1.169,-1.1146,-0.9173,-0.7845,-0.7936,-0.8001,-0.8038,-0.8038,-0.8038,-0.8014,-0.7953,-0.7814,-0.7665,-0.7519,-0.7366,-0.7278,-0.7278,-0.719,-0.7139,-0.7139,-0.7139,-0.7139,-0.7139,-0.7139,-0.7139,-0.7139,-0.7139,-0.7139,-2.5749,-2.5689,-2.6198,-2.8622,-2.7395,-2.6019,-2.7575,-2.7895,-2.8472,-3.1016,-3.1972,-3.2322,-3.2384,-3.2426,-3.2344,-3.2267,-3.1773,-3.115,-3.0337,-2.9831,-2.9242,-2.8493,-2.7944,-2.7625,-2.7625,-2.7625,-2.7575,-2.7509,-2.6878,-2.6457,-2.6283,-2.5007,-2.4292,-2.4176,-2.3484,-2.3078,-2.3078,-2.3078,-2.3078,-2.3078,-2.3078,-2.2702,-2.1877,-2.1815,-2.0846,-1.911,-1.8327,-1.8008,-1.8008,-1.8008,-1.8008,-1.8008,-1.8008,-1.8008,-1.8008,-1.8008,-1.8008,-1.7862,-1.7001,-1.6636,-1.621,-1.4522,-1.402,-1.396,-1.3457,-1.3454,-1.3667,-1.3961,-1.4068,-1.4088,-1.4088,-1.4088,-1.4088,-1.4088,-1.4088,-1.4088,-1.4088,-1.4088,-1.4088,-1.4088,-1.4088,-1.4088,-1.4088,-1.3244,-1.2164,-1.0855,-0.8987,-0.7777,-0.779,-0.7913,-0.7997,-0.7997,-0.7997,-0.7943,-0.7804,-0.7662,-0.7519,-0.738,-0.7224,-0.7139,-0.7139,-0.7139,-0.7139,-0.7139,-0.7139,-0.7139,-0.7139,-0.7139,-0.7139,-0.7139,-0.7139,-0.7139,-2.6871,-2.6393,-2.5749,-2.6318,-2.6033,-2.6497,-2.9909,-2.9894,-2.9609,-3.121,-3.0814,-3.0407,-3.0835,-3.0955,-3.0624,-2.9605,-2.9743,-2.9552,-2.8381,-2.8535,-2.8488,-2.7875,-2.766,-2.7625,-2.7625,-2.7625,-2.7357,-2.6774,-2.6616,0.0,-2.4851,-2.4452,-2.4002,-2.3365,-2.3198,-2.3078,-2.3078,-2.3078,-2.3078,0.0,-2.3078,-2.2702,-2.1877,-2.1175,-1.9944,-1.8269,-1.8076,-1.8008,-1.8008,-1.8008,-1.8008,-1.8008,-1.8008,-1.8008,-1.8008,-1.8008,-1.8008,-1.794,-1.7794,-1.6724,-1.5579,-1.586,-1.4489,-1.2891,-1.3726,-1.3677,-1.3367,-1.3654,-1.3908,-1.4088,-1.4088,-1.4088,-1.4088,-1.4088,-1.4088,-1.4088,-1.4088,-1.4088,-1.4088,-1.4088,-1.4088,-1.4088,-1.4088,-1.3168,-1.1695,-0.9754,-0.8326,-0.7509,-0.7631,-0.7675,-0.7695,-0.7695,-0.7695,-0.7682,-0.7648,-0.7506,-0.7407,-0.7373,-0.7224,-0.7139,-0.7139,-0.7139,-0.7139,-0.7139,-0.7139,-0.7139,-0.7139,-0.7139,-0.7139,-0.7139,-0.7139,-0.7139,-2.6437,-2.6587,-2.6707,-2.735,-2.7979,-2.8831,-3.0268,-3.0552,-3.0612,-3.0971,-3.0492,-3.0118,-3.0447,-2.9998,-2.937,-2.8712,-2.8601,-2.8354,-2.772,-2.786,-2.7944,-2.7625,-2.7625,-2.7458,-2.71,-2.7086,-2.6759,-2.6014,0.0,-2.5119,-2.435,-2.3943,-2.3531,-2.3138,-2.3078,-2.3078,-2.3078,-2.3078,-2.3078,-2.3078,-2.3078,-2.2702,-2.1877,-2.059,-1.9497,-1.8596,-1.8202,-1.8008,-1.8008,-1.8008,-1.8008,-1.8008,-1.8008,-1.8008,-1.8008,-1.8008,-1.8008,-1.8008,-1.8008,-1.7373,-1.6585,-1.6567,-1.5288,-1.3725,-1.4067,-1.3613,-1.308,-1.352,-1.3754,-1.3908,-1.4048,-1.4088,-1.4088,-1.4088,-1.4088,-1.4088,-1.4088,-1.4088,-1.4088,-1.4088,-1.4088,-1.4088,-1.4088,-1.2687,-1.1079,-0.9972,-0.8481,-0.74,-0.7482,-0.7553,-0.76,-0.76,-0.76,-0.757,-0.7495,-0.7417,-0.7339,-0.7265,-0.7183,-0.7139,-0.7139,-0.7139,-0.7139,-0.7139,-0.7139,-0.7139,-0.7139,-0.7139,-0.7139,-0.7139,-0.7139,-0.7139,-2.5615,-2.6572,-2.794,-2.925,-3.0223,-3.0687,-3.0058,-3.0582,-3.1106,-3.0746,-3.0582,-3.0432,-3.0208,-2.931,-2.8562,-2.8442,-2.7949,-2.7625,-2.7625,-2.7625,-2.7625,-2.7625,-2.7509,-2.7152,-2.6563,-2.6404,-2.6014,-2.5287,0.0,-2.4234,-2.4118,-2.3484,-2.3078,-2.3078,-2.3078,-2.3078,-2.3078,-2.3078,-2.3078,-2.3078,-2.3078,-2.2763,-2.2063,-2.0462,-1.9552,-1.9233,-1.8405,-1.8008,-1.8008,-1.8008,-1.8008,-1.8008,-1.8008,-1.8008,-1.8008,-1.8008,-1.8008,-1.8008,-1.8008,-1.7872,-1.7647,-1.707,-1.6079,-1.5078,-1.451,-1.3751,-1.3076,-1.3347,-1.3567,-1.3701,-1.3948,-1.4048,-1.4088,-1.4088,-1.4088,-1.4088,-1.4088,-1.4088,-1.4088,-1.4088,-1.4088,-1.4088,-1.4088,-1.2339,-1.0869,-1.0611,-0.8928,-0.7601,-0.7333,-0.7444,-0.7519,-0.7519,-0.7519,-0.7468,-0.7343,-0.7333,-0.7278,-0.7149,-0.7139,-0.7139,-0.7139,-0.7139,-0.7139,-0.7139,-0.7139,-0.7139,-0.7139,-0.7139,-0.7139,-0.7139,-0.7139,-0.7139,-2.5615,-2.6572,-2.794,-2.925,-2.8831,-2.8652,-3.0791,-3.0537,-3.0133,-3.118,-3.0911,-3.0163,-2.9056,-2.8712,-2.8412,-2.7814,-2.7685,-2.7625,-2.7625,-2.7625,-2.7625,-2.7625,-2.7049,-2.6616,-2.651,-2.5906,-2.5231,0.0,-2.435,-2.4002,-2.3305,-2.3138,-2.3078,-2.3078,-2.3078,-2.3078,-2.3078,-2.3078,-2.3078,-2.3078,-2.3078,-2.3065,-2.2884,-2.2002,-2.0719,-1.9233,-1.8405,-1.8008,-1.8008,-1.8008,-1.8008,-1.8008,-1.8008,-1.8008,-1.8008,-1.8008,-1.8008,-1.8008,-1.8008,-1.7501,-1.6922,-1.7579,-1.6655,-1.5171,-1.5078,-1.4587,-1.3885,-1.3146,-1.324,-1.3654,-1.3694,-1.3895,-1.4088,-1.4088,-1.4088,-1.4088,-1.4088,-1.4088,-1.4088,-1.4088,-1.4088,-1.4088,-1.4088,-1.2942,-1.1729,-1.0783,-0.9515,-0.8312,-0.7258,-0.719,-0.72,-0.72,-0.72,-0.7193,-0.7173,-0.717,-0.7163,-0.7143,-0.7139,-0.7139,-0.7139,-0.7139,-0.7139,-0.7139,-0.7139,-0.7139,-0.7139,-0.7139,-0.7139,-0.7139,-0.7139,-0.7139,-2.6303,-2.6587,-2.7141,-2.9968,-2.9116,-2.8263,-3.0926,-3.0522,-2.9849,-3.0761,-3.0447,-2.9819,-2.925,-2.8532,-2.7919,-2.767,-2.7625,-2.7625,-2.7625,-2.7255,-2.6982,-2.6982,-2.6336,-2.5728,-2.5287,-2.4951,-2.4452,0.0,-2.3662,-2.3484,-2.3138,-2.3078,-2.3078,-2.3078,-2.3078,-2.3078,-2.3078,-2.3078,-2.3078,-2.3078,-2.3078,-2.3078,-2.3078,-2.2261,-2.1239,-2.0009,-1.911,-1.8462,-1.8008,-1.8008,-1.8008,-1.8008,-1.8008,-1.8008,-1.8008,-1.8008,-1.8008,-1.8008,-1.8008,-1.7725,-1.7432,-1.7872,-1.7079,-1.5869,-1.5376,-1.4632,-1.3785,-1.2996,-1.306,-1.344,-1.3601,-1.3868,-1.4088,-1.4088,-1.4088,-1.4088,-1.4088,-1.4088,-1.4088,-1.4088,-1.4088,-1.4088,-1.4088,-1.3118,-1.1895,-1.0783,-0.9666,-0.8452,-0.7228,-0.7139,-0.7139,-0.7139,-0.7139,-0.7139,-0.7139,-0.7139,-0.7139,-0.7139,-0.7139,-0.7139,-0.7139,-0.7139,-0.7139,-0.7139,-0.7139,-0.7139,-0.7139,-0.7139,-0.7139,-0.7139,-0.7139,-0.7139,-2.6437,-2.6363,-2.6408,-2.9699,-2.8786,-2.7679,-2.9998,-2.9774,-2.9295,-3.0103,-2.9909,-2.9579,-2.9579,-2.8472,-2.7625,-2.7625,-2.7625,-2.7509,-2.7357,-2.6826,-2.6457,-2.6229,-2.5563,-2.4908,-2.435,-2.4118,-2.3767,0.0,-2.3078,-2.3078,-2.3078,-2.3078,-2.3078,-2.3078,-2.3078,-2.3078,-2.3078,-2.3078,-2.3078,-2.3078,-2.3078,-2.3078,-2.3078,-2.2506,-2.1741,-2.091,-2.0009,-1.9243,-1.8654,-1.8395,-1.8337,-1.8337,-1.8076,-1.8008,-1.8008,-1.8008,-1.8008,-1.8008,-1.8008,-1.8008,-1.8008,-1.8008,-1.7501,-1.6784,-1.586,-1.4879,-1.3935,-1.3234,-1.3083,-1.316,-1.3454,-1.3754,-1.3995,-1.4068,-1.4088,-1.4088,-1.4088,-1.4088,-1.4088,-1.4088,-1.4088,-1.4088,-1.4088,-1.3379,-1.2248,-1.0783,-0.9836,-0.8798,-0.7312,-0.7139,-0.7139,-0.7139,-0.7139,-0.7139,-0.7139,-0.7139,-0.7139,-0.7139,-0.7139,-0.7139,-0.7139,-0.7139,-0.7139,-0.7139,-0.7139,-0.7139,-0.7139,-0.7139,-0.7139,-0.7139,-0.7139,-0.7139,-2.533,-2.5659,-2.5959,-2.741,-2.6737,-2.6078,-2.7455,-2.7775,-2.809,-2.9355,-2.9609,-2.9579,-2.9579,-2.8472,-2.7625,-2.7625,-2.7625,-2.7357,-2.6669,-2.651,-2.6229,-2.5563,-2.4794,-2.435,-2.4292,-2.359,-2.3138,0.0,-2.3078,-2.3078,-2.3078,-2.3078,-2.3078,-2.3078,-2.3078,-2.3078,-2.3078,-2.3078,-2.3078,-2.3078,-2.3078,-2.3078,-2.3078,-2.3078,-2.258,-2.1753,-2.091,-2.0526,-2.0398,-1.9562,-1.9243,-1.9177,-1.8337,-1.8008,-1.8008,-1.8008,-1.8008,-1.8008,-1.8008,-1.8008,-1.8008,-1.8008,-1.794,-1.7725,-1.6784,-1.586,-1.495,-1.3905,-1.3273,-1.2839,-1.3153,-1.3447,-1.3734,-1.4021,-1.4088,-1.4088,-1.4088,-1.4088,-1.4088,-1.4088,-1.4088,-1.4088,-1.4088,-1.4082,-1.3215,-1.0956,-1.0524,-0.9657,-0.7401,-0.7139,-0.7139,-0.7139,-0.7139,-0.7139,-0.7139,-0.7139,-0.7139,-0.7139,-0.7139,-0.7139,-0.7139,-0.7139,-0.7139,-0.7139,-0.7139,-0.7139,-0.7139,-0.7139,-0.7139,-0.7139,-0.7139,-0.7139,-2.5241,-2.4971,-2.4837,-2.7021,-2.5929,-2.4881,-2.7081,-2.7625,-2.776,-2.824,-2.8601,-2.8583,-2.7779,-2.7617,-2.7625,-2.7625,-2.7188,-2.6826,-2.6563,-2.5673,-2.5007,-2.4738,-2.3989,-2.3543,-2.3543,-2.3245,-2.3078,0.0,0.0,-2.202,-2.3015,-2.2133,-2.2033,-2.304,-2.3078,-2.3078,-2.3078,-2.3078,-2.3078,-2.3078,-2.3078,-2.3078,-2.3078,-2.3078,-2.2944,-2.2628,-2.231,-2.1604,-2.059,-2.0268,-1.9814,-1.9299,-1.8977,-1.8462,-1.8008,-1.8008,-1.8008,-1.8008,-1.8008,-1.8008,-1.8008,-1.8008,-1.8008,-1.7794,-1.6853,-1.6358,-1.579,-1.4163,-1.3689,-1.3596,-1.3033,-1.328,-1.3714,-1.4015,-1.4088,-1.4088,-1.4088,-1.4088,-1.4088,-1.4088,-1.4088,-1.4088,-1.4088,-1.4088,-1.3561,-1.1901,-1.1037,-1.0005,-0.8452,-0.7577,-0.7139,-0.7139,-0.7139,-0.7139,-0.7139,-0.7139,-0.7139,-0.7139,-0.7139,-0.7139,-0.7139,-0.7139,-0.7139,-0.7139,-0.7139,-0.7139,-0.7139,-0.7139,-0.7139,-0.7139,-0.7139,-0.7139,-2.4687,-2.4283,-2.4029,-2.5794,-2.4911,-2.4059,-2.5839,-2.6931,-2.7625,-2.7625,-2.8385,-2.8691,-2.7371,-2.7384,-2.7388,-2.6959,-2.6654,-2.6336,-2.5837,-2.4894,-2.4176,-2.3943,-2.3424,-2.3078,-2.3078,-2.3078,-2.3078,0.0,0.0,0.0,-2.3015,-2.2096,-2.1995,-2.304,-2.3078,-2.3078,-2.3078,-2.3078,-2.3078,-2.3078,-2.3078,-2.3078,-2.3078,-2.3078,-2.3078,-2.3078,-2.3078,-2.2494,-2.1416,-2.1164,-2.0719,-2.0139,-1.9562,-1.8977,-1.8395,-1.8144,-1.8008,-1.8008,-1.8008,-1.8008,-1.8008,-1.8008,-1.8008,-1.7862,-1.7285,-1.6853,-1.6349,-1.5013,-1.4333,-1.3881,-1.3395,-1.3423,-1.3694,-1.3895,-1.4015,-1.4088,-1.4088,-1.4088,-1.4088,-1.4088,-1.4088,-1.4088,-1.4088,-1.4088,-1.373,-1.2498,-1.13,-1.0183,-0.9065,-0.7841,-0.7139,-0.7139,-0.7139,-0.7139,-0.7139,-0.7139,-0.7139,-0.7139,-0.7139,-0.7139,-0.7139,-0.7139,-0.7139,-0.7139,-0.7139,-0.7139,-0.7139,-0.7139,-0.7139,-0.7139,-0.7139,-0.7139,0.0,0.0,0.0,-2.3595,-2.3595,-2.3595,-2.3595,-2.563,-2.7515,-2.7515,-2.9017,-2.9944,-2.851,-2.7821,-2.6956,-2.555,-2.596,-2.596,-2.4509,-2.4292,-2.3943,-2.3185,-2.3078,-2.3078,-2.3078,-2.3078,0.0,0.0,-2.3027,-2.3027,-2.3078,-2.3078,-2.3078,-2.3078,-2.3078,-2.3078,-2.3078,-2.3078,-2.3078,-2.3078,-2.3078,-2.3078,-2.3078,-2.3078,-2.3078,-2.3078,-2.3078,-2.3078,-2.3017,-2.2261,-2.1939,-2.1753,-2.0009,-1.9365,-1.9177,-1.8337,-1.8008,-1.8008,-1.8008,-1.8008,-1.8008,-1.8008,-1.8008,-1.8008,-1.8008,-1.7354,-1.6636,-1.6636,-1.5226,-1.382,-1.4156,-1.3881,-1.3552,-1.3641,-1.3868,-1.4088,-1.4088,-1.4088,-1.4088,-1.4088,-1.4088,-1.4088,-1.4088,-1.4088,-1.373,-1.2504,-1.1381,-1.0183,-0.9061,-0.7841,-0.7139,-0.7139,-0.7139,-0.7139,-0.7139,-0.7139,-0.7139,-0.7139,-0.7139,-0.7139,-0.7139,-0.7139,-0.7139,-0.7139,-0.7139,-0.7139,-0.7139,-0.7139,-0.7139,-0.7139,-0.7139,-0.7139,-2.3729,0.0,0.0,0.0,0.0,0.0,-2.3595,-2.4926,-2.5994,-2.5363,-2.6397,-2.6945,-2.5564,-2.5526,-2.5293,-2.3962,-2.4381,-2.4794,-2.435,-2.3826,-2.3365,-2.3138,-2.3078,-2.3078,-2.3078,-2.3078,0.0,0.0,-2.202,-2.187,-2.3015,-2.3078,-2.3078,-2.3078,-2.3078,-2.3078,-2.3078,-2.3078,-2.3078,-2.3078,-2.3078,-2.3078,-2.3078,-2.3078,-2.3078,-2.3078,-2.3078,-2.3078,-2.3065,-2.2884,-2.2445,-2.1877,-2.1365,-2.0398,-1.9299,-1.9044,-1.8529,-1.8008,-1.8008,-1.8008,-1.8008,-1.8008,-1.8008,-1.8008,-1.8008,-1.7794,-1.7501,-1.6784,-1.621,-1.5522,-1.4446,-1.3726,-1.3387,-1.3512,-1.3868,-1.4088,-1.4088,-1.4088,-1.4088,-1.4088,-1.4088,-1.4088,-1.4088,-1.4088,-1.3997,-1.3646,-1.1906,-1.0524,-1.0183,-0.8356,-0.7139,-0.7139,-0.7139,-0.7139,-0.7139,-0.7139,-0.7139,-0.7139,-0.7139,-0.7139,-0.7139,-0.7139,-0.7139,-0.7139,-0.7139,-0.7139,-0.7139,-0.7139,-0.7139,-0.7139,-0.7139,-0.7139,-2.3789,-2.3595,-2.3595,-2.3595,0.0,0.0,-2.3275,-2.4614,-2.5689,0.0,-2.6147,-2.6704,-2.4593,-2.453,-2.4282,-2.269,-2.284,-2.3282,-2.3761,-2.3424,-2.3078,-2.3078,-2.3078,-2.3078,-2.3078,-2.3078,-2.3078,-2.3078,-2.2234,-2.2121,-2.3027,-2.2763,-2.2763,-2.3078,-2.3078,-2.3078,-2.3078,-2.3078,-2.3078,-2.3078,-2.3078,-2.3078,-2.3078,-2.3078,-2.3078,-2.3078,-2.3078,-2.3078,-2.3078,-2.3078,-2.2823,-2.2384,-2.2002,-2.1302,-2.0333,-2.0009,-1.9299,-1.8519,-1.8519,-1.8269,-1.8008,-1.8008,-1.8008,-1.8008,-1.8008,-1.8008,-1.7872,-1.7354,-1.6922,-1.6193,-1.4483,-1.3838,-1.3556,-1.3467,-1.3687,-1.3935,-1.4062,-1.4088,-1.4088,-1.4088,-1.4088,-1.4088,-1.4088,-1.4088,-1.4088,-1.4088,-1.2083,-1.0611,-1.0611,-0.8532,-0.7139,-0.7139,-0.7139,-0.7139,-0.7139,-0.7139,-0.7139,-0.7139,-0.7139,-0.7139,-0.7139,-0.7139,-0.7139,-0.7139,-0.7139,-0.7139,-0.7139,-0.7139,-0.7139,-0.7139,-0.7139,-0.7139,-2.3804,-2.3595,-2.3595,-2.3595,-2.3595,0.0,-2.292,-2.4437,-2.5763,0.0,-2.6844,-2.7441,-2.4678,-2.4094,-2.3472,-2.1724,-2.1343,-2.1694,-2.2799,-2.3002,-2.3088,-2.2915,-2.3002,-2.3078,-2.3078,-2.3078,-2.3078,-2.3078,-2.3078,-2.3078,-2.3078,-2.2445,-2.2384,-2.3078,-2.3078,-2.3078,-2.3078,-2.3078,-2.3078,-2.3078,-2.3078,-2.3078,-2.3078,-2.3078,-2.3078,-2.3078,-2.3078,-2.3078,-2.3078,-2.3078,-2.3078,-2.3005,-2.2322,-2.2002,-2.1815,-2.1037,-2.0139,-1.9299,-1.9299,-1.8721,-1.8008,-1.8008,-1.8008,-1.8008,-1.8008,-1.8008,-1.8008,-1.8008,-1.7285,-1.621,-1.4307,-1.4065,-1.4018,-1.3328,-1.3407,-1.3714,-1.3981,-1.4062,-1.4088,-1.4088,-1.4088,-1.4088,-1.4088,-1.4088,-1.4088,-1.4088,-1.2083,-1.0611,-1.0611,-0.8532,-0.7139,-0.7139,-0.7139,-0.7139,-0.7139,-0.7139,-0.7139,-0.7139,-0.7139,-0.7139,-0.7139,-0.7139,-0.7139,-0.7139,-0.7139,-0.7139,-0.7139,-0.7139,-0.7139,-0.7139,-0.7139,-0.7139,-2.3924,-2.3595,-2.3595,-2.3595,-2.3595,0.0,-2.3465,-2.3403,-2.3478,-2.3765,-2.3757,-2.3484,-2.2853,-2.2382,-2.1805,-2.0983,-2.0439,-2.0526,-2.1644,-2.2573,-2.2811,-2.192,-2.2585,-2.3078,-2.3078,-2.3078,-2.3078,-2.3078,-2.3078,-2.3078,-2.3078,-2.2944,-2.2944,-2.3078,-2.3078,-2.3078,-2.3078,-2.3078,-2.3078,-2.3078,-2.3078,-2.3078,-2.3078,-2.3078,-2.3078,-2.3078,-2.3078,-2.3078,-2.3078,-2.3078,-2.3078,-2.3065,-2.2944,-2.2445,-2.1877,-2.169,-2.0655,-1.9299,-1.9299,-1.8721,-1.8008,-1.8008,-1.8008,-1.8008,-1.8008,-1.8008,-1.8008,-1.8008,-1.7285,-1.6349,-1.5234,-1.4571,-1.396,-1.3126,-1.3247,-1.3661,-1.3714,-1.3915,-1.4088,-1.4088,-1.4088,-1.4088,-1.4088,-1.4088,-1.4088,-1.4088,-1.2083,-1.0611,-1.0611,-0.8532,-0.7139,-0.7139,-0.7139,-0.7139,-0.7139,-0.7139,-0.7139,-0.7139,-0.7139,-0.7139,-0.7139,-0.7139,-0.7139,-0.7139,-0.7139,-0.7139,-0.7139,-0.7139,-0.7139,-0.7139,-0.7139,-0.7139,-2.3969,-2.3595,-2.3595,-2.3595,-2.3377,0.0,0.0,-2.2578,-2.2515,-2.2459,-2.2613,-2.2508,-2.165,-2.1029,-2.0476,-1.9936,-1.9371,-1.9208,-1.9773,-2.128,-2.2309,-2.2309,-2.2799,-2.3078,-2.3078,-2.3078,-2.2944,-2.2506,-2.2506,-2.231,-2.1865,-2.2249,-2.2506,-2.2506,-2.2884,-2.3078,-2.3078,-2.3078,-2.3078,-2.3078,-2.3078,-2.3078,-2.3078,-2.3078,-2.3078,-2.3078,-2.3078,-2.3078,-2.3078,-2.3078,-2.3078,-2.3078,-2.3078,-2.2884,-2.2506,-2.2506,-2.1416,-1.9944,-1.9944,-1.911,-1.8008,-1.8008,-1.8008,-1.8008,-1.8008,-1.8008,-1.8008,-1.8008,-1.7647,-1.7001,-1.5587,-1.4936,-1.439,-1.3079,-1.2979,-1.328,-1.3581,-1.3761,-1.3908,-1.4055,-1.4088,-1.4088,-1.4088,-1.4088,-1.4088,-1.4088,-1.2083,-1.0611,-1.0611,-0.8532,-0.7139,-0.7139,-0.7139,-0.7139,-0.7139,-0.7139,-0.7139,-0.7139,-0.7139,-0.7139,-0.7139,-0.7139,-0.7139,-0.7139,-0.7139,-0.7139,-0.7139,-0.7139,-0.7139,-0.7139,-0.7139,-0.7139,-2.3924,-2.3595,-2.3595,-2.3595,-2.3231,-2.268,0.0,0.0,0.0,-2.147,-2.1927,-2.2083,-2.0752,-2.0037,0.0,-1.8908,0.0,0.0,0.0,-1.9736,0.0,-2.2026,-2.2372,-2.2426,-2.2426,-2.2508,-2.2407,-2.2175,-2.2002,-2.1678,-2.1101,-2.1741,-2.2137,-2.2137,-2.2763,-2.3078,-2.3078,-2.3078,-2.3078,-2.3078,-2.3078,-2.3078,-2.3078,-2.3078,-2.3078,-2.3078,-2.3078,-2.3078,-2.3078,-2.3078,-2.3078,-2.3078,-2.3078,-2.3078,-2.3078,-2.3078,-2.2125,-2.0846,-2.0655,-1.9562,-1.8202,-1.8076,-1.8008,-1.8008,-1.8008,-1.8008,-1.8008,-1.8008,-1.8008,-1.7579,-1.5658,-1.5234,-1.4808,-1.3119,-1.2782,-1.2956,-1.3367,-1.3561,-1.3714,-1.3955,-1.4048,-1.4088,-1.4088,-1.4088,-1.4088,-1.4088,-1.2083,-1.0611,-1.0611,-0.8532,-0.7139,-0.7139,-0.7139,-0.7139,-0.7139,-0.7139,-0.7139,-0.7139,-0.7139,-0.7139,-0.7139,-0.7139,-0.7139,-0.7139,-0.7139,-0.7139,-0.7139,-0.7139,-0.7139,-0.7139,-0.7139,-0.7139,-2.3804,-2.3595,-2.3595,-2.3595,-2.3551,-2.3334,-2.274,0.0,-2.1629,-2.098,0.0,-2.0125,-1.9936,0.0,0.0,-1.8392,0.0,0.0,-1.8141,-1.843,-1.8631,-1.8744,-1.961,-2.0175,0.0,-2.0378,-2.1221,-2.2809,-2.2322,-2.2199,-2.275,-2.2884,-2.2944,-2.2944,-2.3078,-2.3078,-2.3078,-2.3078,-2.3078,-2.3078,-2.3078,-2.3078,-2.3078,-2.3078,-2.3078,-2.3078,-2.3078,-2.3078,-2.3078,-2.3078,-2.3078,-2.3078,-2.3078,-2.3078,-2.3078,-2.3078,-2.2506,-2.1628,-2.0846,-1.9944,-1.9044,-1.8269,-1.8008,-1.8008,-1.8008,-1.8008,-1.8008,-1.8008,-1.8008,-1.7579,-1.5658,-1.5234,-1.4744,-1.2774,-1.2552,-1.2842,-1.2909,-1.3267,-1.3572,-1.3687,-1.3908,-1.4088,-1.4088,-1.4088,-1.4088,-1.4088,-1.2083,-1.0611,-1.0611,-0.8532,-0.7139,-0.7139,-0.7139,-0.7139,-0.7139,-0.7139,-0.7139,-0.7139,-0.7139,-0.7139,-0.7139,-0.7139,-0.7139,-0.7139,-0.7139,-0.7139,-0.7139,-0.7139,-0.7139,-0.7139,-0.7139,-0.7139,-2.4747,-2.4366,-2.4119,-2.461,-2.3807,-2.2972,-2.3231,-2.1879,-2.0521,-2.0295,0.0,0.0,0.0,0.0,0.0,0.0,-1.7739,-1.735,0.0,0.0,-1.7702,-1.8982,0.0,0.0,0.0,0.0,0.0,0.0,-2.1033,-2.0854,-2.0167,-2.2031,-2.2884,-2.2445,-2.2884,-2.3078,-2.3078,-2.3078,-2.3078,-2.3078,-2.3078,-2.3365,-2.3767,-2.3305,-2.3365,-2.3767,-2.3305,-2.3078,-2.3078,-2.3078,-2.3078,-2.3078,-2.3078,-2.3078,-2.3078,-2.3078,-2.2567,-2.1753,-2.091,-2.0009,-1.9177,-1.8269,-1.8008,-1.8008,-1.8008,-1.8008,-1.8008,-1.8008,-1.7579,-1.6862,-1.5517,-1.4736,-1.3954,-1.2592,-1.2398,-1.2532,-1.2788,-1.3086,-1.344,-1.3614,-1.3881,-1.4088,-1.4088,-1.4088,-1.4088,-1.4088,-1.2083,-1.0611,-1.0611,-0.8532,-0.7139,-0.7139,-0.7139,-0.7139,-0.7139,-0.7139,-0.7139,-0.7139,-0.7139,-0.7139,-0.7139,-0.7139,-0.7139,-0.7139,-0.7139,-0.7139,-0.7139,-0.7139,-0.7139,-0.7139,-0.7139,-0.7139,-2.6019,0.0,0.0,0.0,0.0,0.0,0.0,0.0,0.0,-1.985,-1.9798,0.0,0.0,0.0,-1.9007,-1.8317,0.0,-1.735,-1.6622,-1.6522,-1.7112,0.0,0.0,0.0,0.0,0.0,0.0,-1.9333,-1.9948,-1.9843,-1.9004,-2.1596,-2.2823,-2.2261,-2.2823,-2.3078,-2.3078,-2.3078,-2.3078,-2.3078,-2.3078,-2.3424,-2.3943,-2.3365,-2.3424,-2.3943,-2.3365,-2.3078,-2.3078,-2.3078,-2.3078,-2.3078,-2.3078,-2.3078,-2.3078,-2.3078,-2.2763,-2.2063,-2.0974,-1.9879,-1.8854,-1.8202,-1.8008,-1.8008,-1.8008,-1.8008,-1.8008,-1.8008,-1.7285,-1.6349,-1.5446,-1.445,-1.3455,-1.2519,-1.2305,-1.2365,-1.2579,-1.2866,-1.3173,-1.3467,-1.3761,-1.3988,-1.4075,-1.4088,-1.4088,-1.4088,-1.2083,-1.0611,-1.0611,-0.8532,-0.7139,-0.7139,-0.7139,-0.7139,-0.7139,-0.7139,-0.7139,-0.7139,-0.7139,-0.7139,-0.7139,-0.7139,-0.7139,-0.7139,-0.7139,-0.7139,-0.7139,-0.7139,-0.7139,-0.7139,-0.7139,-0.7139,0.0,0.0,0.0,-2.5194,0.0,0.0,0.0,0.0,-2.0597,0.0,0.0,-1.9798,-1.9798,-1.9786,-1.9434,-1.838,-1.8191,0.0,0.0,-1.6522,-1.6547,-1.6622,-1.6857,0.0,0.0,-1.6955,-1.7364,-1.9456,-1.9448,-1.9948,-2.1313,-2.2477,-2.3078,-2.3078,-2.3078,-2.3078,-2.3078,-2.3078,-2.3078,-2.3078,-2.3078,-2.3138,-2.3138,-2.3138,-2.3138,-2.3138,-2.3138,-2.3078,-2.3078,-2.3078,-2.3078,-2.3078,-2.3078,-2.3078,-2.3078,-2.3078,-2.3065,-2.2823,-2.1164,-1.9497,-1.8008,-1.8008,-1.8008,-1.8008,-1.8008,-1.8008,-1.8008,-1.8008,-1.7285,-1.6349,-1.5446,-1.445,-1.3455,-1.2519,-1.2305,-1.2305,-1.2311,-1.2552,-1.2852,-1.3166,-1.346,-1.3748,-1.4041,-1.4088,-1.4088,-1.4088,-1.2083,-1.0611,-1.0611,-0.8532,-0.7139,-0.7139,-0.7139,-0.7139,-0.7139,-0.7139,-0.7139,-0.7139,-0.7139,-0.7139,-0.7139,-0.7139,-0.7139,-0.7139,-0.7139,-0.7139,-0.7139,-0.7139,-0.7139,-0.7139,-0.7139,-0.7139,0.0,0.0,-2.7018,-2.6372,0.0,0.0,0.0,0.0,0.0,0.0,0.0,0.0,-1.9798,-1.9798,-1.9447,-1.838,-1.8204,-1.7802,0.0,-1.6522,-1.6286,-1.5788,-1.5806,-1.6289,0.0,0.0,0.0,-1.7783,-1.7967,-1.8187,-1.8714,-2.0809,-2.2046,-2.2046,-2.2761,-2.3078,-2.3078,-2.3078,-2.3078,-2.3078,-2.3078,-2.3365,-2.3884,-2.3365,-2.3365,-2.3884,-2.3305,-2.3078,-2.3078,-2.3078,-2.3078,-2.3078,-2.3078,-2.3078,-2.3078,-2.3078,-2.3078,-2.2884,-2.1164,-1.9431,-1.8008,-1.8008,-1.8008,-1.8008,-1.8008,-1.8008,-1.8008,-1.8008,-1.6862,-1.5587,-1.5305,-1.4027,-1.2659,-1.2378,-1.2305,-1.2305,-1.2305,-1.2532,-1.2856,-1.2879,-1.3307,-1.3674,-1.3774,-1.3955,-1.4088,-1.4088,-1.2083,-1.0611,-1.0611,-0.8532,-0.7139,-0.7139,-0.7139,-0.7139,-0.7139,-0.7139,-0.7139,-0.7139,-0.7139,-0.7139,-0.7139,-0.7139,-0.7139,-0.7139,-0.7139,-0.7139,-0.7139,-0.7139,-0.7139,-0.7139,-0.7139,-0.7139,-2.8944,-2.8369,0.0,-2.6856,-2.5414,0.0,-2.3949,0.0,-2.0978,0.0,0.0,0.0,0.0,-2.0401,-1.9924,-1.8442,-1.8204,-1.7802,0.0,-1.6337,-1.5981,-1.5359,-1.5426,-1.593,-1.6874,-1.5728,-1.5441,-1.6911,-1.7023,-1.7181,0.0,0.0,-2.1493,-2.1493,-2.256,-2.3078,-2.3078,-2.3078,-2.3078,-2.3078,-2.3078,-2.3365,-2.3826,-2.3365,-2.3365,-2.3826,-2.3305,-2.3078,-2.3078,-2.3078,-2.3078,-2.3078,-2.3078,-2.3078,-2.3078,-2.3078,-2.2689,-2.199,-2.0655,-1.9177,-1.8008,-1.8008,-1.8008,-1.8008,-1.8008,-1.8008,-1.8008,-1.8008,-1.6655,-1.5234,-1.5234,-1.3738,-1.2305,-1.2305,-1.2305,-1.2305,-1.2305,-1.2452,-1.2694,-1.2802,-1.306,-1.3394,-1.3607,-1.3801,-1.3968,-1.4075,-1.2083,-1.0611,-1.0611,-0.8532,-0.7139,-0.7139,-0.7139,-0.7139,-0.7139,-0.7139,-0.7139,-0.7139,-0.7139,-0.7139,-0.7139,-0.7139,-0.7139,-0.7139,-0.7139,-0.7139,-0.7139,-0.7139,-0.7139,-0.7139,-0.7139,-0.7139]},{"header":{"parameterUnit":"m.s-1","parameterCategory":1,"la1":30.6,"la2":29.2853,"lo1":-89.7004,"lo2":-87.6739,"dy":0.0162,"dx":0.0183,"nx":112,"ny":82,"refTime":"2023-07-10T00:00:00:Z","depth":0,"parameterNumber":3,"parameterNumberName":"V-component_of_WINDS"},"data":[0.0,0.0,0.0,0.0,0.0,0.0,0.0,0.0,0.0,0.0,0.0,0.0,0.0,0.0,0.0,0.0,0.0,0.0,0.0,0.0,0.0,0.0,0.0,0.0,0.0,0.0,0.0,0.0,0.0,0.0,0.0,0.0,0.0,0.0,0.0,0.0,0.0,0.0,0.0,0.0,0.0,0.0,0.0,0.0,0.0,0.0,0.0,0.0,0.0,0.0,0.0,0.0,0.0,0.0,0.0,0.0,0.0,0.0,0.0,0.0,0.0,0.0,0.0,0.0,0.0,0.0,0.0,0.0,0.0,0.0,0.0,0.0,0.0,0.0,0.0,0.0,0.0,0.0,0.0,0.0,0.0,0.0,0.0,0.0,0.0,0.0,0.0,0.0,0.0,0.0,-2.2219,-2.3435,-2.3663,-2.3745,-2.3745,-2.4492,-2.4466,-2.3155,0.0,0.0,0.0,0.0,0.0,0.0,0.0,0.0,0.0,0.0,0.0,0.0,0.0,0.0,0.0,0.0,0.0,0.0,0.0,0.0,0.0,0.0,0.0,0.0,0.0,0.0,0.0,0.0,0.0,0.0,0.0,0.0,0.0,0.0,0.0,0.0,0.0,0.0,0.0,0.0,0.0,0.0,0.0,0.0,0.0,0.0,0.0,0.0,0.0,0.0,0.0,0.0,0.0,0.0,0.0,0.0,0.0,0.0,0.0,0.0,0.0,0.0,0.0,0.0,0.0,0.0,0.0,0.0,0.0,0.0,0.0,0.0,0.0,0.0,0.0,0.0,0.0,0.0,0.0,0.0,0.0,0.0,0.0,0.0,0.0,0.0,0.0,0.0,0.0,0.0,0.0,0.0,0.0,0.0,0.0,0.0,0.0,0.0,0.0,0.0,0.0,0.0,0.0,0.0,-2.3343,-2.461,-2.4767,-2.4779,-2.4779,-2.4933,-2.4466,-2.3155,0.0,0.0,0.0,0.0,0.0,0.0,0.0,0.0,0.0,0.0,0.0,0.0,0.0,0.0,0.0,0.0,0.0,0.0,0.0,0.0,0.0,0.0,0.0,0.0,0.0,0.0,0.0,0.0,0.0,0.0,0.0,0.0,0.0,0.0,0.0,0.0,0.0,0.0,0.0,0.0,0.0,0.0,0.0,0.0,0.0,0.0,0.0,0.0,0.0,0.0,0.0,0.0,0.0,0.0,0.0,0.0,0.0,0.0,0.0,0.0,0.0,0.0,0.0,0.0,0.0,0.0,0.0,0.0,0.0,0.0,0.0,0.0,0.0,0.0,0.0,0.0,0.0,0.0,0.0,0.0,0.0,0.0,0.0,0.0,0.0,0.0,0.0,0.0,0.0,0.0,0.0,0.0,0.0,0.0,0.0,0.0,0.0,0.0,0.0,0.0,0.0,0.0,0.0,-2.2573,-2.3786,-2.4897,-2.4492,-2.4409,-2.4933,-2.5511,-2.5019,-2.3215,-2.3078,0.0,0.0,0.0,0.0,0.0,0.0,0.0,0.0,0.0,0.0,0.0,0.0,0.0,0.0,0.0,0.0,0.0,0.0,0.0,0.0,0.0,0.0,0.0,0.0,0.0,0.0,0.0,0.0,0.0,0.0,0.0,0.0,0.0,0.0,0.0,0.0,0.0,0.0,0.0,0.0,0.0,0.0,0.0,0.0,0.0,0.0,0.0,0.0,0.0,0.0,0.0,0.0,0.0,0.0,0.0,0.0,0.0,0.0,0.0,0.0,0.0,0.0,0.0,0.0,0.0,0.0,0.0,0.0,0.0,0.0,0.0,0.0,0.0,0.0,0.0,0.0,0.0,0.0,0.0,0.0,0.0,0.0,0.0,0.0,0.0,0.0,0.0,0.0,0.0,0.0,0.0,0.0,0.0,0.0,0.0,0.0,0.0,0.0,0.0,0.0,0.0,0.0,-2.3537,-2.4213,-2.5264,-2.4696,-2.4552,-2.53,-2.6094,-2.5511,-2.3215,-2.3078,0.0,0.0,0.0,0.0,0.0,0.0,0.0,0.0,0.0,0.0,0.0,0.0,0.0,0.0,0.0,0.0,0.0,0.0,0.0,0.0,0.0,0.0,0.0,0.0,0.0,0.0,0.0,0.0,0.0,0.0,0.0,0.0,0.0,0.0,0.0,0.0,0.0,0.0,0.0,0.0,0.0,0.0,0.0,0.0,0.0,0.0,0.0,0.0,0.0,0.0,0.0,0.0,0.0,0.0,0.0,0.0,0.0,0.0,0.0,0.0,0.0,0.0,0.0,0.0,0.0,0.0,0.0,0.0,0.0,0.0,0.0,0.0,0.0,0.0,0.0,0.0,0.0,0.0,0.0,0.0,0.0,0.0,0.0,0.0,0.0,0.0,0.0,0.0,0.0,0.0,0.0,0.0,0.0,0.0,0.0,0.0,0.0,0.0,0.0,0.0,0.0,0.0,-2.4054,-2.5124,-2.6271,-2.6314,-2.6314,-2.6383,-2.6452,-2.5511,-2.3215,-2.3078,0.0,0.0,0.0,0.0,0.0,0.0,0.0,0.0,0.0,0.0,0.0,0.0,0.0,0.0,0.0,0.0,0.0,0.0,0.0,0.0,0.0,0.0,0.0,0.0,0.0,0.0,0.0,0.0,0.0,0.0,0.0,0.0,0.0,0.0,0.0,0.0,0.0,0.0,0.0,0.0,0.0,0.0,0.0,0.0,0.0,0.0,0.0,0.0,0.0,0.0,0.0,0.0,0.0,0.0,0.0,0.0,0.0,0.0,0.0,0.0,0.0,0.0,0.0,0.0,0.0,0.0,0.0,0.0,0.0,0.0,0.0,0.0,0.0,0.0,0.0,0.0,0.0,0.0,0.0,0.0,0.0,0.0,0.0,0.0,0.0,0.0,0.0,0.0,0.0,0.0,0.0,0.0,0.0,0.0,0.0,0.0,0.0,0.0,0.0,0.0,0.0,0.0,-2.4177,-2.5362,-2.6414,-2.5955,-2.5804,-2.6465,-2.6533,-2.5511,-2.3215,0.0,0.0,0.0,0.0,0.0,0.0,0.0,0.0,0.0,0.0,0.0,0.0,0.0,0.0,0.0,0.0,0.0,0.0,0.0,0.0,0.0,0.0,0.0,0.0,0.0,0.0,0.0,0.0,0.0,0.0,0.0,0.0,0.0,0.0,0.0,0.0,0.0,0.0,0.0,0.0,0.0,0.0,0.0,0.0,0.0,0.0,0.0,0.0,0.0,0.0,0.0,0.0,0.0,0.0,0.0,0.0,0.0,0.0,0.0,0.0,0.0,0.0,0.0,0.0,0.0,0.0,0.0,0.0,0.0,0.0,0.0,0.0,0.0,0.0,0.0,0.0,0.0,0.0,0.0,0.0,0.0,0.0,0.0,0.0,0.0,0.0,0.0,0.0,0.0,0.0,0.0,0.0,0.0,0.0,0.0,0.0,0.0,0.0,0.0,0.0,0.0,0.0,-2.3078,-2.4467,-2.5734,-2.6452,-2.5873,-2.5734,-2.6452,-2.6533,-2.563,-2.3552,0.0,0.0,0.0,0.0,0.0,0.0,0.0,0.0,0.0,0.0,0.0,0.0,0.0,0.0,0.0,0.0,0.0,0.0,0.0,0.0,0.0,0.0,0.0,0.0,0.0,0.0,0.0,0.0,0.0,0.0,0.0,0.0,0.0,0.0,0.0,0.0,0.0,0.0,0.0,0.0,0.0,0.0,0.0,0.0,0.0,0.0,0.0,0.0,0.0,0.0,0.0,0.0,0.0,0.0,0.0,0.0,0.0,0.0,0.0,0.0,0.0,0.0,0.0,0.0,0.0,0.0,0.0,0.0,0.0,0.0,0.0,0.0,0.0,0.0,0.0,0.0,0.0,0.0,0.0,0.0,0.0,0.0,0.0,0.0,0.0,0.0,0.0,0.0,0.0,0.0,0.0,0.0,0.0,0.0,0.0,0.0,0.0,0.0,0.0,0.0,0.0,0.0,-2.3078,-2.5084,-2.6533,-2.6533,-2.6533,-2.6533,-2.6533,-2.6533,-2.5815,0.0,0.0,0.0,0.0,0.0,0.0,0.0,0.0,0.0,0.0,0.0,0.0,0.0,0.0,0.0,0.0,0.0,0.0,0.0,0.0,0.0,0.0,0.0,0.0,0.0,0.0,0.0,0.0,0.0,0.0,0.0,0.0,0.0,0.0,0.0,0.0,0.0,0.0,0.0,0.0,0.0,0.0,0.0,0.0,0.0,0.0,0.0,0.0,0.0,0.0,0.0,0.0,0.0,0.0,0.0,0.0,0.0,0.0,0.0,0.0,0.0,0.0,0.0,0.0,0.0,0.0,0.0,0.0,0.0,0.0,0.0,0.0,0.0,0.0,0.0,0.0,0.0,0.0,0.0,0.0,0.0,0.0,0.0,0.0,0.0,0.0,0.0,0.0,0.0,0.0,0.0,0.0,0.0,0.0,0.0,0.0,0.0,0.0,0.0,0.0,0.0,0.0,0.0,-2.3078,-2.5084,-2.6533,-2.6533,-2.6533,-2.6714,-2.7284,-2.7351,-2.6683,-2.51,0.0,0.0,0.0,0.0,0.0,0.0,0.0,0.0,0.0,0.0,0.0,0.0,0.0,0.0,0.0,0.0,0.0,0.0,0.0,0.0,0.0,0.0,0.0,0.0,0.0,0.0,0.0,0.0,0.0,0.0,0.0,0.0,0.0,0.0,0.0,0.0,0.0,0.0,0.0,0.0,0.0,0.0,0.0,0.0,0.0,0.0,0.0,0.0,0.0,0.0,0.0,0.0,0.0,0.0,0.0,0.0,0.0,0.0,0.0,0.0,0.0,0.0,0.0,0.0,0.0,0.0,0.0,0.0,0.0,0.0,0.0,0.0,0.0,0.0,0.0,0.0,0.0,0.0,0.0,0.0,0.0,0.0,0.0,0.0,0.0,0.0,0.0,0.0,0.0,0.0,0.0,0.0,0.0,0.0,0.0,0.0,0.0,0.0,0.0,0.0,0.0,0.0,-2.3078,-2.5084,-2.6533,-2.6533,-2.6533,-2.685,-2.7604,-2.767,-2.7377,-2.6581,0.0,0.0,0.0,0.0,0.0,0.0,0.0,0.0,0.0,0.0,0.0,0.0,0.0,0.0,0.0,0.0,0.0,0.0,0.0,0.0,0.0,0.0,0.0,0.0,0.0,0.0,0.0,0.0,0.0,0.0,0.0,0.0,0.0,0.0,0.0,0.0,0.0,0.0,0.0,0.0,0.0,0.0,0.0,0.0,0.0,0.0,0.0,0.0,0.0,0.0,0.0,0.0,0.0,0.0,0.0,0.0,0.0,0.0,0.0,0.0,0.0,0.0,0.0,0.0,0.0,0.0,0.0,0.0,0.0,0.0,0.0,0.0,0.0,0.0,0.0,0.0,0.0,0.0,0.0,0.0,0.0,0.0,0.0,0.0,0.0,0.0,0.0,0.0,0.0,0.0,0.0,0.0,0.0,0.0,0.0,0.0,0.0,0.0,0.0,0.0,0.0,0.0,-2.3138,-2.5149,-2.6589,-2.6589,-2.6658,-2.704,-2.7855,-2.792,-2.8053,-2.8412,0.0,0.0,0.0,0.0,0.0,0.0,0.0,0.0,0.0,0.0,0.0,0.0,0.0,0.0,0.0,0.0,0.0,0.0,0.0,0.0,0.0,0.0,0.0,0.0,0.0,0.0,0.0,0.0,0.0,0.0,0.0,0.0,0.0,0.0,0.0,0.0,0.0,0.0,0.0,0.0,0.0,0.0,0.0,0.0,0.0,0.0,0.0,0.0,0.0,0.0,0.0,0.0,0.0,0.0,0.0,0.0,0.0,0.0,0.0,0.0,-2.4134,0.0,0.0,0.0,0.0,0.0,0.0,0.0,0.0,0.0,0.0,0.0,0.0,0.0,0.0,0.0,0.0,0.0,0.0,0.0,0.0,0.0,0.0,0.0,0.0,0.0,0.0,0.0,0.0,0.0,0.0,0.0,0.0,0.0,0.0,0.0,0.0,0.0,0.0,0.0,0.0,0.0,-2.3185,-2.5627,-2.7417,-2.7417,-2.8051,-2.8812,-2.969,-2.9766,-2.9602,-2.9366,-2.9065,0.0,0.0,0.0,0.0,0.0,0.0,0.0,0.0,0.0,0.0,0.0,0.0,0.0,0.0,0.0,0.0,0.0,0.0,0.0,0.0,0.0,0.0,0.0,0.0,0.0,0.0,0.0,0.0,0.0,0.0,0.0,0.0,0.0,0.0,0.0,0.0,0.0,0.0,0.0,0.0,0.0,0.0,0.0,0.0,0.0,0.0,0.0,0.0,0.0,0.0,0.0,0.0,0.0,0.0,0.0,0.0,0.0,0.0,0.0,0.0,-2.5397,0.0,0.0,0.0,0.0,0.0,0.0,0.0,0.0,0.0,0.0,0.0,0.0,0.0,0.0,0.0,0.0,0.0,0.0,0.0,0.0,0.0,0.0,0.0,0.0,0.0,0.0,0.0,0.0,0.0,0.0,0.0,0.0,0.0,0.0,0.0,0.0,0.0,0.0,0.0,0.0,-2.4266,-2.6596,-2.8298,-2.8298,-2.8748,-2.938,-3.0208,-3.0329,-3.0367,-3.0496,-2.9924,0.0,0.0,0.0,0.0,0.0,0.0,0.0,0.0,0.0,0.0,0.0,0.0,0.0,0.0,0.0,0.0,0.0,0.0,0.0,0.0,0.0,0.0,0.0,0.0,0.0,0.0,0.0,0.0,0.0,0.0,0.0,0.0,0.0,0.0,0.0,0.0,0.0,0.0,0.0,0.0,0.0,0.0,0.0,0.0,0.0,0.0,0.0,0.0,0.0,0.0,0.0,0.0,0.0,-2.3573,-2.4388,-2.507,-2.4249,-2.5013,-2.7103,-2.6872,-2.7322,-2.8172,-2.7155,0.0,0.0,0.0,0.0,0.0,0.0,0.0,0.0,0.0,0.0,0.0,0.0,0.0,0.0,0.0,0.0,0.0,0.0,0.0,0.0,0.0,0.0,0.0,0.0,-3.0088,-2.9684,0.0,0.0,0.0,0.0,0.0,0.0,0.0,0.0,0.0,0.0,0.0,0.0,-2.5398,-2.7631,-2.9254,-2.9254,-2.938,-2.9752,-3.045,-3.0524,-3.0777,-3.1467,-3.0522,-2.9858,0.0,0.0,0.0,0.0,0.0,0.0,0.0,0.0,0.0,0.0,0.0,0.0,0.0,0.0,0.0,0.0,0.0,0.0,0.0,0.0,0.0,0.0,0.0,0.0,0.0,0.0,0.0,0.0,0.0,0.0,0.0,0.0,-2.7586,-2.7946,0.0,0.0,0.0,0.0,0.0,0.0,0.0,0.0,0.0,0.0,0.0,0.0,0.0,-2.1188,-2.2475,-2.3066,-2.3577,-2.3935,-2.5442,-2.6644,-2.7616,-2.7458,-2.8162,-2.9337,-2.8301,0.0,-2.8775,-2.8147,0.0,0.0,0.0,0.0,0.0,0.0,0.0,0.0,0.0,0.0,0.0,0.0,0.0,0.0,0.0,0.0,0.0,0.0,0.0,0.0,0.0,0.0,-3.2766,-3.2931,-3.2108,-3.1539,0.0,-2.9864,-2.7664,-2.8831,-2.7599,0.0,0.0,0.0,0.0,0.0,0.0,0.0,-2.5453,-2.8177,-3.0133,-3.0133,-3.0777,-3.1219,-3.1351,-3.1351,-3.1409,-3.1482,-3.1317,-3.1011,-3.0469,-3.1672,0.0,0.0,0.0,0.0,0.0,0.0,0.0,0.0,0.0,0.0,0.0,0.0,0.0,0.0,0.0,0.0,0.0,0.0,0.0,0.0,0.0,0.0,0.0,0.0,0.0,0.0,0.0,0.0,0.0,-2.7462,-2.7833,-2.8084,-2.7557,-2.6992,0.0,0.0,0.0,0.0,0.0,0.0,0.0,0.0,0.0,-2.1298,-2.2196,-2.2793,-2.3198,-2.4562,-2.5599,-2.6368,-2.6442,-2.7383,-2.9028,-2.8426,-2.8688,-2.9767,-2.9264,-2.9189,-2.9352,-2.8461,-2.8109,-2.8009,0.0,0.0,0.0,0.0,-2.7502,-2.9109,-2.9419,-3.0881,0.0,-3.2632,0.0,0.0,0.0,0.0,0.0,0.0,0.0,0.0,0.0,0.0,-3.3125,-3.3873,-3.3903,-3.3918,-3.4502,-3.2662,-3.0851,0.0,-2.9385,-2.7972,-2.6878,0.0,0.0,0.0,0.0,-2.8565,-2.8289,-2.9841,-3.097,-3.097,-3.1278,-3.1482,-3.1482,-3.1482,-3.1697,-3.212,-3.212,-3.2144,-3.2282,-3.3211,-3.3032,0.0,0.0,0.0,0.0,0.0,0.0,0.0,0.0,0.0,0.0,0.0,0.0,0.0,0.0,0.0,0.0,0.0,0.0,0.0,0.0,0.0,0.0,0.0,0.0,0.0,0.0,0.0,0.0,-2.7406,-2.816,-2.8298,-2.772,-2.7205,0.0,0.0,0.0,0.0,0.0,0.0,-2.2537,-2.2046,-2.188,-2.2076,-2.3596,-2.4445,-2.4636,-2.6172,-2.7279,-2.8084,-2.7626,-2.8211,-2.9792,-2.8937,-2.9028,-2.9792,-2.9792,-2.9792,-2.9729,-2.8875,-2.8536,-2.8511,-2.8489,-2.8407,-2.8332,-2.8471,-2.9575,-3.0942,-3.1139,-3.2431,-3.4008,-3.4008,0.0,-3.3155,-3.2647,0.0,0.0,0.0,0.0,-3.0597,-3.1734,-3.2662,-3.3529,-3.4502,-3.513,-3.5504,-3.5504,-3.4442,-3.3305,0.0,-3.1345,-3.0013,-2.9011,0.0,0.0,0.0,0.0,-3.0507,-3.0507,-3.1106,-3.1482,-3.1482,-3.1482,-3.1582,-3.1739,-3.1796,-3.212,-3.2788,-3.2841,-3.3145,-3.3836,-3.4333,-3.4145,-3.3243,0.0,0.0,0.0,0.0,0.0,0.0,0.0,0.0,0.0,0.0,0.0,0.0,0.0,0.0,0.0,0.0,0.0,0.0,0.0,0.0,0.0,0.0,0.0,0.0,0.0,0.0,0.0,0.0,0.0,-2.8825,-2.9327,0.0,0.0,0.0,0.0,-2.5229,-2.4302,-2.3694,-2.3456,-2.337,-2.4255,-2.614,-2.5303,-2.5732,-2.7853,-2.798,-2.8016,-2.8084,-2.9118,-2.9714,-2.9792,-2.9714,-2.9714,-2.9792,-2.9792,-2.9792,-2.9792,-2.9729,-2.9704,-2.9668,-2.9483,-2.9425,-2.9504,-3.0066,-3.1156,-3.2387,-3.3119,-3.4277,-3.54,-3.54,-3.4113,-3.2213,-3.0342,-2.9714,0.0,0.0,-3.1375,-3.2527,-3.3215,-3.4367,-3.537,-3.5429,-3.5489,-3.5504,-3.5504,-3.4442,-3.3858,0.0,-3.3709,-3.2347,-3.2287,0.0,-3.0986,-2.9684,-3.0058,-3.0507,-3.0507,-3.1106,-3.1482,-3.1482,-3.1482,-3.1796,-3.2492,-3.2532,-3.2841,-3.3495,-3.3547,-3.3836,-3.4528,-3.4576,-3.4861,-3.5414,-3.409,0.0,0.0,0.0,0.0,0.0,0.0,0.0,0.0,0.0,0.0,0.0,0.0,0.0,0.0,0.0,0.0,0.0,0.0,0.0,0.0,0.0,0.0,0.0,0.0,0.0,0.0,0.0,0.0,-2.8863,-2.88,0.0,-2.8637,-2.8002,-2.7619,-2.7582,-2.6952,-2.6578,-2.6462,-2.5772,-2.5787,-2.6472,-2.6778,-2.7267,-2.8096,-2.8096,-2.8426,-2.9197,-2.8858,-2.9106,-2.9792,-2.9792,-2.9792,-2.9792,-2.9792,-2.9792,-2.9869,-3.0419,-3.0355,-2.9819,-3.039,-3.098,-3.1553,-3.2435,-3.3398,-3.4436,-3.4722,-3.51,-3.5504,-3.5504,-3.5026,-3.4307,-3.3604,-3.3395,-3.344,-3.3664,-3.4068,-3.4502,-3.4726,-3.5145,-3.5504,-3.5504,-3.5504,-3.5504,-3.5504,-3.513,-3.4936,-3.5415,-3.4233,-3.314,-3.314,-3.3664,-3.3634,-3.2302,-3.2287,-3.2422,-3.2422,-3.1898,-3.1682,-3.2176,-3.2216,-3.2477,-3.3182,-3.3235,-3.3547,-3.4186,-3.4235,-3.4528,-3.5207,-3.5253,-3.5362,-3.5577,-3.5098,-3.4117,0.0,0.0,0.0,0.0,0.0,0.0,0.0,0.0,0.0,0.0,0.0,0.0,0.0,0.0,0.0,0.0,0.0,0.0,0.0,0.0,0.0,0.0,0.0,0.0,0.0,-2.7017,-2.7959,-2.8335,-2.821,-2.8247,-2.8612,-2.8486,-2.8536,-2.89,-2.8786,-2.8518,-2.8096,-2.7452,-2.7046,-2.7046,-2.7763,-2.8255,-2.8688,-2.8688,-2.9028,-2.9792,-2.9028,-2.9106,-2.9792,-2.9792,-2.9578,-2.9252,-2.9628,-2.9796,-2.9817,-3.0813,-3.1044,-3.0846,-3.1756,-3.2522,-3.3171,-3.4177,-3.492,-3.5504,-3.5504,-3.5504,-3.5504,-3.5504,-3.5504,-3.5504,-3.5504,-3.5668,-3.5894,-3.5894,-3.5894,-3.5958,-3.6196,-3.607,-3.5958,-3.6196,-3.6258,-3.6258,-3.6258,-3.5906,-3.5661,-3.6166,-3.5338,-3.441,-3.3895,-3.4744,-3.5003,-3.3365,-3.2935,-3.2631,-3.243,-3.187,-3.162,-3.2154,-3.2613,-3.3198,-3.3887,-3.3451,-3.3681,-3.4861,-3.4476,-3.4643,-3.5543,-3.5131,-3.4979,-3.5233,-3.4996,-3.4457,-3.3727,0.0,0.0,0.0,0.0,0.0,0.0,0.0,0.0,0.0,0.0,0.0,0.0,0.0,0.0,0.0,0.0,0.0,0.0,0.0,0.0,0.0,0.0,0.0,-2.4936,-2.6276,-2.7293,-2.7306,-2.777,-2.8109,-2.8109,-2.8586,-2.8913,-2.8925,-2.9453,-2.9263,-2.8176,-2.814,-2.8116,-2.8116,-2.8116,-2.8627,-2.9741,-2.9779,-2.9792,-2.9792,-2.9792,-2.9792,-2.9792,-2.9792,-2.9202,-2.8222,-2.9391,-2.9728,-2.9667,-3.0791,-3.1815,-3.2749,-3.3671,-3.4027,-3.4095,-3.5133,-3.5504,-3.5489,-3.5459,-3.5474,-3.5504,-3.5504,-3.5504,-3.5504,-3.5504,-3.6054,-3.6615,-3.66,-3.6676,-3.6783,-3.7573,-3.7203,-3.6843,-3.7632,-3.7822,-3.7822,-3.7822,-3.6694,-3.6079,-3.7492,-3.7203,-3.6181,-3.4762,-3.5162,-3.4944,-3.285,-3.1836,0.0,-3.05,-3.1027,-3.1469,-3.1518,-3.275,-3.3838,-3.4576,-3.3291,-3.3338,-3.5476,-3.4269,-3.4117,-3.5554,-3.4235,-3.3812,-3.4549,-3.3855,-3.448,-3.6493,0.0,0.0,0.0,0.0,0.0,0.0,0.0,0.0,0.0,0.0,0.0,0.0,0.0,0.0,0.0,0.0,0.0,0.0,0.0,0.0,0.0,-2.7628,-2.7773,-2.7523,-2.7372,-2.7431,-2.7833,-2.8009,-2.8109,-2.8109,-2.8247,-2.8499,-2.89,-2.9076,-2.9187,-2.9341,-2.8521,-2.8076,-2.8076,-2.8076,-2.8238,-2.8561,-2.9377,-2.9792,-2.9792,-2.9792,-2.9792,-2.9792,-2.9792,-2.9628,-2.9416,-3.034,-3.0786,-3.0864,-3.254,-3.338,-3.3671,-3.3876,-3.4027,-3.4095,-3.5133,-3.5504,-3.537,-3.4382,-3.4696,-3.5504,-3.5504,-3.5504,-3.5619,-3.6117,-3.6446,-3.6722,-3.7338,-3.7456,-3.7515,-3.7748,-3.7632,-3.7515,-3.7764,-3.7822,-3.7822,-3.7822,-3.746,-3.7301,-3.7742,-3.8076,-3.7988,-3.7007,-3.7058,-3.6813,-3.5681,-3.4902,0.0,-3.3525,-3.3173,-3.3157,-3.3648,-3.3141,-3.3425,-3.517,-3.3973,-3.3842,-3.5476,-3.5233,-3.5199,-3.5605,-3.5233,-3.5256,-3.5872,-3.5466,-3.5603,0.0,0.0,0.0,0.0,0.0,0.0,0.0,0.0,0.0,0.0,0.0,0.0,0.0,0.0,0.0,0.0,0.0,0.0,0.0,0.0,0.0,0.0,-2.8126,-2.8733,-2.8741,-2.7708,-2.7055,-2.7381,-2.7419,-2.7419,-2.7419,-2.762,-2.7896,-2.821,-2.8662,-2.9076,-2.9415,-2.9038,-2.8599,-2.8122,-2.8561,-2.8586,-2.8109,-2.9227,-2.9792,-2.9792,-2.9792,-2.9792,-2.9792,-2.9792,-2.9745,0.0,-3.076,-3.1401,-3.1819,-3.3374,-3.4245,0.0,0.0,0.0,0.0,0.0,-3.5504,-3.54,-3.4607,-3.507,-3.5943,-3.5943,-3.618,-3.6538,-3.698,-3.6911,-3.6724,-3.7189,-3.688,-3.6627,-3.7567,-3.7606,-3.7572,-3.8521,-3.8778,-3.8778,-3.8778,-3.8264,-3.8019,-3.8663,-3.8623,0.0,-3.8339,-3.7773,-3.6914,-3.561,-3.4756,-3.4056,-3.3372,-3.342,-3.3656,-3.4043,-3.3889,-3.4242,-3.5493,-3.4269,0.0,0.0,0.0,-3.4762,-3.5002,-3.5511,0.0,0.0,0.0,-3.647,-3.7399,0.0,0.0,0.0,-3.8086,-3.733,0.0,0.0,0.0,0.0,0.0,0.0,0.0,0.0,0.0,0.0,0.0,0.0,0.0,0.0,0.0,0.0,-2.8612,-2.8681,-2.9101,-2.767,-2.6589,-2.6533,-2.6533,-2.6533,-2.6533,-2.6904,-2.7218,-2.7281,-2.8185,-2.8775,-2.8837,0.0,0.0,0.0,0.0,-2.9063,-2.8109,-2.9227,-2.9792,-2.9792,-2.9792,-2.9792,-2.9792,-2.9792,-2.973,-2.9773,-3.0877,-3.1846,-3.2651,-3.3715,-3.4691,-3.5504,-3.5504,-3.5504,-3.5489,-3.534,-3.537,-3.5474,-3.5454,0.0,0.0,-3.6737,-3.7219,-3.7822,-3.7921,-3.7481,-3.6946,-3.7065,-3.6141,-3.5611,-3.7627,-3.7636,-3.76,-3.9649,-4.007,-4.007,-4.007,-3.9005,-3.8413,-3.9698,-3.8853,-3.8108,-3.8751,-3.7855,-3.6346,-3.4263,-3.3292,-3.2563,-3.1961,-3.2907,-3.366,-3.366,0.0,0.0,-3.5605,-3.4269,-3.4049,-3.561,-3.4542,-3.4024,-3.4523,-3.561,-3.5599,-3.4298,-3.574,-3.7487,-3.9404,-4.0219,-4.1361,-4.2734,-4.0173,-3.9278,0.0,0.0,0.0,0.0,0.0,0.0,0.0,0.0,0.0,0.0,0.0,0.0,0.0,0.0,0.0,-2.934,-2.9708,-2.9921,-3.0043,-2.8556,-2.7229,-2.6589,-2.6533,-2.6533,-2.6533,-2.6553,-2.6804,-2.7256,-2.7482,-2.7795,-2.8235,-2.7519,-2.7205,-2.7431,-2.7657,-2.7883,-2.8109,-2.9227,-2.9792,-2.9792,0.0,0.0,-2.9792,-2.9792,-3.0164,-3.0923,-3.1924,-3.2821,-3.3749,-3.4802,-3.5344,-3.5504,-3.5504,-3.5504,-3.537,-3.4292,-3.4577,-3.5469,-3.5018,-3.5612,-3.6737,-3.7338,-3.769,-3.7921,-3.8525,-3.8602,0.0,-3.9243,-3.9211,-3.9109,-3.958,-3.9531,-3.9548,-4.0003,-4.007,-4.007,-4.007,-3.9394,-3.887,-3.9157,-3.8497,-3.7956,-3.8091,-3.8362,-3.8058,-3.6397,-3.6033,-3.5628,-3.4897,-3.5009,-3.5182,-3.5182,-3.4387,-3.432,-3.552,-3.4269,-3.4227,-3.6121,-3.6364,-3.6503,-3.6635,-3.722,-3.7412,-3.7106,-3.8452,-3.9703,-4.0738,-4.1544,-4.2422,-4.3321,-4.2338,-4.1694,0.0,0.0,0.0,0.0,0.0,0.0,0.0,0.0,0.0,0.0,0.0,-2.7625,-2.7625,0.0,-2.8801,-2.9475,-2.9826,-3.0046,-3.0242,-2.9192,-2.8051,-2.7229,-2.6782,-2.6533,-2.6533,-2.6533,-2.6647,-2.6854,-2.713,-2.7406,-2.7682,-2.7431,-2.7155,-2.6879,-2.7406,-2.7557,-2.7281,-2.8398,-2.895,-2.895,-2.895,-2.9163,-2.9571,-2.9571,-3.0336,-3.1723,-3.2526,-3.3364,-3.4288,-3.5145,-3.5504,-3.5504,-3.5504,-3.5504,-3.5429,-3.4756,-3.5145,-3.6026,-3.5751,-3.6342,-3.7246,-3.7672,-3.7829,-3.7939,-3.8319,-3.7836,-3.7351,-3.7725,-3.7313,-3.6907,-3.7652,-3.7855,-3.8041,-3.8819,-3.8988,-3.8988,-3.8988,-3.87,-3.8447,-3.8447,-3.8159,-3.7787,-3.7398,-3.7652,-3.7635,-3.6891,-3.6451,-3.6062,-3.5673,-3.581,-3.6028,-3.6028,-3.5576,-3.5625,-3.6329,-3.5746,-3.5705,-3.6751,-3.7285,-3.7542,-3.7542,-3.8032,-3.83,-3.83,-3.9768,-4.0708,-4.1111,-4.2304,-4.3112,-4.3479,-4.3214,-4.2958,0.0,0.0,0.0,0.0,0.0,0.0,0.0,-3.0721,-2.9564,-2.9624,-2.8953,-2.8338,-2.8338,-2.8338,-2.8697,-2.9789,-2.9968,-3.0089,-3.0498,-2.9766,-2.8939,-2.8051,-2.7095,-2.6533,-2.6533,-2.6533,-2.6533,-2.6533,-2.6866,-2.7118,-2.7118,-2.7544,-2.7431,-2.671,-2.7482,-2.757,-2.6791,-2.7657,-2.8109,-2.8109,-2.8109,-2.8579,-2.9381,-2.9381,-3.0392,-3.2105,-3.2847,-3.3612,-3.4322,-3.4891,-3.5115,-3.5115,-3.5115,-3.5115,-3.5145,-3.5578,-3.5978,-3.6414,-3.6761,-3.7158,-3.7587,-3.776,-3.7886,-3.7905,-3.7905,-3.7043,-3.6062,-3.6062,-3.5199,-3.4556,-3.5757,-3.6062,-3.6383,-3.7601,-3.7905,-3.7905,-3.7905,-3.7787,-3.7686,-3.7686,-3.7567,-3.731,-3.6837,-3.6718,-3.6673,-3.6598,-3.6101,-3.5739,-3.5739,-3.6207,-3.658,-3.658,-3.696,-3.719,-3.719,-3.7285,-3.7323,-3.7323,-3.7808,-3.8065,-3.8065,-3.8465,-3.8707,-3.8707,-4.0139,-4.0946,-4.1111,-4.2561,-4.3332,-4.3497,-4.3497,-4.3497,-3.0838,-2.9041,-2.8437,-2.918,-3.0751,-3.1823,0.0,-3.1846,-3.2565,-3.0829,-3.0754,-3.1091,-3.1091,-3.1091,-3.1135,-3.1228,-3.1315,-3.1317,-3.1379,-3.0644,-2.9827,-2.8939,-2.7484,-2.6533,-2.6533,-2.6533,-2.6533,-2.6533,-2.6584,-2.6622,-2.6622,-2.6684,-2.6816,-2.718,-2.7306,-2.7557,-2.7921,-2.8047,-2.8109,-2.8109,-2.8109,-2.8579,-2.9381,-2.9381,-3.0392,-3.2155,-3.3033,-3.3528,-3.3604,-3.3679,-3.3724,-3.3724,-3.3724,-3.3724,-3.3982,-3.5768,-3.6121,-3.5851,-3.7196,-3.7281,-3.6933,-3.7634,-3.7908,-3.7905,-3.7905,-3.7787,-3.7652,-3.7652,-3.7533,-3.7432,-3.7601,-3.7652,-3.7702,-3.7872,-3.7905,-3.7905,-3.7905,-3.7381,-3.6907,-3.6907,-3.6349,-3.596,-3.6362,-3.6429,-3.6277,-3.5785,-3.6079,-3.6291,-3.6291,-3.6764,-3.7097,-3.7097,-3.7135,-3.719,-3.719,-3.7578,-3.7825,-3.7825,-3.8318,-3.8627,-3.8627,-3.8658,-3.8707,-3.8707,-3.957,-4.0396,-4.1111,-4.2011,-4.28,-4.3497,-4.3497,-4.3497,-3.1115,-3.0852,-3.1182,-3.1499,-3.2899,-3.409,-3.3537,-3.3829,-3.3958,-3.3112,-3.2525,-3.212,-3.212,-3.1162,-3.0657,-3.1347,-3.0896,-3.0657,-3.1377,-3.0389,-2.938,-2.9066,-2.666,-2.5034,-2.5034,-2.59,-2.6131,-2.5096,-2.5912,-2.6533,-2.6533,-2.6533,-2.6634,-2.6804,-2.6804,-2.6917,-2.7143,-2.7155,-2.7411,-2.7872,-2.7872,-2.8584,-2.9942,-2.9942,-3.0793,-3.2323,-3.272,-3.314,-3.3499,-3.3499,-3.3499,-3.3499,-3.3499,-3.3759,-3.4208,-3.5043,-3.5471,-3.5751,-3.6776,-3.697,-3.6798,-3.7135,-3.6941,-3.6569,-3.6569,-3.6569,-3.6569,-3.6569,-3.6569,-3.6569,-3.6569,-3.6569,-3.6569,-3.6569,-3.6569,-3.6569,-3.6569,-3.657,-3.6551,-3.6551,-3.6558,-3.6603,-3.6843,-3.6882,-3.6803,-3.6545,-3.6724,-3.6882,-3.6882,-3.7285,-3.7738,-3.805,-3.805,-3.805,-3.805,-3.8234,-3.8382,-3.8382,-3.8596,-3.8707,-3.8707,-3.8707,-3.8707,-3.8707,-3.9478,-4.0065,-4.0396,-4.168,-4.247,-4.28,-4.3277,-4.3497,-3.107,-3.1462,-3.1969,-3.2769,-3.3829,-3.481,-3.5216,-3.4948,-3.4576,-3.4576,-3.3531,-3.2586,-3.2586,-3.1217,-3.0432,-3.1317,-3.0746,-3.0447,-3.1405,-3.0269,-2.9129,-2.8595,-2.6056,-2.391,-2.2912,-2.4619,-2.5473,-2.4732,-2.5787,-2.6533,-2.6533,-2.6533,-2.6533,-2.6533,-2.6533,-2.6533,-2.6533,-2.6533,-2.6905,-2.767,-2.767,-2.862,-3.0329,-3.0524,-3.122,-3.2243,-3.2243,-3.2512,-3.2961,-3.2961,-3.2961,-3.2946,-3.3171,-3.3554,-3.4012,-3.4375,-3.4997,-3.578,-3.647,-3.6582,-3.6451,-3.6451,-3.6079,-3.5622,-3.5622,-3.5622,-3.5622,-3.5622,-3.5622,-3.5622,-3.5622,-3.5622,-3.5622,-3.5783,-3.581,-3.5854,-3.6011,-3.6333,-3.6603,-3.6603,-3.6943,-3.7248,-3.736,-3.7396,-3.7433,-3.7596,-3.7596,-3.756,-3.7396,-3.7808,-3.8267,-3.8658,-3.8707,-3.8707,-3.8707,-3.8707,-3.8707,-3.8707,-3.8707,-3.8707,-3.8707,-3.8707,-3.8707,-3.8707,-3.9276,-3.9706,-4.0001,-4.118,-4.2036,-4.2606,-4.318,-4.3523,-3.0487,-2.9189,-2.8122,-3.1183,-3.2175,-3.2747,-3.4201,-3.458,-3.4576,-3.4576,-3.3531,-3.2586,-3.2586,-3.1977,-3.1422,-3.1467,-3.1437,-3.1437,-3.1467,-3.0777,-2.9554,-2.7583,-2.6067,-2.3772,-2.0292,-2.2447,-2.472,-2.6332,-2.6496,-2.6533,-2.6533,-2.6533,-2.6533,-2.6533,-2.6533,-2.6533,-2.6533,-2.6533,-2.6905,-2.767,-2.767,-2.862,-3.0329,-3.1087,-3.1482,-3.1497,-3.1497,-3.1511,-3.1541,-3.1541,-3.1541,-3.1642,-3.2333,-3.2664,-3.2796,-3.4102,-3.5005,-3.5745,-3.6538,-3.6299,-3.5656,-3.5656,-3.5639,-3.5622,-3.5622,-3.5622,-3.5622,-3.5622,-3.5622,-3.5622,-3.5622,-3.5622,-3.5739,-3.6266,-3.6392,-3.6539,-3.7038,-3.7173,-3.719,-3.719,-3.7173,-3.7323,-3.779,-3.7859,-3.8065,-3.8596,-3.8658,-3.8465,-3.7946,-3.835,-3.8676,-3.8707,-3.8707,-3.8707,-3.8707,-3.8707,-3.8707,-3.8707,-3.8707,-3.8707,-3.8707,-3.8707,-3.8707,-3.8707,-3.8726,-3.9239,-4.0272,-4.0328,-4.1343,-4.3265,-4.3302,-4.3548,-2.7712,-2.8953,-3.0552,-3.1603,-3.2662,-3.3528,-3.3727,-3.3775,-3.3795,-3.3795,-3.2327,-3.1068,-3.118,-2.9782,-2.9016,-3.0068,-2.949,-2.952,-3.1228,-2.8864,-2.7329,-2.831,-2.5383,-2.3534,-2.4155,-2.4092,-2.3766,-2.3201,-2.5209,-2.6533,-2.6533,-2.6533,-2.6533,-2.6533,-2.6533,-2.6782,-2.7284,-2.7284,-2.7986,-2.9442,-2.995,-3.0524,-3.1087,-3.1409,-3.1482,-3.1482,-3.1482,-3.1482,-3.1482,-3.1482,-3.1482,-3.1582,-3.2327,-3.2895,-3.3391,-3.4284,-3.4996,-3.5639,-3.5903,-3.5842,-3.5622,-3.5622,-3.5622,-3.5622,-3.5622,-3.5622,-3.5622,-3.5622,-3.5622,-3.5622,-3.5622,-3.5622,-3.5739,-3.6266,-3.6374,-3.6539,-3.7058,-3.7433,-3.7649,-3.7649,-3.7964,-3.8252,-3.8382,-3.8433,-3.8496,-3.8658,-3.8707,-3.8627,-3.8465,-3.8578,-3.8707,-3.8707,-3.8707,-3.8707,-3.8707,-3.8707,-3.8707,-3.8707,-3.8707,-3.8773,-3.8961,-3.8961,-3.9082,-3.9275,-3.932,-3.9483,-3.9846,-4.0365,-4.0979,-4.1688,-4.2781,-4.3389,-2.7827,-2.9682,-3.1625,-3.2168,-3.2998,-3.3632,-3.3351,-3.3328,-3.3406,-3.3406,-3.1945,-3.0551,-3.0199,-2.8794,-2.8046,-2.9064,-2.8697,-2.9041,-3.1168,-2.8682,-2.7044,-2.8221,-2.5116,-2.3454,-2.4872,-2.4381,-2.3552,-2.246,-2.4368,-2.5586,-2.5586,-2.5586,-2.585,-2.6508,-2.6782,-2.704,-2.7297,-2.7855,-2.8876,-3.0329,-3.1087,-3.1482,-3.1482,-3.1482,-3.115,-3.0522,-3.1168,-3.1135,-3.0537,-3.1183,-3.1482,-3.1582,-3.2586,-3.3235,-3.3684,-3.464,-3.5207,-3.5622,-3.5622,-3.5622,-3.5622,-3.5622,-3.5622,-3.5622,-3.5622,-3.5622,-3.5622,-3.5622,-3.5622,-3.5622,-3.5622,-3.5739,-3.6011,-3.6563,-3.6825,-3.7097,-3.7632,-3.7964,-3.8183,-3.8183,-3.8465,-3.8707,-3.8707,-3.8707,-3.8707,-3.8707,-3.8707,-3.8707,-3.8707,-3.8707,-3.8707,-3.8707,-3.8707,-3.8707,-3.8707,-3.8707,-3.875,-3.8844,-3.8844,-3.8961,-3.9282,-3.9264,-3.9364,-3.9599,-3.9599,-3.9645,-3.9775,-4.0302,-4.0745,-4.1195,-4.2563,-4.3316,-3.0411,-3.1091,-3.1325,-3.2805,-3.3117,-3.2988,-3.2951,-3.3151,-3.3313,-3.3186,-3.2154,-3.0828,-2.9492,-2.8713,-2.8299,-2.8472,-2.8966,-2.9804,-3.1138,-2.9872,-2.8415,-2.7294,-2.5358,-2.3676,-2.2623,-2.3489,-2.4092,-2.4004,0.0,-2.413,-2.413,-2.413,-2.4845,-2.6483,-2.7229,-2.7284,-2.6589,-2.8247,-2.9504,-3.0389,-3.1161,-3.1482,-3.1482,-3.1482,-3.0507,-2.8861,-3.0731,-3.0477,-2.8891,-3.0761,-3.1524,-3.1682,-3.3077,-3.3633,-3.3786,-3.5115,-3.5622,-3.5622,-3.5622,-3.5622,-3.5622,-3.5622,-3.5622,-3.5622,-3.5622,-3.5622,-3.5622,-3.5622,-3.5622,-3.5667,-3.5667,-3.6054,-3.658,-3.715,-3.7632,-3.8138,-3.8706,-3.8836,-3.8836,-3.8836,-3.8799,-3.8762,-3.8707,-3.8707,-3.8707,-3.8707,-3.8707,-3.8707,-3.8707,-3.8707,-3.8707,-3.8707,-3.8707,-3.8707,-3.8719,-3.8719,-3.8844,-3.9099,-3.9125,-3.9264,-3.9622,-3.9622,-3.9622,-3.9645,-3.9645,-3.9797,-4.012,-4.012,-4.069,-4.1758,-4.2662,-4.3348,-2.8815,-3.0814,-3.304,-3.3164,-3.3158,-3.2983,-3.2264,-3.2165,-3.1823,-3.0404,-2.8938,-2.7425,-2.5825,-2.4537,-2.4451,-2.6763,-2.6422,-2.6545,-2.8498,-2.7276,-2.6106,-2.5778,-2.5048,-2.4846,-2.5375,-2.5661,-2.5322,-2.4092,-2.5134,-2.5837,-2.5837,-2.5837,-2.6025,-2.6508,-2.6714,-2.6973,-2.7417,-2.9129,-3.0389,-3.1219,-3.1409,-3.1482,-3.1482,-3.1482,-3.1198,-3.0821,-3.1258,-3.1198,-3.0821,-3.133,-3.1796,-3.2367,-3.3287,-3.3887,-3.4431,-3.5316,-3.5622,-3.5622,-3.5622,-3.5622,-3.5622,-3.5622,-3.5622,-3.5622,-3.5622,-3.5622,-3.5622,-3.5622,-3.5898,-3.6182,-3.6182,-3.6603,-3.7276,-3.8366,-3.8707,-3.9097,-4.0244,-4.0506,-4.0506,-4.0506,-4.001,-3.9405,-3.8799,-3.8707,-3.8707,-3.8707,-3.8707,-3.8707,-3.8707,-3.8707,-3.8707,-3.8707,-3.8707,-3.8773,-3.8971,-3.8999,-3.9144,-3.9438,-3.9462,-3.9622,-3.9962,-3.9982,-4.0081,-4.0266,-4.0266,-4.0319,-4.0389,-4.0389,-4.0556,-4.0873,-4.2393,-4.3167,-3.0485,-3.2082,-3.3707,-3.3302,-3.3214,-3.2786,-3.1219,-3.082,-3.03,-2.837,-2.6952,-2.5579,-2.4035,-2.297,-2.3071,-2.5363,-2.56,-2.6005,-2.7482,-2.6623,-2.5758,-2.5628,-2.4944,-2.5001,-2.637,-2.6533,-2.6076,-2.5146,-2.5259,-2.5385,-2.5385,-2.5385,-2.5711,-2.6508,-2.685,-2.7604,-2.8812,-2.9442,-3.0329,-3.1482,-3.1482,-3.1482,-3.1482,-3.1482,-3.1004,-3.0283,0.0,-3.1046,-3.0313,-3.149,-3.2231,-3.2695,-3.3633,-3.4284,-3.4688,-3.5362,-3.5622,-3.5622,-3.5622,-3.5622,-3.5622,-3.5622,-3.5622,-3.5622,-3.5622,-3.5783,-3.5941,-3.5941,-3.6333,-3.6834,-3.7184,-3.7648,-3.8312,-3.9355,-3.9802,-4.0172,-4.0936,-4.1111,-4.1111,-4.1111,-4.0744,-4.0175,-3.9368,-3.9239,-3.9111,-3.8762,-3.8707,-3.8732,-3.8855,-3.8884,-3.8884,-3.8884,-3.9008,-3.9163,-3.9308,-3.9314,-3.9462,-3.9797,-3.9819,-3.9963,-4.025,-4.0286,-4.0356,-4.0489,-4.0489,-4.0489,-4.0489,-4.0489,-4.0489,-4.0527,-4.2297,-4.3104,-3.3066,-3.3515,-3.355,-3.3273,-3.3136,-3.2545,-3.0381,-2.9728,-2.9022,-2.7013,-2.576,-2.4638,-2.3311,-2.2832,-2.3038,-2.4298,-2.555,-2.6391,-2.6592,-2.6525,-2.6229,-2.558,-2.4615,-2.4644,-2.637,-2.6332,-2.6294,-2.6508,-2.5134,-2.4318,-2.4318,-2.4318,-2.4983,-2.6483,-2.7297,-2.8492,-3.0133,-2.9504,-2.995,-3.1482,-3.1482,-3.1482,-3.1482,-3.1482,-3.0612,-2.9086,-3.0791,0.0,-2.9169,-3.1496,-3.2586,-3.2841,-3.4037,-3.4592,-3.4783,-3.5362,-3.5622,-3.5622,-3.5622,-3.5622,-3.5622,-3.5622,-3.5622,-3.5622,-3.5622,-3.5968,-3.6374,-3.6374,-3.6913,-3.7605,-3.8318,-3.8941,-3.9551,-4.0383,-4.0935,-4.1295,-4.1405,-4.1423,-4.1405,-4.1295,-4.1277,-4.1001,-4.0194,-4.0065,-3.979,-3.8982,-3.8885,-3.8973,-3.909,-3.9099,-3.9125,-3.916,-3.9432,-3.9622,-3.9668,-3.9668,-3.9797,-4.0139,-4.0158,-4.0269,-4.0489,-4.0489,-4.0489,-4.0489,-4.0489,-4.0489,-4.0489,-4.0489,-4.0489,-4.0527,-4.2297,-4.3104,-3.1495,-3.1996,-3.2809,-3.3105,-3.2921,-3.2413,-3.1585,-3.0491,-2.8955,-2.6668,-2.5107,-2.3793,-2.2682,-2.2408,-2.2722,-2.3772,-2.4567,-2.4215,-2.1863,-2.4215,-2.5236,-2.2592,-2.3321,-2.4644,-2.637,-2.5234,-2.4996,-2.6433,-2.6269,-2.6105,-2.6105,-2.6105,-2.6231,-2.6521,-2.7297,-2.8182,-2.9192,-2.9766,-3.0524,-3.1482,-3.1482,-3.1482,-3.1482,-3.1482,-3.1287,-3.1046,-3.1317,0.0,-3.1046,-3.1489,-3.2367,-3.3443,-3.3684,-3.4447,-3.5453,-3.5577,-3.5622,-3.5622,-3.5622,-3.5622,-3.5622,-3.5622,-3.5622,-3.5622,-3.5622,-3.5968,-3.6374,-3.6374,-3.7538,-3.878,-3.8924,-3.9854,-4.0976,-4.1763,-4.2017,-4.2268,-4.2928,-4.3075,-4.2892,-4.2213,-4.2084,-4.1846,-4.1038,-4.0891,-4.0616,-3.9808,-3.9882,-3.9798,-3.9173,-3.9099,-3.9231,-3.9462,-3.9576,-3.9712,-4.0002,-4.0002,-4.012,-4.0406,-4.0441,-4.0457,-4.0489,-4.0489,-4.0489,-4.0489,-4.0489,-4.0489,-4.0489,-4.0489,-4.0489,-4.0527,-4.2297,-4.3104,-3.0886,-3.1507,-3.2484,-3.2466,-3.2484,-3.1927,-2.9661,-2.8782,-2.7543,-2.443,-2.3031,-2.2148,-2.1412,-2.0778,-2.1038,-2.2828,-2.3626,-2.3618,-2.2548,-2.4235,-2.5014,-2.3422,-2.369,-2.4318,-2.5096,-2.4469,-2.433,-2.5121,-2.5184,-2.5548,-2.6483,-2.6533,-2.6533,-2.6533,-2.6837,-2.767,-2.9002,-2.938,-3.0269,-3.1482,-3.1482,-3.1482,-3.1482,-3.1482,-3.1482,-3.1482,-3.1482,0.0,-3.0425,-3.1975,-3.2534,-3.2544,-3.4052,-3.5005,-3.5622,-3.5622,-3.5622,-3.5622,-3.5622,-3.5622,-3.5622,-3.5622,-3.5622,-3.5622,-3.5622,-3.6165,-3.6803,-3.6803,-3.8114,-3.9607,-4.0026,-4.0928,-4.1937,-4.2727,-4.291,-4.302,-4.3406,-4.3497,-4.3387,-4.3002,-4.291,-4.2671,-4.1864,-4.1735,-4.1507,-4.0873,-4.0884,-4.0801,-4.0316,-4.0249,-4.0163,-3.9897,-3.9984,-4.0138,-4.0285,-4.0321,-4.0356,-4.0489,-4.0489,-4.0489,-4.0489,-4.0489,-4.0489,-4.0489,-4.0489,-4.0489,-4.0489,-4.0489,-4.0719,-4.12,-4.2508,-4.3316,-3.0815,-3.1401,-3.2144,-3.1861,-3.2004,-3.1341,-2.7947,-2.7161,-2.6136,-2.2663,-2.1359,-2.0793,-2.0647,-1.9718,-1.9721,-2.1981,-2.2451,-2.2768,-2.3418,-2.4144,-2.4538,-2.4339,-2.3926,-2.3802,-2.4161,-2.3876,-2.3941,-2.4494,-2.4531,-2.5096,-2.6458,-2.6533,-2.6533,-2.6533,-2.6658,-2.7484,-2.9002,-2.9192,-3.0011,-3.1482,-3.1482,-3.1482,-3.1482,-3.1482,-3.1482,-3.1539,-3.1697,0.0,0.0,-3.2364,-3.2692,-3.1594,-3.4308,-3.547,-3.5622,-3.5622,-3.5622,-3.5622,-3.5622,-3.5622,-3.5622,-3.5622,-3.5622,-3.5622,-3.5739,-3.644,-3.721,-3.7323,-3.8703,-4.0304,-4.0946,-4.1827,-4.2708,-4.3332,-4.3497,-4.3497,-4.3497,-4.3497,-4.3497,-4.3497,-4.3497,-4.3296,-4.2671,-4.261,-4.2474,-4.1938,-4.1987,-4.1958,-4.1623,-4.1628,-4.1437,-4.0807,-4.0603,-4.0489,-4.0489,-4.0489,-4.0489,-4.0489,-4.0489,-4.0489,-4.0489,-4.0489,-4.0489,-4.0489,-4.0489,-4.0489,-4.0489,-4.0489,-4.095,-4.1816,-4.2701,-4.3528,-3.1252,-3.1499,-3.1389,-3.1733,-3.1582,-3.0866,-2.918,-2.7477,-2.5638,-2.3495,-2.1634,-2.0613,-2.1416,-2.0676,-2.0347,-2.1592,-2.0579,-2.0006,-2.0919,-2.1908,-2.2586,-2.2731,-2.2674,-2.3209,-2.473,-2.3561,-2.3639,-2.6113,-2.6294,-2.637,-2.6521,-2.6533,-2.6533,-2.6533,-2.7229,-2.8051,-2.9002,-2.9766,-3.0644,-3.1482,-3.1482,-3.1482,-3.1482,-3.1482,-3.1482,-3.1539,-3.2216,0.0,0.0,-3.2364,-3.2692,-3.155,-3.3799,-3.5052,-3.5622,-3.5622,-3.5622,-3.5622,-3.5622,-3.5622,-3.5622,-3.5622,-3.5622,-3.5694,-3.6182,-3.6724,-3.7285,-3.772,-3.9358,-4.102,-4.1093,-4.2249,-4.3406,-4.3461,-4.3497,-4.3497,-4.3497,-4.3497,-4.3497,-4.3497,-4.3497,-4.3461,-4.3387,-4.3629,-4.3595,-4.2816,-4.3209,-4.3335,-4.2581,-4.2736,-4.2898,-4.2821,-4.1431,-4.0489,-4.0489,-4.0489,-4.0489,-4.0489,-4.0489,-4.0489,-4.0489,-4.0489,-4.0489,-4.0489,-4.0489,-4.0489,-4.0489,-4.0489,-4.095,-4.1816,-4.2701,-4.3528,-2.8696,-2.9935,-3.123,-3.1389,-3.1061,-3.0042,-2.7785,-2.6389,-2.4781,-2.203,-2.0824,-2.0347,-2.0489,-1.931,-1.8779,0.0,0.0,-1.9175,-2.1055,-2.1934,-2.2583,-2.3052,-2.3132,-2.2948,-2.2628,-2.2535,-2.3171,-2.4856,-2.4983,-2.541,-2.6483,-2.6533,-2.6533,-2.6533,-2.7297,-2.8117,-2.9002,-2.9889,-3.0703,-3.1482,-3.1482,-3.1482,-3.1482,-3.1482,-3.1482,-3.1539,-3.1796,0.0,0.0,-3.1992,-3.2136,-3.0262,-3.3835,-3.5362,-3.5622,-3.5622,-3.5622,-3.5622,-3.5622,-3.5622,-3.565,-3.5985,-3.6097,-3.6139,-3.635,-3.6981,-3.7649,-3.7859,-3.9101,-4.0487,-4.0983,-4.2286,-4.3497,-4.3497,-4.3497,-4.3497,-4.3497,-4.3497,-4.3497,-4.3497,-4.3497,-4.3563,-4.3791,-4.3893,-4.4034,-4.4159,-4.4406,-4.4359,-4.3713,-4.3745,-4.3643,-4.3143,-4.2008,-4.1277,-4.1277,-4.0796,-4.0489,-4.0489,-4.0489,-4.0489,-4.0489,-4.0489,-4.0489,-4.0489,-4.0489,-4.0489,-4.0489,-4.1027,-4.1739,-4.2604,-4.3431,-4.4259,-2.7008,-2.8727,-3.0699,-3.0878,-3.0186,-2.887,-2.6627,-2.5216,-2.3666,-2.0864,-2.0227,-1.9984,-1.9551,-1.8208,-1.7692,0.0,0.0,-1.8487,-2.095,-2.153,-2.1962,-2.2623,-2.2728,-2.2358,-2.1403,-2.2433,-2.3682,-2.4655,-2.4732,-2.5234,-2.6471,-2.6533,-2.6533,-2.6533,-2.7297,-2.8117,-2.9002,-2.9643,-3.0426,-3.1225,-3.1046,-3.0642,-3.0088,-3.0687,-3.0627,-3.0103,-3.0895,0.0,0.0,-3.163,-3.1818,-3.0006,-3.3812,-3.5419,-3.5622,-3.5622,-3.5622,-3.5622,-3.5622,-3.5622,-3.565,-3.6054,-3.6374,-3.6661,-3.6661,-3.7248,-3.7928,-3.8099,-3.9163,-4.0432,-4.1258,-4.247,-4.3497,-4.3497,-4.3497,-4.3497,-4.3497,-4.3497,-4.3497,-4.3497,-4.3563,-4.3726,-4.3955,-4.4175,-4.4489,-4.5011,-4.518,-4.5093,-4.4722,-4.4682,-4.447,-4.3893,-4.3066,-4.245,-4.22,-4.1623,-4.1258,-4.1258,-4.1258,-4.1258,-4.1258,-4.1258,-4.1258,-4.1258,-4.1258,-4.1258,-4.1258,-4.1893,-4.2624,-4.347,-4.4047,-4.4759,-2.7001,-2.8388,-2.954,-3.0166,-2.886,-2.7211,-2.6307,-2.4309,-2.2186,-2.0627,-2.0,-1.9551,-1.9006,-1.8026,-1.7685,-1.8835,0.0,0.0,-2.0079,-2.0104,-2.0103,-2.0748,-2.0846,-2.1113,-2.1922,-2.3795,-2.5417,-2.6427,-2.6496,0.0,-2.6533,-2.6533,-2.6533,-2.6533,-2.7297,-2.8117,-2.9002,-2.9217,-2.9682,-3.0507,-2.9894,-2.8562,-2.6707,-2.8697,-2.8517,-2.6801,0.0,0.0,0.0,-3.1279,-3.1974,-3.1393,-3.3626,-3.4962,-3.5622,-3.5622,-3.5622,-3.5622,-3.5622,-3.5622,-3.5622,-3.5622,-3.6316,-3.7173,-3.7173,-3.7506,-3.8013,-3.8546,-3.9863,-4.1277,-4.2084,-4.2892,-4.3497,-4.3497,-4.3497,-4.3497,-4.3497,-4.3497,-4.3497,-4.3497,-4.3772,-4.4016,-4.4016,-4.4612,-4.5096,-4.5096,-4.5381,-4.5586,-4.5586,-4.5586,-4.5566,-4.5566,-4.4778,-4.3951,-4.3143,-4.3085,-4.3066,-4.3066,-4.3066,-4.3066,-4.3066,-4.3066,-4.3066,-4.3066,-4.3066,-4.3066,-4.3066,-4.3085,-4.3508,-4.4297,-4.4297,-4.4759,-2.4324,-2.5593,-2.6711,-2.6909,-2.6174,-2.5131,-2.3984,-2.2814,-2.1599,-2.0182,-1.95,-1.9095,-1.893,-1.8018,-1.7576,-1.8402,-1.7807,0.0,-1.9629,-1.9732,-1.9948,-2.0591,-2.0677,-2.1295,-2.2892,-2.2596,-2.3475,-2.6296,-2.541,-2.5096,-2.5837,-2.5875,-2.5875,-2.5875,-2.7194,-2.7878,-2.7773,-2.89,-2.9644,-2.9864,-2.9669,-2.8532,-2.6662,-2.8667,-2.8487,0.0,0.0,0.0,0.0,-3.1218,-3.1648,-3.0683,-3.2882,-3.4201,-3.4844,-3.4844,-3.5182,-3.5622,-3.5622,-3.5622,-3.5739,-3.644,-3.6904,-3.734,-3.8016,-3.8318,-3.8465,-3.8658,-3.946,-4.0469,-4.1277,-4.2084,-4.2818,-4.3369,-4.3497,-4.3497,-4.3497,-4.3497,-4.3563,-4.3804,-4.3924,-4.4175,-4.4663,-4.4943,-4.518,-4.5419,-4.5531,-4.5586,-4.5586,-4.5586,-4.5586,-4.5586,-4.5336,-4.4836,-4.3989,-4.3412,-4.3104,-4.3104,-4.3104,-4.3104,-4.3104,-4.3104,-4.3104,-4.3104,-4.3104,-4.3104,-4.3104,-4.3643,-4.4355,-4.5182,-4.5182,-4.5009,-2.242,-2.366,-2.4776,-2.5012,-2.4257,-2.3286,-2.2742,-2.1758,-2.0654,-1.962,-1.9473,-1.9344,-1.8747,-1.8422,-1.8164,-1.791,-1.8072,-1.8298,-1.8581,-1.8832,-1.9124,-1.9576,-1.9883,-2.0868,-2.2744,-2.232,-2.3075,-2.573,-2.5099,-2.4895,-2.5561,-2.541,-2.5209,-2.4996,-2.6479,-2.7277,-2.7207,-2.8264,-2.8976,-2.9205,-2.8951,-2.7769,-2.5914,-2.7919,-2.7739,0.0,0.0,0.0,0.0,-3.0761,-3.1332,-3.1072,-3.2442,-3.344,-3.4117,-3.4387,-3.4793,-3.5233,-3.552,-3.5739,-3.6011,-3.6684,-3.7135,-3.7632,-3.8433,-3.8707,-3.8707,-3.8707,-3.9276,-4.0084,-4.0891,-4.1699,-4.2506,-4.3296,-4.3497,-4.3497,-4.3497,-4.3497,-4.3597,-4.3924,-4.4117,-4.4401,-4.4988,-4.5201,-4.5362,-4.5568,-4.5586,-4.5586,-4.5586,-4.5586,-4.5586,-4.5586,-4.5586,-4.5374,-4.4836,-4.4335,-4.4047,-4.4047,-4.4047,-4.4047,-4.4047,-4.4047,-4.4047,-4.4047,-4.4047,-4.4047,-4.4047,-4.422,-4.4412,-4.4662,-4.4662,-4.4374,0.0,-2.2372,-2.3438,-2.4045,-2.2802,-2.1648,-2.2198,-2.0898,0.0,-1.9104,-1.9843,-2.0104,-1.8608,-1.9219,-1.9326,-1.7408,-1.843,-1.8916,-1.7324,-1.7676,-1.8066,-1.7978,-1.8799,-2.0008,-2.1668,-2.2785,-2.3795,-2.4886,-2.5264,-2.5494,-2.5485,-2.5021,-2.4506,-2.3954,-2.5257,-2.6304,-2.7069,-2.7384,-2.7764,-2.8308,-2.7814,-2.6452,-2.4448,-2.6602,-2.6497,0.0,0.0,0.0,0.0,-3.0123,-3.1099,-3.2205,-3.2205,-3.2662,-3.3406,-3.4083,-3.437,-3.4523,-3.5311,-3.5899,-3.6347,-3.6481,-3.7155,-3.8065,-3.8546,-3.8707,-3.8707,-3.8707,-3.9239,-3.9992,-4.0818,-4.1625,-4.2415,-4.3222,-4.3442,-4.3497,-4.3497,-4.3497,-4.3597,-4.3986,-4.4346,-4.4707,-4.5074,-4.5381,-4.5586,-4.5586,-4.5586,-4.5586,-4.5586,-4.5586,-4.5586,-4.5586,-4.5586,-4.5586,-4.5586,-4.5586,-4.5586,-4.5586,-4.5586,-4.5586,-4.5586,-4.5586,-4.5586,-4.5586,-4.5528,-4.5509,-4.5509,-4.4643,-4.3835,-4.3104,-4.3104,-4.3066,-1.9459,0.0,-2.064,-2.0775,-2.0198,-1.9584,0.0,-1.908,-1.8787,-1.9958,-2.008,-1.9874,-1.9462,-2.0669,-2.0699,-1.7747,-1.8985,-1.9705,-1.8031,-1.8448,-1.8623,-1.7646,-1.915,-2.0392,-2.0547,-2.1627,-2.2919,-2.4294,-2.451,-2.4493,-2.4355,-2.4255,-2.3929,-2.3364,-2.4222,-2.5097,-2.5826,-2.6997,-2.6887,-2.5585,-2.6931,-2.5749,-2.2503,-2.5989,-2.6497,0.0,0.0,0.0,-2.9496,-3.0559,-3.1156,-3.1444,-3.1444,-3.1901,-3.256,-3.273,-3.3169,-3.3804,-3.4964,-3.5469,-3.5779,-3.7109,-3.7998,-3.8546,-3.8658,-3.8707,-3.8707,-3.8707,-3.8836,-3.9166,-3.9974,-4.0781,-4.1589,-4.2396,-4.3039,-4.3497,-4.3497,-4.3497,-4.3679,-4.4337,-4.4527,-4.4781,-4.5381,-4.555,-4.5586,-4.5586,-4.5586,-4.5586,-4.5586,-4.5586,-4.5586,-4.5586,-4.5586,-4.5586,-4.5586,-4.5586,-4.5586,-4.5586,-4.5586,-4.5586,-4.5586,-4.5586,-4.5586,-4.5586,-4.4951,-4.4605,-4.4605,-4.3778,-4.3278,-4.3104,-4.3104,-4.2739,-1.8535,-1.893,-1.9465,-1.9991,-1.9339,-1.8722,-1.9501,-1.9044,-1.8864,-2.0295,-2.0382,-2.0182,-2.0205,-2.0673,-2.0394,-1.8337,-1.872,-1.9009,-1.8152,-1.8242,-1.8154,-1.7461,-1.8398,-1.9189,0.0,-2.0824,-2.2196,-2.3455,-2.3497,-2.3675,-2.3967,-2.3753,-2.3452,-2.3078,-2.4221,-2.5007,-2.5398,-2.6549,-2.6278,-2.4612,-2.6632,-2.5989,-2.3146,-2.6183,-2.6991,0.0,0.0,0.0,-2.9416,-2.9559,-3.026,-3.119,-3.119,-3.1427,-3.1833,-3.2195,-3.2689,-3.3374,-3.4375,-3.5273,-3.6201,-3.7778,-3.8465,-3.8707,-3.8707,-3.8707,-3.8707,-3.8707,-3.8707,-3.8891,-3.968,-4.0506,-4.1313,-4.2121,-4.291,-4.3497,-4.3497,-4.3497,-4.3712,-4.4447,-4.458,-4.4806,-4.5475,-4.5586,-4.5586,-4.5586,-4.5586,-4.5586,-4.5586,-4.5586,-4.5586,-4.5586,-4.5586,-4.5586,-4.5586,-4.5586,-4.5586,-4.5586,-4.5586,-4.5586,-4.5586,-4.5586,-4.5586,-4.5586,-4.4739,-4.4124,-4.3739,-4.2912,-4.2297,-4.1912,-4.1912,-4.1643,-1.7987,-1.8302,-1.8963,-2.016,-1.9293,-1.8536,-2.0093,-1.9619,-1.9199,-2.056,-2.0849,-2.0862,-2.0936,-2.0673,-2.0076,-1.894,-1.8222,-1.7846,-1.7968,-1.7822,-1.7607,-1.7402,-1.7676,-1.8115,-1.8626,-2.0288,-2.1728,-2.2573,-2.2674,-2.3023,-2.3804,-2.3401,-2.3078,-2.3078,-2.461,-2.5398,-2.5398,-2.6229,-2.5965,-2.4612,-2.6632,-2.6542,-2.4642,-2.6677,-2.766,-2.772,0.0,0.0,-2.9484,-2.8665,-2.9465,-3.119,-3.119,-3.119,-3.1275,-3.1884,-3.2366,-3.2855,-3.3873,-3.5349,-3.7015,-3.829,-3.8707,-3.8707,-3.8707,-3.8707,-3.8707,-3.8707,-3.8707,-3.8854,-3.9533,-4.0414,-4.1277,-4.1956,-4.2818,-4.3497,-4.3497,-4.3497,-4.3712,-4.4447,-4.458,-4.4806,-4.5475,-4.5586,-4.5586,-4.5586,-4.5586,-4.5586,-4.5586,-4.5586,-4.5586,-4.5586,-4.5586,-4.5586,-4.5586,-4.5586,-4.5586,-4.5586,-4.5586,-4.5586,-4.5586,-4.5586,-4.5528,-4.5393,-4.4547,-4.372,-4.2893,-4.2027,-4.1219,-4.0489,-4.0489,-4.0489,-1.7435,-1.7463,-1.7921,-1.951,-1.9046,-1.8495,-1.9661,-1.9063,-1.9037,-2.1504,-2.2034,-2.2072,-2.2046,-2.3186,-2.2897,-1.8873,-1.8071,-1.7986,-1.7988,-1.8584,-1.8594,-1.751,-1.8975,-1.9836,-1.9282,-2.0448,-2.1582,-2.2476,-2.2527,-2.2714,-2.3228,-2.3128,-2.3078,-2.3078,-2.461,-2.5398,-2.5398,-2.6759,-2.6475,-2.4612,-2.6632,-2.6542,-2.4642,-2.6677,-2.786,-2.84,0.0,-2.9366,-3.0192,-3.0549,-3.0869,-3.119,-3.119,-3.119,-3.1207,-3.1326,-3.1399,-3.1803,-3.4002,-3.5903,-3.7497,-3.8401,-3.8707,-3.8707,-3.8707,-3.8707,-3.8707,-3.8707,-3.8707,-3.8726,-3.8854,-3.9992,-4.1148,-4.1258,-4.2415,-4.3497,-4.3497,-4.3497,-4.3712,-4.4447,-4.458,-4.4806,-4.5475,-4.5586,-4.5586,-4.5586,-4.5586,-4.5586,-4.5586,-4.5586,-4.5586,-4.5586,-4.5586,-4.5586,-4.5586,-4.5586,-4.5586,-4.5586,-4.5586,-4.5586,-4.5586,-4.5586,-4.524,-4.4509,-4.3701,-4.2854,-4.2008,-4.1123,-4.0623,-4.0489,-4.0489,-4.0489,-1.6879,-1.7111,-1.781,-1.9804,-1.9032,-1.8536,-2.1409,-2.0269,-1.961,-2.2975,-2.1919,-2.0734,-2.1919,-2.1568,-2.0413,-1.8385,-1.8794,-1.9228,-1.8769,-1.8838,-1.8721,-1.8135,0.0,-1.9213,-1.9316,-2.0027,-2.1036,-2.2403,-2.2313,-2.244,-2.309,-2.3078,-2.3305,-2.3708,-2.4838,-2.5563,-2.6014,-2.7086,-2.6572,-2.4612,-2.6632,-2.6542,-2.4642,-2.6677,-2.7944,-2.8449,0.0,-2.8592,-3.0252,-2.9626,-3.0091,-3.119,-3.119,-3.119,-3.123,-3.1449,-3.1528,-3.1832,-3.3912,-3.5421,-3.6668,-3.7711,-3.834,-3.8707,-3.8707,-3.8707,-3.8707,-3.8707,-3.8707,-3.8707,-3.8707,-3.957,-4.0561,-4.102,-4.2011,-4.2965,-4.3406,-4.3497,-4.3646,-4.4165,-4.4447,-4.4776,-4.5243,-4.5495,-4.5586,-4.5586,-4.5586,-4.5586,-4.5586,-4.5586,-4.5586,-4.5586,-4.5586,-4.5586,-4.5586,-4.5586,-4.5586,-4.5586,-4.5586,-4.5586,-4.5586,-4.5143,-4.4701,-4.4316,-4.3047,-4.22,-4.1797,-4.0931,-4.0489,-4.0489,-4.0489,-4.0489,-1.6522,-1.6936,-1.7877,-1.9949,-1.9108,-1.8857,-2.305,-2.1518,-2.0275,-2.4042,-2.2135,-2.0249,-2.2013,-1.9994,-1.8171,-1.8301,-1.9404,-2.0107,-1.9648,-1.9297,-1.9053,-1.8945,-1.8652,-1.8774,-1.9677,-2.003,-2.0863,-2.2536,-2.2354,-2.2445,-2.3078,-2.3078,-2.3484,-2.4292,-2.5007,-2.5728,-2.651,-2.7255,-2.6811,-2.533,-2.6841,-2.6782,-2.5375,-2.7018,-2.814,-2.8654,-2.7492,-2.8347,-3.0385,-2.9127,-2.9634,-3.119,-3.119,-3.119,-3.123,-3.1545,-3.1733,-3.202,-3.3669,-3.4691,-3.5566,-3.7009,-3.7918,-3.845,-3.8652,-3.8707,-3.8707,-3.8707,-3.8707,-3.8707,-3.8707,-3.9294,-4.0047,-4.0671,-4.1589,-4.247,-4.3075,-4.3369,-4.3597,-4.3924,-4.4233,-4.4606,-4.503,-4.5322,-4.5513,-4.5586,-4.5586,-4.5586,-4.5586,-4.5586,-4.5586,-4.5586,-4.5586,-4.5586,-4.5586,-4.5586,-4.5586,-4.5586,-4.5413,-4.5297,-4.5297,-4.447,-4.3912,-4.372,-4.245,-4.17,-4.1489,-4.0835,-4.0489,-4.0489,-4.0489,-4.0489,-1.6522,-1.6936,-1.779,-1.9447,-1.9384,-1.9798,-2.3226,-2.1794,-2.0715,-2.4117,-2.3729,-2.2874,-2.3168,-2.093,-1.9039,-1.9187,-1.9297,-1.9639,-2.0371,-2.0449,-2.0273,-1.9873,-1.9795,-2.0091,-2.1007,-2.1086,-2.164,-2.2983,-2.303,-2.3017,-2.3078,-2.3078,-2.3484,-2.4292,-2.5007,-2.5728,-2.651,-2.7255,-2.755,-2.7415,-2.755,-2.755,-2.7415,-2.8112,-2.8779,-2.9361,-2.9815,-3.0427,-3.1134,-3.1021,-3.1055,-3.119,-3.119,-3.119,-3.119,-3.123,-3.147,-3.2001,-3.3282,-3.4089,-3.4829,-3.6826,-3.7533,-3.7716,-3.8469,-3.8707,-3.8707,-3.8707,-3.8707,-3.8707,-3.8707,-3.9294,-3.99,-3.9955,-4.1167,-4.2323,-4.2378,-4.2965,-4.3597,-4.3924,-4.4028,-4.4261,-4.4988,-4.5118,-4.5243,-4.555,-4.5586,-4.5586,-4.5586,-4.5586,-4.5586,-4.5586,-4.5586,-4.5586,-4.5586,-4.5586,-4.5586,-4.5586,-4.4836,-4.4393,-4.4393,-4.3624,-4.2816,-4.2008,-4.1873,-4.1393,-4.0585,-4.0527,-4.0489,-4.0489,-4.0489,-4.0489,-1.6961,-1.7463,-1.8455,-2.0778,-2.0426,-2.0388,-2.374,-2.2611,-2.1794,-2.5146,-2.3455,-2.1045,-1.9761,-1.9358,-1.9153,-1.8867,-1.9561,-2.0195,-2.0518,-2.0332,-2.0098,-1.9932,-1.9935,-2.0219,-2.1141,-2.143,-2.2017,-2.303,-2.3078,-2.3078,-2.3078,-2.3603,-2.4221,-2.4951,-2.5673,-2.6443,-2.7203,-2.7458,-2.7625,-2.7625,-2.7625,-2.7625,-2.7625,-2.786,-2.8448,-2.9406,-2.9629,-3.0309,-3.119,-3.119,-3.119,-3.119,-3.119,-3.119,-3.119,-3.119,-3.1291,-3.1579,-3.2616,-3.3395,-3.4264,-3.6163,-3.7074,-3.7643,-3.8469,-3.8707,-3.8707,-3.8707,-3.8707,-3.8707,-3.8707,-3.8927,-3.9276,-3.9772,-4.0359,-4.1075,-4.2084,-4.2543,-4.2959,-4.3586,-4.3849,-4.4087,-4.4373,-4.4806,-4.514,-4.5263,-4.5476,-4.5586,-4.5586,-4.5586,-4.5586,-4.5586,-4.5586,-4.5586,-4.5586,-4.5586,-4.5355,-4.4816,-4.447,-4.4297,-4.4297,-4.3008,-4.2143,-4.1816,-4.1277,-4.0835,-4.0489,-4.0489,-4.0489,-4.0489,-4.0489,-4.0489,-1.7539,-1.8041,-1.8995,-2.1242,-2.079,-2.0677,-2.4054,-2.31,-2.2334,-2.5335,-2.3523,-2.0876,-1.9116,-1.9094,-1.9189,-1.8887,-1.959,-2.0205,-2.0342,-2.0315,-2.0242,-1.9962,-2.0149,-2.0584,-2.1357,-2.1689,-2.2261,-2.3017,-2.3078,-2.3078,-2.3078,-2.3884,-2.4624,-2.5398,-2.6122,-2.6878,-2.7575,-2.7625,-2.7625,-2.7625,-2.7625,-2.7625,-2.7625,-2.781,-2.8448,-2.9406,-2.9585,-3.0251,-3.119,-3.119,-3.119,-3.119,-3.119,-3.119,-3.119,-3.119,-3.119,-3.1329,-3.2196,-3.2854,-3.3588,-3.5337,-3.645,-3.7257,-3.8083,-3.8505,-3.8707,-3.8707,-3.8707,-3.8707,-3.8707,-3.8707,-3.8836,-3.9386,-3.9717,-4.0194,-4.1295,-4.1735,-4.2084,-4.2635,-4.2922,-4.312,-4.3204,-4.395,-4.457,-4.4696,-4.5228,-4.5586,-4.5586,-4.5586,-4.5586,-4.5586,-4.5586,-4.5586,-4.5586,-4.5336,-4.4932,-4.4335,-4.3797,-4.3508,-4.3508,-4.2143,-4.1393,-4.1393,-4.0796,-4.0489,-4.0489,-4.0489,-4.0489,-4.0489,-4.0489,-4.0489,-1.8229,-1.8618,-1.9296,-2.0401,-2.0238,-2.069,-2.4029,-2.3088,-2.2133,-2.4368,-2.4117,-2.3201,-2.2353,-2.0603,-1.936,-1.935,-1.9287,-1.9434,-1.9844,-2.0619,-2.0844,-2.0017,-2.0706,-2.1379,-2.1862,-2.1877,-2.2249,-2.3065,-2.3078,-2.3078,-2.3138,-2.3884,-2.4624,-2.5398,-2.6122,-2.6878,-2.7575,-2.7625,-2.7625,-2.7625,-2.7625,-2.7625,-2.7625,-2.8238,-2.8826,-2.9451,-3.0021,-3.0658,-3.119,-3.119,-3.119,-3.119,-3.119,-3.119,-3.119,-3.119,-3.119,-3.1329,-3.2179,-3.2484,-3.2773,-3.4451,-3.5587,-3.6431,-3.7239,-3.8046,-3.8689,-3.8707,-3.8707,-3.8707,-3.8707,-3.8707,-3.8707,-3.8707,-3.9313,-3.9882,-3.99,-4.0524,-4.1111,-4.1111,-4.1111,-4.1204,-4.1518,-4.2524,-4.3426,-4.3819,-4.4863,-4.5586,-4.5586,-4.5586,-4.5586,-4.5586,-4.5586,-4.5586,-4.5586,-4.4797,-4.4297,-4.4297,-4.272,-4.1797,-4.1797,-4.095,-4.0489,-4.0489,-4.0489,-4.0489,-4.0489,-4.0489,-4.0489,-4.0489,-4.0489,-4.0489,-1.9623,-1.9497,-1.9384,-2.0878,-2.1117,-2.1255,-2.2246,-2.256,-2.3062,-2.4519,-2.402,-2.3033,-2.1832,-2.1981,-2.1858,-2.0528,-2.0597,-2.0876,-2.125,-2.072,-2.0413,-2.0739,-2.1331,-2.1729,-2.1901,-2.2384,-2.2823,-2.3065,-2.3078,-2.3365,-2.3884,-2.4681,-2.5398,-2.6176,-2.6878,-2.7357,-2.7625,-2.7625,-2.7625,-2.7625,-2.7625,-2.781,-2.8238,-2.8415,-2.9042,-3.0021,-3.0208,-3.0658,-3.119,-3.119,-3.119,-3.119,-3.119,-3.119,-3.119,-3.119,-3.119,-3.1291,-3.1806,-3.223,-3.274,-3.4153,-3.4936,-3.5661,-3.7055,-3.7661,-3.7955,-3.8542,-3.8707,-3.8707,-3.8707,-3.8707,-3.8707,-3.8707,-3.8891,-3.9203,-3.9772,-4.0084,-4.0414,-4.1001,-4.1111,-4.1126,-4.1217,-4.1922,-4.2516,-4.2612,-4.3808,-4.4913,-4.5509,-4.5586,-4.5586,-4.5586,-4.5586,-4.5586,-4.5586,-4.4797,-4.4066,-4.3489,-4.2412,-4.1797,-4.1797,-4.095,-4.0489,-4.0489,-4.0489,-4.0489,-4.0489,-4.0489,-4.0489,-4.0489,-4.0489,-4.0489,-2.0727,-2.0514,-2.0464,-2.2347,-2.2146,-2.1606,-2.2046,-2.2661,-2.3577,-2.5146,-2.4688,-2.3756,-2.2934,-2.3052,-2.2842,-2.1733,-2.1563,-2.1615,-2.1618,-2.1229,-2.1097,-2.143,-2.1993,-2.2384,-2.2384,-2.2823,-2.3078,-2.3078,-2.3424,-2.3767,-2.4292,-2.5287,-2.6068,-2.651,-2.7203,-2.7625,-2.7625,-2.7625,-2.7625,-2.7625,-2.7625,-2.791,-2.8511,-2.8511,-2.9134,-3.0293,-3.0559,-3.0878,-3.119,-3.119,-3.119,-3.119,-3.119,-3.119,-3.119,-3.119,-3.119,-3.1269,-3.166,-3.2004,-3.242,-3.3539,-3.4304,-3.5038,-3.6567,-3.7239,-3.7661,-3.8469,-3.8707,-3.8707,-3.8707,-3.8707,-3.8707,-3.8707,-3.8707,-3.8836,-3.9313,-3.9423,-3.957,-4.0065,-4.0157,-4.0157,-4.0157,-4.0849,-4.1449,-4.1599,-4.3157,-4.4489,-4.5009,-4.5374,-4.5586,-4.5586,-4.5586,-4.5451,-4.5105,-4.4316,-4.347,-4.2643,-4.1777,-4.1277,-4.1277,-4.0777,-4.0489,-4.0489,-4.0489,-4.0489,-4.0489,-4.0489,-4.0489,-4.0489,-4.0489,-4.0489,-2.1606,-2.1556,-2.1983,-2.4017,-2.2987,-2.1832,-2.3138,-2.3303,-2.3891,-2.6025,-2.566,-2.5027,-2.5075,-2.3885,-2.2965,-2.2804,-2.2351,-2.1812,-2.144,-2.1974,-2.2337,-2.2061,-2.2628,-2.3078,-2.3078,-2.3078,-2.3138,-2.3185,-2.3884,-2.435,-2.4509,-2.5783,-2.651,-2.6616,-2.7255,-2.7625,-2.7625,-2.7625,-2.7625,-2.7625,-2.7625,-2.791,-2.8511,-2.8559,-2.9225,-3.0435,-3.0958,-3.119,-3.119,-3.119,-3.119,-3.119,-3.119,-3.119,-3.119,-3.119,-3.119,-3.1252,-3.164,-3.1789,-3.1986,-3.2809,-3.364,-3.4552,-3.5754,-3.6714,-3.7551,-3.8358,-3.8652,-3.8707,-3.8707,-3.8707,-3.8707,-3.8707,-3.8707,-3.8707,-3.8707,-3.8707,-3.8707,-3.8707,-3.8707,-3.8707,-3.8707,-3.9581,-4.0416,-4.0868,-4.2737,-4.4105,-4.4182,-4.4874,-4.5355,-4.5355,-4.5355,-4.5047,-4.4259,-4.3451,-4.2643,-4.1854,-4.0969,-4.0489,-4.0489,-4.0489,-4.0489,-4.0489,-4.0489,-4.0489,-4.0489,-4.0489,-4.0489,-4.0489,-4.0489,-4.0489,-2.2548,-2.2146,-2.1606,-2.2083,-2.1845,-2.2234,-2.5096,-2.5084,-2.4845,-2.6189,-2.5627,-2.4954,-2.5418,-2.5179,-2.4688,-2.3867,-2.303,-2.2574,-2.2677,-2.2294,-2.2258,-2.2775,-2.3005,-2.3078,-2.3078,-2.3078,-2.3365,-2.4002,-2.4176,0.0,-2.596,-2.6336,-2.6774,-2.7357,-2.7524,-2.7625,-2.7625,-2.7625,-2.7625,0.0,-2.7625,-2.791,-2.8511,-2.9012,-2.9848,-3.1015,-3.1151,-3.119,-3.119,-3.119,-3.119,-3.119,-3.119,-3.119,-3.119,-3.119,-3.119,-3.123,-3.1291,-3.1787,-3.2298,-3.2161,-3.293,-3.4026,-3.4624,-3.5629,-3.6725,-3.7514,-3.8212,-3.8707,-3.8707,-3.8707,-3.8707,-3.8707,-3.8707,-3.8707,-3.8707,-3.8707,-3.8707,-3.8707,-3.8707,-3.8707,-3.8707,-3.9071,-3.9802,-4.1024,-4.1856,-4.2585,-4.3278,-4.3528,-4.3643,-4.3643,-4.3643,-4.3566,-4.3374,-4.2566,-4.2008,-4.1816,-4.0969,-4.0489,-4.0489,-4.0489,-4.0489,-4.0489,-4.0489,-4.0489,-4.0489,-4.0489,-4.0489,-4.0489,-4.0489,-4.0489,-2.2184,-2.2309,-2.241,-2.2949,-2.3477,-2.4192,-2.5398,-2.5636,-2.5686,-2.5988,-2.5586,-2.5272,-2.5548,-2.5172,-2.4644,-2.4092,-2.3368,-2.296,-2.3055,-2.2763,-2.2628,-2.3078,-2.3078,-2.3245,-2.3662,-2.3649,-2.3989,-2.4794,0.0,-2.5673,-2.6457,-2.6826,-2.7188,-2.7575,-2.7625,-2.7625,-2.7625,-2.7625,-2.7625,-2.7625,-2.7625,-2.791,-2.8511,-2.9406,-3.0166,-3.0797,-3.1055,-3.119,-3.119,-3.119,-3.119,-3.119,-3.119,-3.119,-3.119,-3.119,-3.119,-3.119,-3.119,-3.1504,-3.186,-3.1825,-3.2415,-3.334,-3.4171,-3.5005,-3.5936,-3.7147,-3.779,-3.8212,-3.8597,-3.8707,-3.8707,-3.8707,-3.8707,-3.8707,-3.8707,-3.8707,-3.8707,-3.8707,-3.8707,-3.8707,-3.8707,-3.9045,-3.9613,-4.0369,-4.1226,-4.197,-4.2431,-4.2835,-4.3104,-4.3104,-4.3104,-4.2931,-4.2508,-4.2066,-4.1623,-4.12,-4.0739,-4.0489,-4.0489,-4.0489,-4.0489,-4.0489,-4.0489,-4.0489,-4.0489,-4.0489,-4.0489,-4.0489,-4.0489,-4.0489,-2.1493,-2.2297,-2.3341,-2.4544,-2.536,-2.5749,-2.5222,-2.5661,-2.6101,-2.5799,-2.5661,-2.5536,-2.5347,-2.4594,-2.3966,-2.3866,-2.3452,-2.3078,-2.3078,-2.3078,-2.3078,-2.3078,-2.3185,-2.3603,-2.4234,-2.4408,-2.4794,-2.5508,0.0,-2.6563,-2.6669,-2.7255,-2.7625,-2.7625,-2.7625,-2.7625,-2.7625,-2.7625,-2.7625,-2.7625,-2.7625,-2.786,-2.8367,-2.9496,-3.0107,-3.0335,-3.0935,-3.119,-3.119,-3.119,-3.119,-3.119,-3.119,-3.119,-3.119,-3.119,-3.119,-3.119,-3.119,-3.1269,-3.1351,-3.1603,-3.2074,-3.2707,-3.3773,-3.4467,-3.5209,-3.667,-3.7276,-3.7643,-3.8322,-3.8597,-3.8707,-3.8707,-3.8707,-3.8707,-3.8707,-3.8707,-3.8707,-3.8707,-3.8707,-3.8707,-3.8707,-3.9136,-3.9529,-3.9599,-4.0692,-4.1517,-4.1585,-4.222,-4.2643,-4.2643,-4.2643,-4.2354,-4.1643,-4.1585,-4.1277,-4.0546,-4.0489,-4.0489,-4.0489,-4.0489,-4.0489,-4.0489,-4.0489,-4.0489,-4.0489,-4.0489,-4.0489,-4.0489,-4.0489,-4.0489,-2.1493,-2.2297,-2.3341,-2.4544,-2.4192,-2.4042,-2.5837,-2.5624,-2.5285,-2.6163,-2.5937,-2.531,-2.4381,-2.4092,-2.3841,-2.3339,-2.3128,-2.3078,-2.3078,-2.3078,-2.3078,-2.3078,-2.3721,-2.4176,-2.4292,-2.4908,-2.5563,0.0,-2.6457,-2.6774,-2.7408,-2.7575,-2.7625,-2.7625,-2.7625,-2.7625,-2.7625,-2.7625,-2.7625,-2.7625,-2.7625,-2.761,-2.776,-2.8415,-2.9316,-3.0335,-3.0935,-3.119,-3.119,-3.119,-3.119,-3.119,-3.119,-3.119,-3.119,-3.119,-3.119,-3.119,-3.119,-3.1411,-3.166,-3.1389,-3.1823,-3.2535,-3.2707,-3.3548,-3.4582,-3.5162,-3.6376,-3.7514,-3.7624,-3.8175,-3.8707,-3.8707,-3.8707,-3.8707,-3.8707,-3.8707,-3.8707,-3.8707,-3.8707,-3.8707,-3.8707,-3.8961,-3.9282,-3.9552,-4.0017,-4.0404,-4.0646,-4.0777,-4.0835,-4.0835,-4.0835,-4.0796,-4.0681,-4.0662,-4.0623,-4.0508,-4.0489,-4.0489,-4.0489,-4.0489,-4.0489,-4.0489,-4.0489,-4.0489,-4.0489,-4.0489,-4.0489,-4.0489,-4.0489,-4.0489,-2.2071,-2.2309,-2.2774,-2.5146,-2.4431,-2.3715,-2.595,-2.5611,-2.5046,-2.5812,-2.5548,-2.5021,-2.4544,-2.3941,-2.3427,-2.3115,-2.3078,-2.3078,-2.3078,-2.3484,-2.3767,-2.3767,-2.4452,-2.5063,-2.5508,-2.5837,-2.6336,0.0,-2.71,-2.7255,-2.7575,-2.7625,-2.7625,-2.7625,-2.7625,-2.7625,-2.7625,-2.7625,-2.7625,-2.7625,-2.7625,-2.7625,-2.7625,-2.8238,-2.8966,-2.9805,-3.0435,-3.0878,-3.119,-3.119,-3.119,-3.119,-3.119,-3.119,-3.119,-3.119,-3.119,-3.119,-3.119,-3.1329,-3.1449,-3.1269,-3.162,-3.2179,-3.2417,-3.3059,-3.3906,-3.4759,-3.5881,-3.6927,-3.7367,-3.8102,-3.8707,-3.8707,-3.8707,-3.8707,-3.8707,-3.8707,-3.8707,-3.8707,-3.8707,-3.8707,-3.8707,-3.8923,-3.9212,-3.9552,-3.988,-4.0195,-4.0473,-4.0489,-4.0489,-4.0489,-4.0489,-4.0489,-4.0489,-4.0489,-4.0489,-4.0489,-4.0489,-4.0489,-4.0489,-4.0489,-4.0489,-4.0489,-4.0489,-4.0489,-4.0489,-4.0489,-4.0489,-4.0489,-4.0489,-4.0489,-2.2184,-2.2121,-2.2159,-2.4921,-2.4155,-2.3226,-2.5172,-2.4983,-2.4582,-2.5259,-2.5096,-2.482,-2.482,-2.3891,-2.3078,-2.3078,-2.3078,-2.3185,-2.3365,-2.3943,-2.435,-2.4567,-2.5231,-2.5906,-2.6457,-2.6669,-2.6982,0.0,-2.7625,-2.7625,-2.7625,-2.7625,-2.7625,-2.7625,-2.7625,-2.7625,-2.7625,-2.7625,-2.7625,-2.7625,-2.7625,-2.7625,-2.7625,-2.8042,-2.8591,-2.918,-2.9805,-3.0351,-3.074,-3.0918,-3.0975,-3.0975,-3.1151,-3.119,-3.119,-3.119,-3.119,-3.119,-3.119,-3.119,-3.119,-3.119,-3.1411,-3.1733,-3.2161,-3.2648,-3.3232,-3.4251,-3.5227,-3.6156,-3.6964,-3.779,-3.845,-3.8652,-3.8707,-3.8707,-3.8707,-3.8707,-3.8707,-3.8707,-3.8707,-3.8707,-3.8707,-3.8855,-3.9144,-3.9552,-3.9819,-4.0101,-4.0438,-4.0489,-4.0489,-4.0489,-4.0489,-4.0489,-4.0489,-4.0489,-4.0489,-4.0489,-4.0489,-4.0489,-4.0489,-4.0489,-4.0489,-4.0489,-4.0489,-4.0489,-4.0489,-4.0489,-4.0489,-4.0489,-4.0489,-4.0489,-2.1255,-2.1531,-2.1782,-2.3,-2.2435,-2.1882,-2.3037,-2.3203,-2.3466,-2.4632,-2.4845,-2.482,-2.482,-2.3891,-2.3078,-2.3078,-2.3078,-2.3365,-2.4118,-2.4292,-2.4567,-2.5231,-2.6014,-2.6457,-2.651,-2.7137,-2.7575,0.0,-2.7625,-2.7625,-2.7625,-2.7625,-2.7625,-2.7625,-2.7625,-2.7625,-2.7625,-2.7625,-2.7625,-2.7625,-2.7625,-2.7625,-2.7625,-2.7625,-2.8008,-2.8606,-2.918,-2.9451,-2.954,-3.0123,-3.0351,-3.0393,-3.0975,-3.119,-3.119,-3.119,-3.119,-3.119,-3.119,-3.119,-3.119,-3.119,-3.123,-3.1329,-3.1733,-3.2161,-3.2616,-3.316,-3.4131,-3.5275,-3.6138,-3.6945,-3.7734,-3.8524,-3.8707,-3.8707,-3.8707,-3.8707,-3.8707,-3.8707,-3.8707,-3.8707,-3.8707,-3.8689,-3.8931,-3.9505,-3.9622,-3.9842,-4.0422,-4.0489,-4.0489,-4.0489,-4.0489,-4.0489,-4.0489,-4.0489,-4.0489,-4.0489,-4.0489,-4.0489,-4.0489,-4.0489,-4.0489,-4.0489,-4.0489,-4.0489,-4.0489,-4.0489,-4.0489,-4.0489,-4.0489,-4.0489,-2.1179,-2.0953,-2.084,-2.2673,-2.1757,-2.0878,-2.2723,-2.3078,-2.319,-2.3591,-2.4644,-2.5288,-2.4576,-2.3692,-2.3078,-2.3078,-2.3531,-2.3943,-2.4234,-2.5119,-2.5783,-2.6068,-2.6759,-2.7203,-2.7203,-2.7458,-2.7625,0.0,0.0,-2.6243,-2.755,-2.6378,-2.6258,-2.758,-2.7625,-2.7625,-2.7625,-2.7625,-2.7625,-2.7625,-2.7625,-2.7625,-2.7625,-2.7625,-2.771,-2.7944,-2.8174,-2.867,-2.9406,-2.9629,-2.9935,-3.0293,-3.0518,-3.0878,-3.119,-3.119,-3.119,-3.119,-3.119,-3.119,-3.119,-3.119,-3.119,-3.1291,-3.1696,-3.1933,-3.2196,-3.2965,-3.3882,-3.4739,-3.5329,-3.6486,-3.7679,-3.8505,-3.8707,-3.8707,-3.8707,-3.8707,-3.8707,-3.8707,-3.8707,-3.8707,-3.8707,-3.8707,-3.8833,-3.9231,-3.9462,-3.9757,-4.0195,-4.0389,-4.0489,-4.0489,-4.0489,-4.0489,-4.0489,-4.0489,-4.0489,-4.0489,-4.0489,-4.0489,-4.0489,-4.0489,-4.0489,-4.0489,-4.0489,-4.0489,-4.0489,-4.0489,-4.0489,-4.0489,-4.0489,-4.0489,-2.0715,-2.0376,-2.0162,-2.1644,-2.0903,-2.0188,-2.1681,-2.2598,-2.3078,-2.3078,-2.4566,-2.5608,-2.4971,-2.4227,-2.3808,-2.3852,-2.4105,-2.4452,-2.4951,-2.5892,-2.6616,-2.6826,-2.7306,-2.7625,-2.7625,-2.7625,-2.7625,0.0,0.0,0.0,-2.755,-2.6333,-2.6213,-2.758,-2.7625,-2.7625,-2.7625,-2.7625,-2.7625,-2.7625,-2.7625,-2.7625,-2.7625,-2.7625,-2.7625,-2.7625,-2.7625,-2.8027,-2.881,-2.8996,-2.9316,-2.9717,-3.0123,-3.0518,-3.0918,-3.1112,-3.119,-3.119,-3.119,-3.119,-3.119,-3.119,-3.119,-3.1252,-3.1507,-3.1696,-3.1915,-3.2565,-3.336,-3.4142,-3.467,-3.6142,-3.7624,-3.8175,-3.8505,-3.8707,-3.8707,-3.8707,-3.8707,-3.8707,-3.8707,-3.8707,-3.8707,-3.8707,-3.8773,-3.9044,-3.9408,-3.9731,-4.0061,-4.0339,-4.0489,-4.0489,-4.0489,-4.0489,-4.0489,-4.0489,-4.0489,-4.0489,-4.0489,-4.0489,-4.0489,-4.0489,-4.0489,-4.0489,-4.0489,-4.0489,-4.0489,-4.0489,-4.0489,-4.0489,-4.0489,-4.0489,0.0,0.0,0.0,-1.9798,-1.9798,-1.9798,-1.9798,-2.1506,-2.3088,-2.3088,-2.4457,-2.5688,-2.5897,-2.5493,-2.5247,-2.5439,-2.4851,-2.4851,-2.6283,-2.651,-2.6826,-2.7509,-2.7625,-2.7625,-2.7625,-2.7625,0.0,0.0,-2.7565,-2.7565,-2.7625,-2.7625,-2.7625,-2.7625,-2.7625,-2.7625,-2.7625,-2.7625,-2.7625,-2.7625,-2.7625,-2.7625,-2.7625,-2.7625,-2.7625,-2.7625,-2.7625,-2.7625,-2.7675,-2.8238,-2.8463,-2.8606,-2.9805,-3.0251,-3.0393,-3.0975,-3.119,-3.119,-3.119,-3.119,-3.119,-3.119,-3.119,-3.119,-3.119,-3.147,-3.1789,-3.1789,-3.2466,-3.3364,-3.4176,-3.5927,-3.7489,-3.7477,-3.8102,-3.8707,-3.8707,-3.8707,-3.8707,-3.8707,-3.8707,-3.8707,-3.8707,-3.8707,-3.8773,-3.9063,-3.9364,-3.9731,-4.0042,-4.0339,-4.0489,-4.0489,-4.0489,-4.0489,-4.0489,-4.0489,-4.0489,-4.0489,-4.0489,-4.0489,-4.0489,-4.0489,-4.0489,-4.0489,-4.0489,-4.0489,-4.0489,-4.0489,-4.0489,-4.0489,-4.0489,-4.0489,-1.9911,0.0,0.0,0.0,0.0,0.0,-1.9798,-2.0916,-2.2103,-2.2737,-2.4616,-2.6249,-2.6357,-2.6665,-2.6887,-2.6966,-2.6375,-2.6014,-2.6457,-2.693,-2.7357,-2.7575,-2.7625,-2.7625,-2.7625,-2.7625,0.0,0.0,-2.6243,-2.6063,-2.755,-2.7625,-2.7625,-2.7625,-2.7625,-2.7625,-2.7625,-2.7625,-2.7625,-2.7625,-2.7625,-2.7625,-2.7625,-2.7625,-2.7625,-2.7625,-2.7625,-2.7625,-2.761,-2.776,-2.8091,-2.8511,-2.8873,-2.954,-3.0293,-3.0477,-3.0838,-3.119,-3.119,-3.119,-3.119,-3.119,-3.119,-3.119,-3.119,-3.1291,-3.1411,-3.1733,-3.1986,-3.2542,-3.4033,-3.5526,-3.678,-3.7379,-3.8102,-3.8707,-3.8707,-3.8707,-3.8707,-3.8707,-3.8707,-3.8707,-3.8707,-3.8707,-3.8719,-3.8803,-3.9249,-3.9622,-3.9731,-4.0175,-4.0489,-4.0489,-4.0489,-4.0489,-4.0489,-4.0489,-4.0489,-4.0489,-4.0489,-4.0489,-4.0489,-4.0489,-4.0489,-4.0489,-4.0489,-4.0489,-4.0489,-4.0489,-4.0489,-4.0489,-4.0489,-4.0489,-1.9962,-1.9798,-1.9798,-1.9798,0.0,0.0,-2.0144,-2.1491,-2.2929,0.0,-2.5807,-2.7293,-2.6605,-2.6769,-2.6968,-2.6803,-2.6391,-2.6316,-2.6857,-2.7306,-2.7625,-2.7625,-2.7625,-2.7625,-2.7625,-2.7625,-2.7625,-2.7625,-2.6497,-2.6363,-2.7565,-2.786,-2.786,-2.7625,-2.7625,-2.7625,-2.7625,-2.7625,-2.7625,-2.7625,-2.7625,-2.7625,-2.7625,-2.7625,-2.7625,-2.7625,-2.7625,-2.7625,-2.7625,-2.7625,-2.781,-2.814,-2.8415,-2.8919,-2.9585,-2.9805,-3.0293,-3.0821,-3.0821,-3.1015,-3.119,-3.119,-3.119,-3.119,-3.119,-3.119,-3.1269,-3.147,-3.166,-3.2126,-3.3508,-3.4685,-3.578,-3.6751,-3.7606,-3.8285,-3.8634,-3.8707,-3.8707,-3.8707,-3.8707,-3.8707,-3.8707,-3.8707,-3.8707,-3.8707,-3.9216,-3.9599,-3.9599,-4.0138,-4.0489,-4.0489,-4.0489,-4.0489,-4.0489,-4.0489,-4.0489,-4.0489,-4.0489,-4.0489,-4.0489,-4.0489,-4.0489,-4.0489,-4.0489,-4.0489,-4.0489,-4.0489,-4.0489,-4.0489,-4.0489,-4.0489,-1.9974,-1.9798,-1.9798,-1.9798,-1.9798,0.0,-2.0547,-2.2392,-2.4236,0.0,-2.6962,-2.8047,-2.658,-2.6294,-2.6068,-2.5548,-2.5435,-2.5854,-2.7171,-2.7535,-2.7515,-2.743,-2.7535,-2.7625,-2.7625,-2.7625,-2.7625,-2.7625,-2.7625,-2.7625,-2.7625,-2.8091,-2.814,-2.7625,-2.7625,-2.7625,-2.7625,-2.7625,-2.7625,-2.7625,-2.7625,-2.7625,-2.7625,-2.7625,-2.7625,-2.7625,-2.7625,-2.7625,-2.7625,-2.7625,-2.7625,-2.766,-2.8189,-2.8415,-2.8559,-2.9088,-2.9717,-3.0293,-3.0293,-3.0699,-3.119,-3.119,-3.119,-3.119,-3.119,-3.119,-3.119,-3.119,-3.1507,-3.1986,-3.2903,-3.3749,-3.4697,-3.5886,-3.6835,-3.7679,-3.8414,-3.8634,-3.8707,-3.8707,-3.8707,-3.8707,-3.8707,-3.8707,-3.8707,-3.8707,-3.9216,-3.9599,-3.9599,-4.0138,-4.0489,-4.0489,-4.0489,-4.0489,-4.0489,-4.0489,-4.0489,-4.0489,-4.0489,-4.0489,-4.0489,-4.0489,-4.0489,-4.0489,-4.0489,-4.0489,-4.0489,-4.0489,-4.0489,-4.0489,-4.0489,-4.0489,-2.0075,-1.9798,-1.9798,-1.9798,-1.9798,0.0,-1.9952,-2.0797,-2.199,-2.3661,-2.4817,-2.5741,-2.6406,-2.609,-2.553,-2.4896,-2.4358,-2.4462,-2.5794,-2.6901,-2.7186,-2.6123,-2.6916,-2.7625,-2.7625,-2.7625,-2.7625,-2.7625,-2.7625,-2.7625,-2.7625,-2.771,-2.771,-2.7625,-2.7625,-2.7625,-2.7625,-2.7625,-2.7625,-2.7625,-2.7625,-2.7625,-2.7625,-2.7625,-2.7625,-2.7625,-2.7625,-2.7625,-2.7625,-2.7625,-2.7625,-2.761,-2.771,-2.8091,-2.8511,-2.8654,-2.9361,-3.0293,-3.0293,-3.0699,-3.119,-3.119,-3.119,-3.119,-3.119,-3.119,-3.119,-3.119,-3.1507,-3.1915,-3.2484,-3.3512,-3.4552,-3.5107,-3.6395,-3.7533,-3.7679,-3.823,-3.8707,-3.8707,-3.8707,-3.8707,-3.8707,-3.8707,-3.8707,-3.8707,-3.9216,-3.9599,-3.9599,-4.0138,-4.0489,-4.0489,-4.0489,-4.0489,-4.0489,-4.0489,-4.0489,-4.0489,-4.0489,-4.0489,-4.0489,-4.0489,-4.0489,-4.0489,-4.0489,-4.0489,-4.0489,-4.0489,-4.0489,-4.0489,-4.0489,-4.0489,-2.0112,-1.9798,-1.9798,-1.9798,-2.0055,0.0,0.0,-2.1803,-2.3112,-2.4402,-2.5447,-2.6007,-2.5687,-2.5061,-2.4403,-2.3759,-2.3086,-2.2892,-2.3565,-2.536,-2.6587,-2.6587,-2.7171,-2.7625,-2.7625,-2.7625,-2.771,-2.8042,-2.8042,-2.8174,-2.8496,-2.8222,-2.8042,-2.8042,-2.776,-2.7625,-2.7625,-2.7625,-2.7625,-2.7625,-2.7625,-2.7625,-2.7625,-2.7625,-2.7625,-2.7625,-2.7625,-2.7625,-2.7625,-2.7625,-2.7625,-2.7625,-2.7625,-2.776,-2.8042,-2.8042,-2.881,-2.9848,-2.9848,-3.0435,-3.119,-3.119,-3.119,-3.119,-3.119,-3.119,-3.119,-3.119,-3.1351,-3.164,-3.2316,-3.2965,-3.3696,-3.4749,-3.5661,-3.6486,-3.7312,-3.7808,-3.8212,-3.8615,-3.8707,-3.8707,-3.8707,-3.8707,-3.8707,-3.8707,-3.9216,-3.9599,-3.9599,-4.0138,-4.0489,-4.0489,-4.0489,-4.0489,-4.0489,-4.0489,-4.0489,-4.0489,-4.0489,-4.0489,-4.0489,-4.0489,-4.0489,-4.0489,-4.0489,-4.0489,-4.0489,-4.0489,-4.0489,-4.0489,-4.0489,-4.0489,-2.0075,-1.9798,-1.9798,-1.9798,-2.0194,-2.0782,0.0,0.0,0.0,-2.4917,-2.6016,-2.6318,-2.4732,-2.3879,0.0,-2.2634,0.0,0.0,0.0,-2.352,0.0,-2.6366,-2.6662,-2.6846,-2.6846,-2.7184,-2.7671,-2.8255,-2.8415,-2.8638,-2.9042,-2.8591,-2.8334,-2.8334,-2.786,-2.7625,-2.7625,-2.7625,-2.7625,-2.7625,-2.7625,-2.7625,-2.7625,-2.7625,-2.7625,-2.7625,-2.7625,-2.7625,-2.7625,-2.7625,-2.7625,-2.7625,-2.7625,-2.7625,-2.7625,-2.7625,-2.8319,-2.9225,-2.9361,-3.0123,-3.1055,-3.1151,-3.119,-3.119,-3.119,-3.119,-3.119,-3.119,-3.119,-3.1389,-3.2282,-3.2484,-3.2873,-3.44,-3.488,-3.5357,-3.6725,-3.7257,-3.7679,-3.834,-3.8597,-3.8707,-3.8707,-3.8707,-3.8707,-3.8707,-3.9216,-3.9599,-3.9599,-4.0138,-4.0489,-4.0489,-4.0489,-4.0489,-4.0489,-4.0489,-4.0489,-4.0489,-4.0489,-4.0489,-4.0489,-4.0489,-4.0489,-4.0489,-4.0489,-4.0489,-4.0489,-4.0489,-4.0489,-4.0489,-4.0489,-4.0489,-1.9974,-1.9798,-1.9798,-1.9798,-1.985,-2.0105,-2.0746,0.0,-2.2203,-2.2896,0.0,-2.3984,-2.3759,0.0,0.0,-2.1919,0.0,0.0,-2.162,-2.1964,-2.2203,-2.2338,-2.337,-2.4044,0.0,-2.5618,-2.6919,-2.767,-2.8189,-2.8286,-2.7845,-2.776,-2.771,-2.771,-2.7625,-2.7625,-2.7625,-2.7625,-2.7625,-2.7625,-2.7625,-2.7625,-2.7625,-2.7625,-2.7625,-2.7625,-2.7625,-2.7625,-2.7625,-2.7625,-2.7625,-2.7625,-2.7625,-2.7625,-2.7625,-2.7625,-2.8042,-2.8701,-2.9225,-2.9848,-3.0477,-3.1015,-3.119,-3.119,-3.119,-3.119,-3.119,-3.119,-3.119,-3.1389,-3.2282,-3.2484,-3.2731,-3.3716,-3.4486,-3.5045,-3.5229,-3.645,-3.7544,-3.7606,-3.8212,-3.8707,-3.8707,-3.8707,-3.8707,-3.8707,-3.9216,-3.9599,-3.9599,-4.0138,-4.0489,-4.0489,-4.0489,-4.0489,-4.0489,-4.0489,-4.0489,-4.0489,-4.0489,-4.0489,-4.0489,-4.0489,-4.0489,-4.0489,-4.0489,-4.0489,-4.0489,-4.0489,-4.0489,-4.0489,-4.0489,-4.0489,-2.0765,-2.1181,-2.1432,-2.0927,-2.172,-2.2574,-2.2336,-2.2558,-2.2891,-2.3143,0.0,0.0,0.0,0.0,0.0,0.0,-2.1141,-2.0677,0.0,0.0,-2.1096,-2.2622,0.0,0.0,0.0,0.0,0.0,0.0,-2.7288,-2.7425,-2.7886,-2.7697,-2.776,-2.8091,-2.776,-2.7625,-2.7625,-2.7625,-2.7625,-2.7625,-2.7625,-2.7357,-2.6982,-2.7408,-2.7357,-2.6982,-2.7408,-2.7625,-2.7625,-2.7625,-2.7625,-2.7625,-2.7625,-2.7625,-2.7625,-2.7625,-2.7993,-2.8606,-2.918,-2.9805,-3.0393,-3.1015,-3.119,-3.119,-3.119,-3.119,-3.119,-3.119,-3.1389,-3.1714,-3.235,-3.2713,-3.3075,-3.368,-3.4064,-3.4431,-3.4899,-3.5954,-3.6927,-3.7404,-3.8138,-3.8707,-3.8707,-3.8707,-3.8707,-3.8707,-3.9216,-3.9599,-3.9599,-4.0138,-4.0489,-4.0489,-4.0489,-4.0489,-4.0489,-4.0489,-4.0489,-4.0489,-4.0489,-4.0489,-4.0489,-4.0489,-4.0489,-4.0489,-4.0489,-4.0489,-4.0489,-4.0489,-4.0489,-4.0489,-4.0489,-4.0489,-2.1832,0.0,0.0,0.0,0.0,0.0,0.0,0.0,0.0,-2.3551,-2.3595,0.0,0.0,0.0,-2.2652,-2.1829,0.0,-2.0677,-1.9809,-1.969,-2.0393,0.0,0.0,0.0,0.0,0.0,0.0,-2.6609,-2.6592,-2.6816,-2.7394,-2.7518,-2.781,-2.8238,-2.781,-2.7625,-2.7625,-2.7625,-2.7625,-2.7625,-2.7625,-2.7306,-2.6826,-2.7357,-2.7306,-2.6826,-2.7357,-2.7625,-2.7625,-2.7625,-2.7625,-2.7625,-2.7625,-2.7625,-2.7625,-2.7625,-2.786,-2.8367,-2.9134,-2.9892,-3.0617,-3.1055,-3.119,-3.119,-3.119,-3.119,-3.119,-3.119,-3.1507,-3.1915,-3.2384,-3.284,-3.3302,-3.3707,-3.3807,-3.3972,-3.4559,-3.5349,-3.6193,-3.7,-3.7808,-3.8432,-3.867,-3.8707,-3.8707,-3.8707,-3.9216,-3.9599,-3.9599,-4.0138,-4.0489,-4.0489,-4.0489,-4.0489,-4.0489,-4.0489,-4.0489,-4.0489,-4.0489,-4.0489,-4.0489,-4.0489,-4.0489,-4.0489,-4.0489,-4.0489,-4.0489,-4.0489,-4.0489,-4.0489,-4.0489,-4.0489,0.0,0.0,0.0,-2.2486,0.0,0.0,0.0,0.0,-2.2875,0.0,0.0,-2.3595,-2.3595,-2.358,-2.3161,-2.1904,-2.168,0.0,0.0,-1.969,-1.972,-1.9809,-2.148,0.0,0.0,-2.5738,-2.5864,-2.547,-2.6524,-2.6714,-2.574,-2.6905,-2.7625,-2.7625,-2.7625,-2.7625,-2.7625,-2.7625,-2.7625,-2.7625,-2.7625,-2.7575,-2.7575,-2.7575,-2.7575,-2.7575,-2.7575,-2.7625,-2.7625,-2.7625,-2.7625,-2.7625,-2.7625,-2.7625,-2.7625,-2.7625,-2.761,-2.781,-2.8996,-3.0166,-3.119,-3.119,-3.119,-3.119,-3.119,-3.119,-3.119,-3.119,-3.1507,-3.1915,-3.2384,-3.284,-3.3302,-3.3707,-3.3807,-3.3807,-3.3825,-3.4486,-3.5312,-3.6174,-3.6982,-3.7771,-3.8579,-3.8707,-3.8707,-3.8707,-3.9216,-3.9599,-3.9599,-4.0138,-4.0489,-4.0489,-4.0489,-4.0489,-4.0489,-4.0489,-4.0489,-4.0489,-4.0489,-4.0489,-4.0489,-4.0489,-4.0489,-4.0489,-4.0489,-4.0489,-4.0489,-4.0489,-4.0489,-4.0489,-4.0489,-4.0489,0.0,0.0,-2.5864,-2.569,0.0,0.0,0.0,0.0,0.0,0.0,0.0,0.0,-2.3595,-2.3595,-2.3176,-2.1904,-2.1695,-2.1216,0.0,-1.969,-2.0112,-2.1142,-2.1856,-2.3048,0.0,0.0,0.0,-2.4476,-2.4171,-2.3809,-2.3422,-2.5244,-2.6273,-2.6273,-2.7126,-2.7625,-2.7625,-2.7625,-2.7625,-2.7625,-2.7625,-2.7357,-2.6878,-2.7357,-2.7357,-2.6878,-2.7408,-2.7625,-2.7625,-2.7625,-2.7625,-2.7625,-2.7625,-2.7625,-2.7625,-2.7625,-2.7625,-2.776,-2.8996,-3.0208,-3.119,-3.119,-3.119,-3.119,-3.119,-3.119,-3.119,-3.119,-3.1714,-3.2316,-3.2451,-3.3045,-3.3634,-3.378,-3.3807,-3.3807,-3.3807,-3.4431,-3.5082,-3.5385,-3.656,-3.7569,-3.7845,-3.834,-3.8707,-3.8707,-3.9216,-3.9599,-3.9599,-4.0138,-4.0489,-4.0489,-4.0489,-4.0489,-4.0489,-4.0489,-4.0489,-4.0489,-4.0489,-4.0489,-4.0489,-4.0489,-4.0489,-4.0489,-4.0489,-4.0489,-4.0489,-4.0489,-4.0489,-4.0489,-4.0489,-4.0489,-2.6291,-2.7277,0.0,-2.7689,-2.7734,0.0,-2.6951,0.0,-2.5001,0.0,0.0,0.0,0.0,-2.4313,-2.3744,-2.1979,-2.1695,-2.1216,0.0,-1.9818,-2.0454,-2.1935,-2.234,-2.3178,-2.4899,-2.3762,-2.3109,-2.3491,-2.2901,-2.239,0.0,0.0,-2.5615,-2.5615,-2.6886,-2.7625,-2.7625,-2.7625,-2.7625,-2.7625,-2.7625,-2.7357,-2.693,-2.7357,-2.7357,-2.693,-2.7408,-2.7625,-2.7625,-2.7625,-2.7625,-2.7625,-2.7625,-2.7625,-2.7625,-2.7625,-2.7894,-2.84,-2.9361,-3.0393,-3.119,-3.119,-3.119,-3.119,-3.119,-3.119,-3.119,-3.119,-3.1823,-3.2484,-3.2484,-3.3166,-3.3807,-3.3807,-3.3807,-3.3807,-3.3807,-3.4211,-3.4642,-3.4935,-3.5881,-3.6798,-3.7386,-3.7918,-3.8377,-3.867,-3.9216,-3.9599,-3.9599,-4.0138,-4.0489,-4.0489,-4.0489,-4.0489,-4.0489,-4.0489,-4.0489,-4.0489,-4.0489,-4.0489,-4.0489,-4.0489,-4.0489,-4.0489,-4.0489,-4.0489,-4.0489,-4.0489,-4.0489,-4.0489,-4.0489,-4.0489]}]]